<?xml version='1.0' encoding='UTF-8'?>
<gpx version="1.1" creator="https://www.komoot.de" xmlns="http://www.topografix.com/GPX/1/1" xmlns:xsi="http://www.w3.org/2001/XMLSchema-instance" xsi:schemaLocation="http://www.topografix.com/GPX/1/1 http://www.topografix.com/GPX/1/1/gpx.xsd">
  <metadata>
    <name>69_1200Arxhof</name>
    <author>
      <link href="https://www.komoot.de">
        <text>komoot</text>
        <type>text/html</type>
      </link>
    </author>
  </metadata>
  <trk>
    <name>69_1200Arxhof</name>
    <trkseg>
      <trkpt lat="47.541455" lon="7.870756">
        <ele>339.087874</ele>
        <time>2021-11-20T07:22:16.822Z</time>
      </trkpt>
      <trkpt lat="47.541576" lon="7.870664">
        <ele>339.087874</ele>
        <time>2021-11-20T07:22:18.582Z</time>
      </trkpt>
      <trkpt lat="47.541550" lon="7.870601">
        <ele>339.087874</ele>
        <time>2021-11-20T07:22:19.393Z</time>
      </trkpt>
      <trkpt lat="47.541521" lon="7.870517">
        <ele>339.087874</ele>
        <time>2021-11-20T07:22:20.450Z</time>
      </trkpt>
      <trkpt lat="47.541606" lon="7.870424">
        <ele>339.087874</ele>
        <time>2021-11-20T07:22:22.188Z</time>
      </trkpt>
      <trkpt lat="47.541910" lon="7.870106">
        <ele>339.087874</ele>
        <time>2021-11-20T07:22:28.037Z</time>
      </trkpt>
      <trkpt lat="47.542014" lon="7.870126">
        <ele>339.087874</ele>
        <time>2021-11-20T07:22:29.543Z</time>
      </trkpt>
      <trkpt lat="47.542118" lon="7.870135">
        <ele>339.050218</ele>
        <time>2021-11-20T07:22:31.300Z</time>
      </trkpt>
      <trkpt lat="47.542181" lon="7.870131">
        <ele>338.986209</ele>
        <time>2021-11-20T07:22:32.187Z</time>
      </trkpt>
      <trkpt lat="47.542317" lon="7.870012">
        <ele>338.825873</ele>
        <time>2021-11-20T07:22:34.378Z</time>
      </trkpt>
      <trkpt lat="47.542348" lon="7.869983">
        <ele>338.788656</ele>
        <time>2021-11-20T07:22:34.823Z</time>
      </trkpt>
      <trkpt lat="47.542329" lon="7.869820">
        <ele>338.675310</ele>
        <time>2021-11-20T07:22:36.622Z</time>
      </trkpt>
      <trkpt lat="47.542372" lon="7.869746">
        <ele>338.608404</ele>
        <time>2021-11-20T07:22:37.446Z</time>
      </trkpt>
      <trkpt lat="47.542657" lon="7.869354">
        <ele>338.213630</ele>
        <time>2021-11-20T07:22:42.304Z</time>
      </trkpt>
      <trkpt lat="47.542696" lon="7.869257">
        <ele>338.136266</ele>
        <time>2021-11-20T07:22:43.238Z</time>
      </trkpt>
      <trkpt lat="47.542722" lon="7.869201">
        <ele>338.089694</ele>
        <time>2021-11-20T07:22:43.829Z</time>
      </trkpt>
      <trkpt lat="47.542799" lon="7.869097">
        <ele>337.983921</ele>
        <time>2021-11-20T07:22:45.012Z</time>
      </trkpt>
      <trkpt lat="47.543049" lon="7.868759">
        <ele>337.640349</ele>
        <time>2021-11-20T07:22:48.746Z</time>
      </trkpt>
      <trkpt lat="47.543105" lon="7.868711">
        <ele>337.574675</ele>
        <time>2021-11-20T07:22:49.484Z</time>
      </trkpt>
      <trkpt lat="47.543201" lon="7.868657">
        <ele>337.470438</ele>
        <time>2021-11-20T07:22:50.563Z</time>
      </trkpt>
      <trkpt lat="47.543657" lon="7.868359">
        <ele>336.900501</ele>
        <time>2021-11-20T07:22:56.357Z</time>
      </trkpt>
      <trkpt lat="47.543801" lon="7.868269">
        <ele>336.707721</ele>
        <time>2021-11-20T07:22:58.838Z</time>
      </trkpt>
      <trkpt lat="47.544214" lon="7.867988">
        <ele>336.147139</ele>
        <time>2021-11-20T07:23:06.453Z</time>
      </trkpt>
      <trkpt lat="47.544246" lon="7.867967">
        <ele>336.103969</ele>
        <time>2021-11-20T07:23:07.049Z</time>
      </trkpt>
      <trkpt lat="47.544410" lon="7.867825">
        <ele>335.869663</ele>
        <time>2021-11-20T07:23:10.300Z</time>
      </trkpt>
      <trkpt lat="47.544469" lon="7.867776">
        <ele>335.786232</ele>
        <time>2021-11-20T07:23:11.322Z</time>
      </trkpt>
      <trkpt lat="47.544568" lon="7.867693">
        <ele>335.645920</ele>
        <time>2021-11-20T07:23:13.249Z</time>
      </trkpt>
      <trkpt lat="47.545003" lon="7.867278">
        <ele>335.073860</ele>
        <time>2021-11-20T07:23:22.097Z</time>
      </trkpt>
      <trkpt lat="47.545160" lon="7.866985">
        <ele>335.337920</ele>
        <time>2021-11-20T07:23:26.748Z</time>
      </trkpt>
      <trkpt lat="47.545240" lon="7.866887">
        <ele>335.446472</ele>
        <time>2021-11-20T07:23:29.021Z</time>
      </trkpt>
      <trkpt lat="47.546096" lon="7.866147">
        <ele>336.482852</ele>
        <time>2021-11-20T07:23:54.091Z</time>
      </trkpt>
      <trkpt lat="47.546327" lon="7.865959">
        <ele>336.758460</ele>
        <time>2021-11-20T07:24:01.828Z</time>
      </trkpt>
      <trkpt lat="47.546510" lon="7.865766">
        <ele>337.053599</ele>
        <time>2021-11-20T07:24:08.930Z</time>
      </trkpt>
      <trkpt lat="47.546819" lon="7.865489">
        <ele>337.761054</ele>
        <time>2021-11-20T07:24:19.161Z</time>
      </trkpt>
      <trkpt lat="47.546889" lon="7.865225">
        <ele>338.136075</ele>
        <time>2021-11-20T07:24:24.352Z</time>
      </trkpt>
      <trkpt lat="47.546894" lon="7.864837">
        <ele>338.649173</ele>
        <time>2021-11-20T07:24:31.772Z</time>
      </trkpt>
      <trkpt lat="47.546885" lon="7.864500">
        <ele>339.095095</ele>
        <time>2021-11-20T07:24:38.560Z</time>
      </trkpt>
      <trkpt lat="47.546877" lon="7.864345">
        <ele>339.300631</ele>
        <time>2021-11-20T07:24:41.454Z</time>
      </trkpt>
      <trkpt lat="47.546592" lon="7.863006">
        <ele>340.674961</ele>
        <time>2021-11-20T07:25:07.463Z</time>
      </trkpt>
      <trkpt lat="47.546526" lon="7.861665">
        <ele>341.244771</ele>
        <time>2021-11-20T07:25:28.195Z</time>
      </trkpt>
      <trkpt lat="47.546487" lon="7.859119">
        <ele>341.187445</ele>
        <time>2021-11-20T07:26:00.816Z</time>
      </trkpt>
      <trkpt lat="47.546537" lon="7.857497">
        <ele>340.864828</ele>
        <time>2021-11-20T07:26:21.827Z</time>
      </trkpt>
      <trkpt lat="47.546582" lon="7.856413">
        <ele>340.679124</ele>
        <time>2021-11-20T07:26:36.180Z</time>
      </trkpt>
      <trkpt lat="47.546945" lon="7.851719">
        <ele>339.197289</ele>
        <time>2021-11-20T07:27:37.216Z</time>
      </trkpt>
      <trkpt lat="47.547141" lon="7.850355">
        <ele>338.236123</ele>
        <time>2021-11-20T07:27:52.781Z</time>
      </trkpt>
      <trkpt lat="47.547143" lon="7.849985">
        <ele>337.784147</ele>
        <time>2021-11-20T07:27:56.689Z</time>
      </trkpt>
      <trkpt lat="47.547124" lon="7.848795">
        <ele>336.190676</ele>
        <time>2021-11-20T07:28:09.288Z</time>
      </trkpt>
      <trkpt lat="47.547274" lon="7.845536">
        <ele>332.220835</ele>
        <time>2021-11-20T07:28:44.046Z</time>
      </trkpt>
      <trkpt lat="47.547295" lon="7.844722">
        <ele>331.710715</ele>
        <time>2021-11-20T07:28:53.529Z</time>
      </trkpt>
      <trkpt lat="47.547313" lon="7.843735">
        <ele>332.284164</ele>
        <time>2021-11-20T07:29:06.176Z</time>
      </trkpt>
      <trkpt lat="47.547354" lon="7.842839">
        <ele>332.805746</ele>
        <time>2021-11-20T07:29:22.250Z</time>
      </trkpt>
      <trkpt lat="47.547448" lon="7.842262">
        <ele>333.276285</ele>
        <time>2021-11-20T07:29:34.609Z</time>
      </trkpt>
      <trkpt lat="47.547314" lon="7.842270">
        <ele>333.811327</ele>
        <time>2021-11-20T07:29:39.140Z</time>
      </trkpt>
      <trkpt lat="47.546951" lon="7.842267">
        <ele>335.259577</ele>
        <time>2021-11-20T07:29:50.962Z</time>
      </trkpt>
      <trkpt lat="47.546843" lon="7.842270">
        <ele>335.690531</ele>
        <time>2021-11-20T07:29:53.557Z</time>
      </trkpt>
      <trkpt lat="47.546598" lon="7.842266">
        <ele>336.668045</ele>
        <time>2021-11-20T07:30:00.969Z</time>
      </trkpt>
      <trkpt lat="47.545011" lon="7.842239">
        <ele>344.436571</ele>
        <time>2021-11-20T07:30:55.817Z</time>
      </trkpt>
      <trkpt lat="47.544939" lon="7.842229">
        <ele>344.878127</ele>
        <time>2021-11-20T07:30:59.063Z</time>
      </trkpt>
      <trkpt lat="47.544480" lon="7.842116">
        <ele>347.719193</ele>
        <time>2021-11-20T07:31:16.142Z</time>
      </trkpt>
      <trkpt lat="47.543343" lon="7.841595">
        <ele>357.721365</ele>
        <time>2021-11-20T07:32:10.823Z</time>
      </trkpt>
      <trkpt lat="47.543032" lon="7.841467">
        <ele>361.144488</ele>
        <time>2021-11-20T07:32:25.677Z</time>
      </trkpt>
      <trkpt lat="47.542890" lon="7.841434">
        <ele>362.668835</ele>
        <time>2021-11-20T07:32:35.974Z</time>
      </trkpt>
      <trkpt lat="47.542795" lon="7.841432">
        <ele>363.676425</ele>
        <time>2021-11-20T07:32:41.759Z</time>
      </trkpt>
      <trkpt lat="47.542781" lon="7.841430">
        <ele>363.825585</ele>
        <time>2021-11-20T07:32:43.110Z</time>
      </trkpt>
      <trkpt lat="47.542339" lon="7.841424">
        <ele>368.513253</ele>
        <time>2021-11-20T07:33:13.057Z</time>
      </trkpt>
      <trkpt lat="47.542097" lon="7.841420">
        <ele>371.293860</ele>
        <time>2021-11-20T07:33:30.557Z</time>
      </trkpt>
      <trkpt lat="47.541583" lon="7.841568">
        <ele>378.473059</ele>
        <time>2021-11-20T07:34:07.844Z</time>
      </trkpt>
      <trkpt lat="47.541483" lon="7.841624">
        <ele>379.938828</ele>
        <time>2021-11-20T07:34:16.662Z</time>
      </trkpt>
      <trkpt lat="47.541409" lon="7.841671">
        <ele>381.042744</ele>
        <time>2021-11-20T07:34:21.694Z</time>
      </trkpt>
      <trkpt lat="47.541351" lon="7.841740">
        <ele>382.062659</ele>
        <time>2021-11-20T07:34:28.292Z</time>
      </trkpt>
      <trkpt lat="47.541050" lon="7.841906">
        <ele>386.466305</ele>
        <time>2021-11-20T07:34:49.167Z</time>
      </trkpt>
      <trkpt lat="47.540817" lon="7.841934">
        <ele>389.671396</ele>
        <time>2021-11-20T07:35:04.604Z</time>
      </trkpt>
      <trkpt lat="47.540744" lon="7.841906">
        <ele>390.705285</ele>
        <time>2021-11-20T07:35:10.059Z</time>
      </trkpt>
      <trkpt lat="47.540531" lon="7.841825">
        <ele>393.720363</ele>
        <time>2021-11-20T07:35:23.637Z</time>
      </trkpt>
      <trkpt lat="47.540305" lon="7.841591">
        <ele>397.016727</ele>
        <time>2021-11-20T07:35:44.488Z</time>
      </trkpt>
      <trkpt lat="47.540168" lon="7.841414">
        <ele>399.024750</ele>
        <time>2021-11-20T07:35:58.685Z</time>
      </trkpt>
      <trkpt lat="47.540066" lon="7.841269">
        <ele>400.586336</ele>
        <time>2021-11-20T07:36:09.300Z</time>
      </trkpt>
      <trkpt lat="47.539702" lon="7.840734">
        <ele>406.250463</ele>
        <time>2021-11-20T07:36:34.797Z</time>
      </trkpt>
      <trkpt lat="47.539657" lon="7.840668">
        <ele>406.949964</ele>
        <time>2021-11-20T07:36:39.284Z</time>
      </trkpt>
      <trkpt lat="47.539459" lon="7.840353">
        <ele>410.159489</ele>
        <time>2021-11-20T07:36:54.303Z</time>
      </trkpt>
      <trkpt lat="47.539357" lon="7.840201">
        <ele>411.757672</ele>
        <time>2021-11-20T07:37:02.075Z</time>
      </trkpt>
      <trkpt lat="47.539226" lon="7.839805">
        <ele>415.017751</ele>
        <time>2021-11-20T07:37:18.780Z</time>
      </trkpt>
      <trkpt lat="47.538868" lon="7.838681">
        <ele>422.724156</ele>
        <time>2021-11-20T07:38:05.162Z</time>
      </trkpt>
      <trkpt lat="47.538837" lon="7.838580">
        <ele>423.412124</ele>
        <time>2021-11-20T07:38:10.273Z</time>
      </trkpt>
      <trkpt lat="47.538810" lon="7.838491">
        <ele>424.017156</ele>
        <time>2021-11-20T07:38:13.357Z</time>
      </trkpt>
      <trkpt lat="47.538712" lon="7.838169">
        <ele>426.207333</ele>
        <time>2021-11-20T07:38:24.562Z</time>
      </trkpt>
      <trkpt lat="47.538612" lon="7.837844">
        <ele>428.422042</ele>
        <time>2021-11-20T07:38:36.113Z</time>
      </trkpt>
      <trkpt lat="47.538505" lon="7.837464">
        <ele>430.975098</ele>
        <time>2021-11-20T07:38:48.654Z</time>
      </trkpt>
      <trkpt lat="47.538410" lon="7.837106">
        <ele>432.934665</ele>
        <time>2021-11-20T07:39:01.114Z</time>
      </trkpt>
      <trkpt lat="47.538222" lon="7.835464">
        <ele>441.021246</ele>
        <time>2021-11-20T07:39:51.943Z</time>
      </trkpt>
      <trkpt lat="47.538158" lon="7.835307">
        <ele>441.911755</ele>
        <time>2021-11-20T07:39:56.784Z</time>
      </trkpt>
      <trkpt lat="47.537707" lon="7.834801">
        <ele>445.655983</ele>
        <time>2021-11-20T07:40:18.071Z</time>
      </trkpt>
      <trkpt lat="47.537138" lon="7.834039">
        <ele>450.083983</ele>
        <time>2021-11-20T07:40:48.476Z</time>
      </trkpt>
      <trkpt lat="47.536897" lon="7.833599">
        <ele>452.292099</ele>
        <time>2021-11-20T07:41:04.277Z</time>
      </trkpt>
      <trkpt lat="47.536802" lon="7.833477">
        <ele>453.017905</ele>
        <time>2021-11-20T07:41:09.299Z</time>
      </trkpt>
      <trkpt lat="47.536644" lon="7.833357">
        <ele>454.042881</ele>
        <time>2021-11-20T07:41:15.638Z</time>
      </trkpt>
      <trkpt lat="47.536401" lon="7.833309">
        <ele>454.738992</ele>
        <time>2021-11-20T07:41:23.778Z</time>
      </trkpt>
      <trkpt lat="47.536091" lon="7.833355">
        <ele>454.790973</ele>
        <time>2021-11-20T07:41:33.524Z</time>
      </trkpt>
      <trkpt lat="47.535868" lon="7.833423">
        <ele>454.828959</ele>
        <time>2021-11-20T07:41:38.123Z</time>
      </trkpt>
      <trkpt lat="47.535301" lon="7.833465">
        <ele>454.923678</ele>
        <time>2021-11-20T07:41:46.287Z</time>
      </trkpt>
      <trkpt lat="47.535041" lon="7.833445">
        <ele>454.967116</ele>
        <time>2021-11-20T07:41:49.031Z</time>
      </trkpt>
      <trkpt lat="47.534869" lon="7.833423">
        <ele>454.995920</ele>
        <time>2021-11-20T07:41:50.632Z</time>
      </trkpt>
      <trkpt lat="47.534581" lon="7.833360">
        <ele>453.987191</ele>
        <time>2021-11-20T07:41:53.666Z</time>
      </trkpt>
      <trkpt lat="47.534536" lon="7.833350">
        <ele>453.695357</ele>
        <time>2021-11-20T07:41:54.051Z</time>
      </trkpt>
      <trkpt lat="47.534258" lon="7.833316">
        <ele>451.906356</ele>
        <time>2021-11-20T07:41:56.837Z</time>
      </trkpt>
      <trkpt lat="47.534141" lon="7.833324">
        <ele>451.155186</ele>
        <time>2021-11-20T07:41:57.852Z</time>
      </trkpt>
      <trkpt lat="47.534011" lon="7.833341">
        <ele>450.318198</ele>
        <time>2021-11-20T07:41:59.147Z</time>
      </trkpt>
      <trkpt lat="47.533862" lon="7.833372">
        <ele>449.353215</ele>
        <time>2021-11-20T07:42:00.485Z</time>
      </trkpt>
      <trkpt lat="47.533855" lon="7.833235">
        <ele>448.758302</ele>
        <time>2021-11-20T07:42:02.757Z</time>
      </trkpt>
      <trkpt lat="47.533787" lon="7.832819">
        <ele>446.904957</ele>
        <time>2021-11-20T07:42:05.371Z</time>
      </trkpt>
      <trkpt lat="47.533728" lon="7.831912">
        <ele>442.965145</ele>
        <time>2021-11-20T07:42:10.760Z</time>
      </trkpt>
      <trkpt lat="47.533685" lon="7.831757">
        <ele>442.247504</ele>
        <time>2021-11-20T07:42:11.758Z</time>
      </trkpt>
      <trkpt lat="47.533641" lon="7.831715">
        <ele>441.915473</ele>
        <time>2021-11-20T07:42:12.214Z</time>
      </trkpt>
      <trkpt lat="47.533606" lon="7.831667">
        <ele>441.612915</ele>
        <time>2021-11-20T07:42:12.670Z</time>
      </trkpt>
      <trkpt lat="47.533503" lon="7.831541">
        <ele>440.765562</ele>
        <time>2021-11-20T07:42:13.870Z</time>
      </trkpt>
      <trkpt lat="47.533464" lon="7.831485">
        <ele>440.421019</ele>
        <time>2021-11-20T07:42:14.343Z</time>
      </trkpt>
      <trkpt lat="47.533248" lon="7.831080">
        <ele>438.210726</ele>
        <time>2021-11-20T07:42:17.534Z</time>
      </trkpt>
      <trkpt lat="47.533205" lon="7.830904">
        <ele>437.409164</ele>
        <time>2021-11-20T07:42:18.742Z</time>
      </trkpt>
      <trkpt lat="47.533172" lon="7.830741">
        <ele>436.680399</ele>
        <time>2021-11-20T07:42:19.822Z</time>
      </trkpt>
      <trkpt lat="47.533138" lon="7.830624">
        <ele>436.134898</ele>
        <time>2021-11-20T07:42:20.595Z</time>
      </trkpt>
      <trkpt lat="47.532741" lon="7.829861">
        <ele>432.010004</ele>
        <time>2021-11-20T07:42:26.674Z</time>
      </trkpt>
      <trkpt lat="47.532227" lon="7.828686">
        <ele>426.056277</ele>
        <time>2021-11-20T07:42:35.288Z</time>
      </trkpt>
      <trkpt lat="47.531778" lon="7.828188">
        <ele>422.523265</ele>
        <time>2021-11-20T07:42:40.329Z</time>
      </trkpt>
      <trkpt lat="47.531664" lon="7.828061">
        <ele>421.624813</ele>
        <time>2021-11-20T07:42:41.691Z</time>
      </trkpt>
      <trkpt lat="47.531513" lon="7.827959">
        <ele>420.619150</ele>
        <time>2021-11-20T07:42:43.125Z</time>
      </trkpt>
      <trkpt lat="47.530910" lon="7.827537">
        <ele>417.424881</ele>
        <time>2021-11-20T07:42:49.373Z</time>
      </trkpt>
      <trkpt lat="47.530778" lon="7.827416">
        <ele>416.681369</ele>
        <time>2021-11-20T07:42:50.939Z</time>
      </trkpt>
      <trkpt lat="47.530711" lon="7.827258">
        <ele>416.078008</ele>
        <time>2021-11-20T07:42:52.191Z</time>
      </trkpt>
      <trkpt lat="47.530663" lon="7.827082">
        <ele>415.464171</ele>
        <time>2021-11-20T07:42:53.319Z</time>
      </trkpt>
      <trkpt lat="47.530680" lon="7.826915">
        <ele>414.918013</ele>
        <time>2021-11-20T07:42:54.854Z</time>
      </trkpt>
      <trkpt lat="47.530760" lon="7.826489">
        <ele>413.488097</ele>
        <time>2021-11-20T07:42:57.721Z</time>
      </trkpt>
      <trkpt lat="47.530870" lon="7.825910">
        <ele>411.375991</ele>
        <time>2021-11-20T07:43:02.004Z</time>
      </trkpt>
      <trkpt lat="47.531216" lon="7.825253">
        <ele>407.915371</ele>
        <time>2021-11-20T07:43:07.199Z</time>
      </trkpt>
      <trkpt lat="47.531554" lon="7.824738">
        <ele>404.932428</ele>
        <time>2021-11-20T07:43:11.852Z</time>
      </trkpt>
      <trkpt lat="47.531766" lon="7.824396">
        <ele>403.004160</ele>
        <time>2021-11-20T07:43:14.666Z</time>
      </trkpt>
      <trkpt lat="47.531817" lon="7.824286">
        <ele>402.449960</ele>
        <time>2021-11-20T07:43:15.498Z</time>
      </trkpt>
      <trkpt lat="47.531785" lon="7.824131">
        <ele>401.776782</ele>
        <time>2021-11-20T07:43:16.426Z</time>
      </trkpt>
      <trkpt lat="47.531355" lon="7.822795">
        <ele>391.036892</ele>
        <time>2021-11-20T07:43:25.001Z</time>
      </trkpt>
      <trkpt lat="47.531187" lon="7.822513">
        <ele>388.155320</ele>
        <time>2021-11-20T07:43:27.131Z</time>
      </trkpt>
      <trkpt lat="47.530911" lon="7.822265">
        <ele>384.491869</ele>
        <time>2021-11-20T07:43:29.844Z</time>
      </trkpt>
      <trkpt lat="47.530898" lon="7.822253">
        <ele>384.318035</ele>
        <time>2021-11-20T07:43:29.972Z</time>
      </trkpt>
      <trkpt lat="47.530546" lon="7.822037">
        <ele>379.951922</ele>
        <time>2021-11-20T07:43:33.191Z</time>
      </trkpt>
      <trkpt lat="47.529477" lon="7.821870">
        <ele>366.973164</ele>
        <time>2021-11-20T07:43:42.279Z</time>
      </trkpt>
      <trkpt lat="47.529177" lon="7.821813">
        <ele>363.321264</ele>
        <time>2021-11-20T07:43:44.839Z</time>
      </trkpt>
      <trkpt lat="47.529032" lon="7.821783">
        <ele>361.553526</ele>
        <time>2021-11-20T07:43:46.080Z</time>
      </trkpt>
      <trkpt lat="47.528891" lon="7.821754">
        <ele>359.834748</ele>
        <time>2021-11-20T07:43:47.280Z</time>
      </trkpt>
      <trkpt lat="47.528543" lon="7.821686">
        <ele>356.340394</ele>
        <time>2021-11-20T07:43:51.473Z</time>
      </trkpt>
      <trkpt lat="47.528034" lon="7.821675">
        <ele>351.562252</ele>
        <time>2021-11-20T07:43:57.609Z</time>
      </trkpt>
      <trkpt lat="47.527826" lon="7.821632">
        <ele>349.590969</ele>
        <time>2021-11-20T07:44:00.164Z</time>
      </trkpt>
      <trkpt lat="47.527571" lon="7.821581">
        <ele>347.175732</ele>
        <time>2021-11-20T07:44:03.371Z</time>
      </trkpt>
      <trkpt lat="47.527485" lon="7.821570">
        <ele>346.365504</ele>
        <time>2021-11-20T07:44:04.447Z</time>
      </trkpt>
      <trkpt lat="47.527413" lon="7.821524">
        <ele>345.629485</ele>
        <time>2021-11-20T07:44:05.438Z</time>
      </trkpt>
      <trkpt lat="47.527330" lon="7.821475">
        <ele>344.790802</ele>
        <time>2021-11-20T07:44:06.589Z</time>
      </trkpt>
      <trkpt lat="47.527273" lon="7.821332">
        <ele>343.738334</ele>
        <time>2021-11-20T07:44:08.044Z</time>
      </trkpt>
      <trkpt lat="47.527202" lon="7.821239">
        <ele>342.848637</ele>
        <time>2021-11-20T07:44:09.259Z</time>
      </trkpt>
      <trkpt lat="47.527128" lon="7.821204">
        <ele>342.119487</ele>
        <time>2021-11-20T07:44:10.258Z</time>
      </trkpt>
      <trkpt lat="47.527201" lon="7.820618">
        <ele>340.485202</ele>
        <time>2021-11-20T07:44:13.994Z</time>
      </trkpt>
      <trkpt lat="47.527223" lon="7.820442">
        <ele>340.005409</ele>
        <time>2021-11-20T07:44:15.157Z</time>
      </trkpt>
      <trkpt lat="47.527258" lon="7.820150">
        <ele>339.210451</ele>
        <time>2021-11-20T07:44:17.024Z</time>
      </trkpt>
      <trkpt lat="47.527283" lon="7.819942">
        <ele>338.644132</ele>
        <time>2021-11-20T07:44:18.466Z</time>
      </trkpt>
      <trkpt lat="47.527327" lon="7.819619">
        <ele>337.760871</ele>
        <time>2021-11-20T07:44:20.621Z</time>
      </trkpt>
      <trkpt lat="47.527349" lon="7.819451">
        <ele>337.302148</ele>
        <time>2021-11-20T07:44:21.872Z</time>
      </trkpt>
      <trkpt lat="47.527408" lon="7.818945">
        <ele>335.925717</ele>
        <time>2021-11-20T07:44:25.591Z</time>
      </trkpt>
      <trkpt lat="47.527455" lon="7.818544">
        <ele>334.874246</ele>
        <time>2021-11-20T07:44:28.613Z</time>
      </trkpt>
      <trkpt lat="47.527466" lon="7.818406">
        <ele>334.684639</ele>
        <time>2021-11-20T07:44:29.790Z</time>
      </trkpt>
      <trkpt lat="47.527477" lon="7.818068">
        <ele>334.222905</ele>
        <time>2021-11-20T07:44:32.217Z</time>
      </trkpt>
      <trkpt lat="47.527477" lon="7.817911">
        <ele>334.008680</ele>
        <time>2021-11-20T07:44:33.440Z</time>
      </trkpt>
      <trkpt lat="47.527471" lon="7.817746">
        <ele>333.783213</ele>
        <time>2021-11-20T07:44:34.664Z</time>
      </trkpt>
      <trkpt lat="47.527432" lon="7.817173">
        <ele>332.997397</ele>
        <time>2021-11-20T07:44:38.803Z</time>
      </trkpt>
      <trkpt lat="47.527388" lon="7.816407">
        <ele>331.948420</ele>
        <time>2021-11-20T07:44:44.438Z</time>
      </trkpt>
      <trkpt lat="47.527376" lon="7.816175">
        <ele>331.630930</ele>
        <time>2021-11-20T07:44:46.132Z</time>
      </trkpt>
      <trkpt lat="47.527366" lon="7.816038">
        <ele>331.442905</ele>
        <time>2021-11-20T07:44:47.182Z</time>
      </trkpt>
      <trkpt lat="47.527362" lon="7.815959">
        <ele>331.334808</ele>
        <time>2021-11-20T07:44:47.805Z</time>
      </trkpt>
      <trkpt lat="47.527361" lon="7.815943">
        <ele>331.312882</ele>
        <time>2021-11-20T07:44:47.932Z</time>
      </trkpt>
      <trkpt lat="47.527346" lon="7.815799">
        <ele>331.252093</ele>
        <time>2021-11-20T07:44:49.065Z</time>
      </trkpt>
      <trkpt lat="47.527320" lon="7.815661">
        <ele>331.218654</ele>
        <time>2021-11-20T07:44:50.136Z</time>
      </trkpt>
      <trkpt lat="47.527292" lon="7.815550">
        <ele>331.190998</ele>
        <time>2021-11-20T07:44:51.039Z</time>
      </trkpt>
      <trkpt lat="47.527206" lon="7.815349">
        <ele>331.135460</ele>
        <time>2021-11-20T07:44:53.002Z</time>
      </trkpt>
      <trkpt lat="47.527153" lon="7.815269">
        <ele>331.109302</ele>
        <time>2021-11-20T07:44:53.863Z</time>
      </trkpt>
      <trkpt lat="47.527105" lon="7.815211">
        <ele>331.087889</ele>
        <time>2021-11-20T07:44:54.615Z</time>
      </trkpt>
      <trkpt lat="47.526665" lon="7.814850">
        <ele>330.914023</ele>
        <time>2021-11-20T07:45:01.369Z</time>
      </trkpt>
      <trkpt lat="47.526655" lon="7.814822">
        <ele>330.906630</ele>
        <time>2021-11-20T07:45:01.733Z</time>
      </trkpt>
      <trkpt lat="47.526579" lon="7.814859">
        <ele>330.878977</ele>
        <time>2021-11-20T07:45:03.002Z</time>
      </trkpt>
      <trkpt lat="47.526478" lon="7.814853">
        <ele>330.844039</ele>
        <time>2021-11-20T07:45:04.431Z</time>
      </trkpt>
      <trkpt lat="47.526394" lon="7.814809">
        <ele>330.813241</ele>
        <time>2021-11-20T07:45:05.842Z</time>
      </trkpt>
      <trkpt lat="47.526135" lon="7.814494">
        <ele>330.697397</ele>
        <time>2021-11-20T07:45:11.685Z</time>
      </trkpt>
      <trkpt lat="47.525874" lon="7.814072">
        <ele>331.119760</ele>
        <time>2021-11-20T07:45:19.123Z</time>
      </trkpt>
      <trkpt lat="47.525829" lon="7.814027">
        <ele>331.210776</ele>
        <time>2021-11-20T07:45:20.316Z</time>
      </trkpt>
      <trkpt lat="47.525640" lon="7.813941">
        <ele>331.542194</ele>
        <time>2021-11-20T07:45:24.228Z</time>
      </trkpt>
      <trkpt lat="47.525265" lon="7.813766">
        <ele>332.201240</ele>
        <time>2021-11-20T07:45:32.386Z</time>
      </trkpt>
      <trkpt lat="47.525103" lon="7.813754">
        <ele>332.473123</ele>
        <time>2021-11-20T07:45:36.336Z</time>
      </trkpt>
      <trkpt lat="47.524982" lon="7.813822">
        <ele>332.690057</ele>
        <time>2021-11-20T07:45:39.069Z</time>
      </trkpt>
      <trkpt lat="47.524963" lon="7.813836">
        <ele>332.725629</ele>
        <time>2021-11-20T07:45:39.501Z</time>
      </trkpt>
      <trkpt lat="47.524645" lon="7.814069">
        <ele>333.320335</ele>
        <time>2021-11-20T07:45:47.484Z</time>
      </trkpt>
      <trkpt lat="47.524601" lon="7.814100">
        <ele>333.402010</ele>
        <time>2021-11-20T07:45:48.588Z</time>
      </trkpt>
      <trkpt lat="47.524286" lon="7.814362">
        <ele>334.181998</ele>
        <time>2021-11-20T07:45:57.819Z</time>
      </trkpt>
      <trkpt lat="47.524032" lon="7.814643">
        <ele>334.991075</ele>
        <time>2021-11-20T07:46:05.822Z</time>
      </trkpt>
      <trkpt lat="47.523994" lon="7.814691">
        <ele>335.118532</ele>
        <time>2021-11-20T07:46:07.178Z</time>
      </trkpt>
      <trkpt lat="47.523836" lon="7.814923">
        <ele>335.686333</ele>
        <time>2021-11-20T07:46:13.063Z</time>
      </trkpt>
      <trkpt lat="47.523757" lon="7.815629">
        <ele>336.919529</ele>
        <time>2021-11-20T07:46:24.423Z</time>
      </trkpt>
      <trkpt lat="47.523730" lon="7.815653">
        <ele>336.999889</ele>
        <time>2021-11-20T07:46:25.795Z</time>
      </trkpt>
      <trkpt lat="47.523608" lon="7.815695">
        <ele>337.319519</ele>
        <time>2021-11-20T07:46:29.001Z</time>
      </trkpt>
      <trkpt lat="47.522090" lon="7.815952">
        <ele>341.288924</ele>
        <time>2021-11-20T07:47:07.404Z</time>
      </trkpt>
      <trkpt lat="47.521870" lon="7.815989">
        <ele>341.867412</ele>
        <time>2021-11-20T07:47:12.227Z</time>
      </trkpt>
      <trkpt lat="47.521699" lon="7.816019">
        <ele>342.317308</ele>
        <time>2021-11-20T07:47:16.917Z</time>
      </trkpt>
      <trkpt lat="47.521383" lon="7.816075">
        <ele>343.168246</ele>
        <time>2021-11-20T07:47:25.255Z</time>
      </trkpt>
      <trkpt lat="47.521199" lon="7.816108">
        <ele>343.703135</ele>
        <time>2021-11-20T07:47:29.823Z</time>
      </trkpt>
      <trkpt lat="47.521087" lon="7.816144">
        <ele>344.033884</ele>
        <time>2021-11-20T07:47:32.726Z</time>
      </trkpt>
      <trkpt lat="47.521028" lon="7.816163">
        <ele>344.208133</ele>
        <time>2021-11-20T07:47:35.007Z</time>
      </trkpt>
      <trkpt lat="47.520578" lon="7.816306">
        <ele>345.536363</ele>
        <time>2021-11-20T07:47:47.333Z</time>
      </trkpt>
      <trkpt lat="47.520002" lon="7.816556">
        <ele>347.268586</ele>
        <time>2021-11-20T07:48:03.599Z</time>
      </trkpt>
      <trkpt lat="47.519959" lon="7.816575">
        <ele>347.398088</ele>
        <time>2021-11-20T07:48:04.881Z</time>
      </trkpt>
      <trkpt lat="47.519807" lon="7.816661">
        <ele>347.867678</ele>
        <time>2021-11-20T07:48:08.895Z</time>
      </trkpt>
      <trkpt lat="47.519453" lon="7.816861">
        <ele>348.739705</ele>
        <time>2021-11-20T07:48:18.655Z</time>
      </trkpt>
      <trkpt lat="47.518941" lon="7.817228">
        <ele>349.931134</ele>
        <time>2021-11-20T07:48:31.906Z</time>
      </trkpt>
      <trkpt lat="47.518481" lon="7.817598">
        <ele>351.027581</ele>
        <time>2021-11-20T07:48:43.653Z</time>
      </trkpt>
      <trkpt lat="47.518220" lon="7.817823">
        <ele>351.660146</ele>
        <time>2021-11-20T07:48:50.046Z</time>
      </trkpt>
      <trkpt lat="47.518035" lon="7.818005">
        <ele>352.190850</ele>
        <time>2021-11-20T07:48:54.754Z</time>
      </trkpt>
      <trkpt lat="47.517657" lon="7.818442">
        <ele>353.517164</ele>
        <time>2021-11-20T07:49:05.165Z</time>
      </trkpt>
      <trkpt lat="47.516786" lon="7.819655">
        <ele>356.824108</ele>
        <time>2021-11-20T07:49:36.189Z</time>
      </trkpt>
      <trkpt lat="47.515587" lon="7.820532">
        <ele>363.115713</ele>
        <time>2021-11-20T07:50:25.094Z</time>
      </trkpt>
      <trkpt lat="47.515469" lon="7.820644">
        <ele>363.780470</ele>
        <time>2021-11-20T07:50:30.619Z</time>
      </trkpt>
      <trkpt lat="47.515268" lon="7.820836">
        <ele>364.914927</ele>
        <time>2021-11-20T07:50:37.595Z</time>
      </trkpt>
      <trkpt lat="47.515202" lon="7.820909">
        <ele>365.305643</ele>
        <time>2021-11-20T07:50:40.936Z</time>
      </trkpt>
      <trkpt lat="47.515036" lon="7.821090">
        <ele>365.829541</ele>
        <time>2021-11-20T07:50:46.796Z</time>
      </trkpt>
      <trkpt lat="47.514821" lon="7.821292">
        <ele>366.398098</ele>
        <time>2021-11-20T07:50:54.371Z</time>
      </trkpt>
      <trkpt lat="47.514708" lon="7.821376">
        <ele>366.680425</ele>
        <time>2021-11-20T07:50:57.542Z</time>
      </trkpt>
      <trkpt lat="47.514302" lon="7.821660">
        <ele>367.683042</ele>
        <time>2021-11-20T07:51:09.246Z</time>
      </trkpt>
      <trkpt lat="47.513483" lon="7.822231">
        <ele>369.595930</ele>
        <time>2021-11-20T07:51:25.394Z</time>
      </trkpt>
      <trkpt lat="47.512648" lon="7.822935">
        <ele>370.855191</ele>
        <time>2021-11-20T07:51:41.142Z</time>
      </trkpt>
      <trkpt lat="47.512263" lon="7.823167">
        <ele>371.399926</ele>
        <time>2021-11-20T07:51:49.640Z</time>
      </trkpt>
      <trkpt lat="47.512067" lon="7.823229">
        <ele>371.662583</ele>
        <time>2021-11-20T07:51:54.544Z</time>
      </trkpt>
      <trkpt lat="47.511863" lon="7.823271">
        <ele>372.274973</ele>
        <time>2021-11-20T07:51:59.484Z</time>
      </trkpt>
      <trkpt lat="47.510706" lon="7.823221">
        <ele>377.683836</ele>
        <time>2021-11-20T07:52:38.093Z</time>
      </trkpt>
      <trkpt lat="47.510203" lon="7.823212">
        <ele>380.034483</ele>
        <time>2021-11-20T07:52:57.114Z</time>
      </trkpt>
      <trkpt lat="47.509744" lon="7.823275">
        <ele>382.835879</ele>
        <time>2021-11-20T07:53:15.281Z</time>
      </trkpt>
      <trkpt lat="47.509075" lon="7.823456">
        <ele>387.050394</ele>
        <time>2021-11-20T07:53:45.362Z</time>
      </trkpt>
      <trkpt lat="47.508288" lon="7.824180">
        <ele>391.977491</ele>
        <time>2021-11-20T07:54:20.824Z</time>
      </trkpt>
      <trkpt lat="47.507990" lon="7.824326">
        <ele>392.823498</ele>
        <time>2021-11-20T07:54:30.432Z</time>
      </trkpt>
      <trkpt lat="47.507017" lon="7.824678">
        <ele>395.523086</ele>
        <time>2021-11-20T07:54:54.240Z</time>
      </trkpt>
      <trkpt lat="47.506147" lon="7.825028">
        <ele>396.159678</ele>
        <time>2021-11-20T07:55:07.421Z</time>
      </trkpt>
      <trkpt lat="47.504813" lon="7.825703">
        <ele>396.358526</ele>
        <time>2021-11-20T07:55:26.496Z</time>
      </trkpt>
      <trkpt lat="47.503860" lon="7.825735">
        <ele>397.326405</ele>
        <time>2021-11-20T07:55:42.598Z</time>
      </trkpt>
      <trkpt lat="47.503509" lon="7.825771">
        <ele>397.683647</ele>
        <time>2021-11-20T07:55:50.317Z</time>
      </trkpt>
      <trkpt lat="47.503225" lon="7.825809">
        <ele>398.184047</ele>
        <time>2021-11-20T07:55:57.340Z</time>
      </trkpt>
      <trkpt lat="47.503195" lon="7.825807">
        <ele>398.332048</ele>
        <time>2021-11-20T07:55:58.081Z</time>
      </trkpt>
      <trkpt lat="47.503143" lon="7.825808">
        <ele>398.588345</ele>
        <time>2021-11-20T07:55:59.275Z</time>
      </trkpt>
      <trkpt lat="47.502825" lon="7.825809">
        <ele>400.155570</ele>
        <time>2021-11-20T07:56:07.942Z</time>
      </trkpt>
      <trkpt lat="47.501557" lon="7.825705">
        <ele>406.414329</ele>
        <time>2021-11-20T07:56:53.094Z</time>
      </trkpt>
      <trkpt lat="47.500385" lon="7.825189">
        <ele>416.131931</ele>
        <time>2021-11-20T07:57:53.426Z</time>
      </trkpt>
      <trkpt lat="47.500269" lon="7.825147">
        <ele>417.104489</ele>
        <time>2021-11-20T07:58:00.484Z</time>
      </trkpt>
      <trkpt lat="47.500062" lon="7.825087">
        <ele>418.822318</ele>
        <time>2021-11-20T07:58:09.360Z</time>
      </trkpt>
      <trkpt lat="47.499714" lon="7.825011">
        <ele>421.631702</ele>
        <time>2021-11-20T07:58:26.325Z</time>
      </trkpt>
      <trkpt lat="47.499602" lon="7.824975">
        <ele>422.363117</ele>
        <time>2021-11-20T07:58:32.941Z</time>
      </trkpt>
      <trkpt lat="47.499488" lon="7.824926">
        <ele>423.120690</ele>
        <time>2021-11-20T07:58:38.552Z</time>
      </trkpt>
      <trkpt lat="47.498586" lon="7.824227">
        <ele>429.618245</ele>
        <time>2021-11-20T07:59:22.832Z</time>
      </trkpt>
      <trkpt lat="47.498343" lon="7.824061">
        <ele>431.326206</ele>
        <time>2021-11-20T07:59:31.715Z</time>
      </trkpt>
      <trkpt lat="47.498162" lon="7.823883">
        <ele>432.713019</ele>
        <time>2021-11-20T07:59:39.116Z</time>
      </trkpt>
      <trkpt lat="47.497246" lon="7.823247">
        <ele>435.119011</ele>
        <time>2021-11-20T08:00:03.678Z</time>
      </trkpt>
      <trkpt lat="47.496927" lon="7.823151">
        <ele>435.852201</ele>
        <time>2021-11-20T08:00:11.218Z</time>
      </trkpt>
      <trkpt lat="47.496704" lon="7.823163">
        <ele>436.354799</ele>
        <time>2021-11-20T08:00:18.561Z</time>
      </trkpt>
      <trkpt lat="47.496375" lon="7.823140">
        <ele>436.961887</ele>
        <time>2021-11-20T08:00:25.270Z</time>
      </trkpt>
      <trkpt lat="47.496320" lon="7.823139">
        <ele>436.963030</ele>
        <time>2021-11-20T08:00:25.749Z</time>
      </trkpt>
      <trkpt lat="47.496254" lon="7.823140">
        <ele>436.964400</ele>
        <time>2021-11-20T08:00:26.324Z</time>
      </trkpt>
      <trkpt lat="47.496106" lon="7.823142">
        <ele>436.967474</ele>
        <time>2021-11-20T08:00:31.815Z</time>
      </trkpt>
      <trkpt lat="47.495873" lon="7.823177">
        <ele>436.972337</ele>
        <time>2021-11-20T08:00:34.070Z</time>
      </trkpt>
      <trkpt lat="47.495577" lon="7.823253">
        <ele>436.978576</ele>
        <time>2021-11-20T08:00:38.981Z</time>
      </trkpt>
      <trkpt lat="47.495379" lon="7.823313">
        <ele>436.982773</ele>
        <time>2021-11-20T08:00:43.873Z</time>
      </trkpt>
      <trkpt lat="47.494984" lon="7.823371">
        <ele>436.991016</ele>
        <time>2021-11-20T08:00:49.082Z</time>
      </trkpt>
      <trkpt lat="47.494910" lon="7.823403">
        <ele>436.992617</ele>
        <time>2021-11-20T08:00:49.785Z</time>
      </trkpt>
      <trkpt lat="47.494652" lon="7.823597">
        <ele>437.056373</ele>
        <time>2021-11-20T08:00:55.010Z</time>
      </trkpt>
      <trkpt lat="47.494522" lon="7.823673">
        <ele>437.320483</ele>
        <time>2021-11-20T08:00:56.766Z</time>
      </trkpt>
      <trkpt lat="47.494316" lon="7.823809">
        <ele>437.746700</ele>
        <time>2021-11-20T08:01:02.178Z</time>
      </trkpt>
      <trkpt lat="47.494072" lon="7.824126">
        <ele>438.360182</ele>
        <time>2021-11-20T08:01:07.710Z</time>
      </trkpt>
      <trkpt lat="47.493969" lon="7.824265">
        <ele>438.623566</ele>
        <time>2021-11-20T08:01:09.514Z</time>
      </trkpt>
      <trkpt lat="47.493875" lon="7.824391">
        <ele>438.863202</ele>
        <time>2021-11-20T08:01:12.269Z</time>
      </trkpt>
      <trkpt lat="47.493647" lon="7.824596">
        <ele>439.367289</ele>
        <time>2021-11-20T08:01:17.517Z</time>
      </trkpt>
      <trkpt lat="47.493537" lon="7.824674">
        <ele>439.597764</ele>
        <time>2021-11-20T08:01:20.705Z</time>
      </trkpt>
      <trkpt lat="47.493509" lon="7.824560">
        <ele>439.752627</ele>
        <time>2021-11-20T08:01:23.481Z</time>
      </trkpt>
      <trkpt lat="47.493699" lon="7.823782">
        <ele>441.844684</ele>
        <time>2021-11-20T08:01:42.646Z</time>
      </trkpt>
      <trkpt lat="47.493696" lon="7.823573">
        <ele>442.782302</ele>
        <time>2021-11-20T08:01:46.969Z</time>
      </trkpt>
      <trkpt lat="47.493592" lon="7.823360">
        <ele>443.960987</ele>
        <time>2021-11-20T08:01:53.825Z</time>
      </trkpt>
      <trkpt lat="47.493409" lon="7.823156">
        <ele>445.481805</ele>
        <time>2021-11-20T08:02:02.688Z</time>
      </trkpt>
      <trkpt lat="47.493228" lon="7.823059">
        <ele>446.759653</ele>
        <time>2021-11-20T08:02:08.853Z</time>
      </trkpt>
      <trkpt lat="47.493081" lon="7.823112">
        <ele>447.763998</ele>
        <time>2021-11-20T08:02:16.063Z</time>
      </trkpt>
      <trkpt lat="47.493066" lon="7.823134">
        <ele>447.904181</ele>
        <time>2021-11-20T08:02:18.284Z</time>
      </trkpt>
      <trkpt lat="47.493047" lon="7.823163">
        <ele>448.085362</ele>
        <time>2021-11-20T08:02:19.485Z</time>
      </trkpt>
      <trkpt lat="47.493025" lon="7.823293">
        <ele>448.686456</ele>
        <time>2021-11-20T08:02:22.982Z</time>
      </trkpt>
      <trkpt lat="47.493084" lon="7.823708">
        <ele>450.588594</ele>
        <time>2021-11-20T08:02:36.899Z</time>
      </trkpt>
      <trkpt lat="47.493041" lon="7.823859">
        <ele>451.323561</ele>
        <time>2021-11-20T08:02:41.273Z</time>
      </trkpt>
      <trkpt lat="47.492910" lon="7.823929">
        <ele>452.248101</ele>
        <time>2021-11-20T08:02:47.506Z</time>
      </trkpt>
      <trkpt lat="47.492649" lon="7.823801">
        <ele>455.195732</ele>
        <time>2021-11-20T08:03:01.729Z</time>
      </trkpt>
      <trkpt lat="47.492353" lon="7.823575">
        <ele>458.835350</ele>
        <time>2021-11-20T08:03:19.878Z</time>
      </trkpt>
      <trkpt lat="47.492112" lon="7.823401">
        <ele>461.765552</ele>
        <time>2021-11-20T08:03:36.653Z</time>
      </trkpt>
      <trkpt lat="47.491130" lon="7.822694">
        <ele>473.976095</ele>
        <time>2021-11-20T08:04:43.097Z</time>
      </trkpt>
      <trkpt lat="47.490703" lon="7.822453">
        <ele>479.780851</ele>
        <time>2021-11-20T08:05:16.361Z</time>
      </trkpt>
      <trkpt lat="47.490467" lon="7.822385">
        <ele>482.834790</ele>
        <time>2021-11-20T08:05:34.500Z</time>
      </trkpt>
      <trkpt lat="47.489808" lon="7.822489">
        <ele>491.252811</ele>
        <time>2021-11-20T08:06:18.860Z</time>
      </trkpt>
      <trkpt lat="47.489514" lon="7.822403">
        <ele>494.873597</ele>
        <time>2021-11-20T08:06:36.702Z</time>
      </trkpt>
      <trkpt lat="47.489383" lon="7.822351">
        <ele>495.155838</ele>
        <time>2021-11-20T08:06:46.181Z</time>
      </trkpt>
      <trkpt lat="47.489263" lon="7.822249">
        <ele>495.443812</ele>
        <time>2021-11-20T08:06:52.874Z</time>
      </trkpt>
      <trkpt lat="47.489169" lon="7.822169">
        <ele>495.669462</ele>
        <time>2021-11-20T08:06:59.123Z</time>
      </trkpt>
      <trkpt lat="47.488631" lon="7.821707">
        <ele>496.963853</ele>
        <time>2021-11-20T08:07:25.102Z</time>
      </trkpt>
      <trkpt lat="47.488504" lon="7.821515">
        <ele>497.341660</ele>
        <time>2021-11-20T08:07:27.265Z</time>
      </trkpt>
      <trkpt lat="47.488407" lon="7.821368">
        <ele>497.630577</ele>
        <time>2021-11-20T08:07:30.598Z</time>
      </trkpt>
      <trkpt lat="47.488272" lon="7.820957">
        <ele>498.273180</ele>
        <time>2021-11-20T08:07:33.421Z</time>
      </trkpt>
      <trkpt lat="47.488034" lon="7.819897">
        <ele>496.852972</ele>
        <time>2021-11-20T08:07:39.705Z</time>
      </trkpt>
      <trkpt lat="47.488038" lon="7.819855">
        <ele>496.771461</ele>
        <time>2021-11-20T08:07:42.506Z</time>
      </trkpt>
      <trkpt lat="47.488069" lon="7.819771">
        <ele>496.587531</ele>
        <time>2021-11-20T08:07:43.053Z</time>
      </trkpt>
      <trkpt lat="47.488351" lon="7.819266">
        <ele>495.328571</ele>
        <time>2021-11-20T08:07:52.532Z</time>
      </trkpt>
      <trkpt lat="47.488471" lon="7.818631">
        <ele>494.061458</ele>
        <time>2021-11-20T08:08:02.424Z</time>
      </trkpt>
      <trkpt lat="47.488476" lon="7.818598">
        <ele>493.996467</ele>
        <time>2021-11-20T08:08:02.864Z</time>
      </trkpt>
      <trkpt lat="47.488531" lon="7.818236">
        <ele>494.216673</ele>
        <time>2021-11-20T08:08:29.563Z</time>
      </trkpt>
      <trkpt lat="47.488720" lon="7.816914">
        <ele>504.970003</ele>
        <time>2021-11-20T08:09:04.691Z</time>
      </trkpt>
      <trkpt lat="47.488831" lon="7.816489">
        <ele>508.595971</ele>
        <time>2021-11-20T08:09:23.276Z</time>
      </trkpt>
      <trkpt lat="47.489000" lon="7.816098">
        <ele>512.289607</ele>
        <time>2021-11-20T08:09:57.429Z</time>
      </trkpt>
      <trkpt lat="47.489256" lon="7.815700">
        <ele>517.201387</ele>
        <time>2021-11-20T08:10:26.187Z</time>
      </trkpt>
      <trkpt lat="47.489951" lon="7.815143">
        <ele>528.999203</ele>
        <time>2021-11-20T08:11:22.961Z</time>
      </trkpt>
      <trkpt lat="47.490141" lon="7.814910">
        <ele>532.682503</ele>
        <time>2021-11-20T08:11:42.953Z</time>
      </trkpt>
      <trkpt lat="47.490583" lon="7.813886">
        <ele>544.822807</ele>
        <time>2021-11-20T08:12:29.507Z</time>
      </trkpt>
      <trkpt lat="47.490609" lon="7.813824">
        <ele>545.534098</ele>
        <time>2021-11-20T08:12:35.292Z</time>
      </trkpt>
      <trkpt lat="47.490928" lon="7.813010">
        <ele>554.706683</ele>
        <time>2021-11-20T08:13:11.730Z</time>
      </trkpt>
      <trkpt lat="47.491001" lon="7.812847">
        <ele>556.612868</ele>
        <time>2021-11-20T08:13:25.828Z</time>
      </trkpt>
      <trkpt lat="47.491212" lon="7.812513">
        <ele>561.069880</ele>
        <time>2021-11-20T08:13:52.203Z</time>
      </trkpt>
      <trkpt lat="47.491595" lon="7.812210">
        <ele>567.334908</ele>
        <time>2021-11-20T08:14:25.283Z</time>
      </trkpt>
      <trkpt lat="47.492008" lon="7.811905">
        <ele>572.502345</ele>
        <time>2021-11-20T08:14:50.154Z</time>
      </trkpt>
      <trkpt lat="47.492176" lon="7.811763">
        <ele>574.658054</ele>
        <time>2021-11-20T08:15:03.611Z</time>
      </trkpt>
      <trkpt lat="47.492264" lon="7.811614">
        <ele>576.147977</ele>
        <time>2021-11-20T08:15:10.032Z</time>
      </trkpt>
      <trkpt lat="47.492273" lon="7.811452">
        <ele>577.371762</ele>
        <time>2021-11-20T08:15:14.678Z</time>
      </trkpt>
      <trkpt lat="47.492257" lon="7.811384">
        <ele>577.913875</ele>
        <time>2021-11-20T08:15:18.294Z</time>
      </trkpt>
      <trkpt lat="47.492224" lon="7.811327">
        <ele>578.479001</ele>
        <time>2021-11-20T08:15:23.175Z</time>
      </trkpt>
      <trkpt lat="47.492165" lon="7.811273">
        <ele>579.251961</ele>
        <time>2021-11-20T08:15:27.001Z</time>
      </trkpt>
      <trkpt lat="47.491701" lon="7.811206">
        <ele>584.446598</ele>
        <time>2021-11-20T08:15:52.616Z</time>
      </trkpt>
      <trkpt lat="47.491536" lon="7.811112">
        <ele>586.416610</ele>
        <time>2021-11-20T08:16:03.833Z</time>
      </trkpt>
      <trkpt lat="47.491417" lon="7.811033">
        <ele>587.726858</ele>
        <time>2021-11-20T08:16:10.765Z</time>
      </trkpt>
      <trkpt lat="47.491356" lon="7.811021">
        <ele>588.158559</ele>
        <time>2021-11-20T08:16:13.360Z</time>
      </trkpt>
      <trkpt lat="47.491305" lon="7.811022">
        <ele>588.516373</ele>
        <time>2021-11-20T08:16:15.263Z</time>
      </trkpt>
      <trkpt lat="47.491210" lon="7.811067">
        <ele>589.216137</ele>
        <time>2021-11-20T08:16:22.137Z</time>
      </trkpt>
      <trkpt lat="47.491168" lon="7.811103">
        <ele>589.556633</ele>
        <time>2021-11-20T08:16:26.367Z</time>
      </trkpt>
      <trkpt lat="47.491099" lon="7.811167">
        <ele>590.127905</ele>
        <time>2021-11-20T08:16:29.628Z</time>
      </trkpt>
      <trkpt lat="47.490921" lon="7.811332">
        <ele>591.601369</ele>
        <time>2021-11-20T08:16:39.133Z</time>
      </trkpt>
      <trkpt lat="47.490608" lon="7.811558">
        <ele>594.044580</ele>
        <time>2021-11-20T08:16:54.822Z</time>
      </trkpt>
      <trkpt lat="47.490230" lon="7.811766">
        <ele>596.873758</ele>
        <time>2021-11-20T08:17:09.835Z</time>
      </trkpt>
      <trkpt lat="47.489938" lon="7.811863">
        <ele>598.973214</ele>
        <time>2021-11-20T08:17:22.092Z</time>
      </trkpt>
      <trkpt lat="47.489734" lon="7.811930">
        <ele>600.275179</ele>
        <time>2021-11-20T08:17:28.066Z</time>
      </trkpt>
      <trkpt lat="47.488654" lon="7.812154">
        <ele>604.205770</ele>
        <time>2021-11-20T08:17:57.229Z</time>
      </trkpt>
      <trkpt lat="47.488525" lon="7.812197">
        <ele>604.682362</ele>
        <time>2021-11-20T08:18:01.596Z</time>
      </trkpt>
      <trkpt lat="47.486782" lon="7.812718">
        <ele>610.441600</ele>
        <time>2021-11-20T08:18:54.787Z</time>
      </trkpt>
      <trkpt lat="47.486531" lon="7.812839">
        <ele>611.255872</ele>
        <time>2021-11-20T08:19:01.736Z</time>
      </trkpt>
      <trkpt lat="47.485925" lon="7.813196">
        <ele>611.064517</ele>
        <time>2021-11-20T08:19:15.727Z</time>
      </trkpt>
      <trkpt lat="47.485144" lon="7.813866">
        <ele>608.444386</ele>
        <time>2021-11-20T08:19:25.736Z</time>
      </trkpt>
      <trkpt lat="47.484810" lon="7.814067">
        <ele>607.397892</ele>
        <time>2021-11-20T08:19:28.945Z</time>
      </trkpt>
      <trkpt lat="47.484732" lon="7.814081">
        <ele>607.169847</ele>
        <time>2021-11-20T08:19:29.595Z</time>
      </trkpt>
      <trkpt lat="47.484689" lon="7.814083">
        <ele>607.044983</ele>
        <time>2021-11-20T08:19:30.697Z</time>
      </trkpt>
      <trkpt lat="47.484558" lon="7.814061">
        <ele>605.991021</ele>
        <time>2021-11-20T08:19:34.405Z</time>
      </trkpt>
      <trkpt lat="47.484474" lon="7.814023">
        <ele>605.051392</ele>
        <time>2021-11-20T08:19:36.797Z</time>
      </trkpt>
      <trkpt lat="47.484375" lon="7.813958">
        <ele>603.892790</ele>
        <time>2021-11-20T08:19:37.688Z</time>
      </trkpt>
      <trkpt lat="47.483867" lon="7.813452">
        <ele>597.342080</ele>
        <time>2021-11-20T08:19:43.149Z</time>
      </trkpt>
      <trkpt lat="47.483804" lon="7.813389">
        <ele>596.528685</ele>
        <time>2021-11-20T08:19:43.777Z</time>
      </trkpt>
      <trkpt lat="47.483708" lon="7.813293">
        <ele>595.289225</ele>
        <time>2021-11-20T08:19:44.791Z</time>
      </trkpt>
      <trkpt lat="47.483493" lon="7.813178">
        <ele>592.843651</ele>
        <time>2021-11-20T08:19:46.745Z</time>
      </trkpt>
      <trkpt lat="47.483220" lon="7.813099">
        <ele>589.867958</ele>
        <time>2021-11-20T08:19:49.119Z</time>
      </trkpt>
      <trkpt lat="47.482949" lon="7.813114">
        <ele>586.575852</ele>
        <time>2021-11-20T08:19:51.365Z</time>
      </trkpt>
      <trkpt lat="47.482420" lon="7.813239">
        <ele>577.664605</ele>
        <time>2021-11-20T08:19:55.772Z</time>
      </trkpt>
      <trkpt lat="47.482097" lon="7.813263">
        <ele>572.284830</ele>
        <time>2021-11-20T08:19:58.428Z</time>
      </trkpt>
      <trkpt lat="47.481920" lon="7.813196">
        <ele>569.245672</ele>
        <time>2021-11-20T08:19:59.924Z</time>
      </trkpt>
      <trkpt lat="47.481456" lon="7.813058">
        <ele>561.372802</ele>
        <time>2021-11-20T08:20:03.821Z</time>
      </trkpt>
      <trkpt lat="47.480872" lon="7.813093">
        <ele>554.032748</ele>
        <time>2021-11-20T08:20:08.672Z</time>
      </trkpt>
      <trkpt lat="47.480713" lon="7.812994">
        <ele>552.283716</ele>
        <time>2021-11-20T08:20:10.128Z</time>
      </trkpt>
      <trkpt lat="47.479735" lon="7.811893">
        <ele>539.823883</ele>
        <time>2021-11-20T08:20:20.744Z</time>
      </trkpt>
      <trkpt lat="47.479687" lon="7.811839">
        <ele>539.420570</ele>
        <time>2021-11-20T08:20:27.835Z</time>
      </trkpt>
      <trkpt lat="47.479473" lon="7.811584">
        <ele>538.549949</ele>
        <time>2021-11-20T08:20:30.116Z</time>
      </trkpt>
      <trkpt lat="47.478943" lon="7.810849">
        <ele>536.248291</ele>
        <time>2021-11-20T08:20:38.500Z</time>
      </trkpt>
      <trkpt lat="47.478809" lon="7.810763">
        <ele>535.785483</ele>
        <time>2021-11-20T08:20:49.849Z</time>
      </trkpt>
      <trkpt lat="47.478566" lon="7.810790">
        <ele>535.013356</ele>
        <time>2021-11-20T08:20:51.977Z</time>
      </trkpt>
      <trkpt lat="47.478335" lon="7.810955">
        <ele>534.200590</ele>
        <time>2021-11-20T08:20:57.513Z</time>
      </trkpt>
      <trkpt lat="47.478231" lon="7.811139">
        <ele>533.464656</ele>
        <time>2021-11-20T08:20:58.891Z</time>
      </trkpt>
      <trkpt lat="47.478204" lon="7.811401">
        <ele>531.920171</ele>
        <time>2021-11-20T08:21:00.485Z</time>
      </trkpt>
      <trkpt lat="47.478262" lon="7.811831">
        <ele>529.364876</ele>
        <time>2021-11-20T08:21:03.048Z</time>
      </trkpt>
      <trkpt lat="47.478245" lon="7.812069">
        <ele>527.970177</ele>
        <time>2021-11-20T08:21:04.515Z</time>
      </trkpt>
      <trkpt lat="47.478216" lon="7.812137">
        <ele>527.501603</ele>
        <time>2021-11-20T08:21:04.967Z</time>
      </trkpt>
      <trkpt lat="47.478172" lon="7.812240">
        <ele>526.791512</ele>
        <time>2021-11-20T08:21:05.693Z</time>
      </trkpt>
      <trkpt lat="47.477609" lon="7.813223">
        <ele>519.282707</ele>
        <time>2021-11-20T08:21:13.248Z</time>
      </trkpt>
      <trkpt lat="47.477546" lon="7.813318">
        <ele>518.507087</ele>
        <time>2021-11-20T08:21:13.998Z</time>
      </trkpt>
      <trkpt lat="47.477516" lon="7.813359">
        <ele>518.135220</ele>
        <time>2021-11-20T08:21:14.343Z</time>
      </trkpt>
      <trkpt lat="47.477155" lon="7.813696">
        <ele>513.978518</ele>
        <time>2021-11-20T08:21:18.264Z</time>
      </trkpt>
      <trkpt lat="47.476980" lon="7.813791">
        <ele>512.163266</ele>
        <time>2021-11-20T08:21:20.432Z</time>
      </trkpt>
      <trkpt lat="47.476884" lon="7.813858">
        <ele>511.129621</ele>
        <time>2021-11-20T08:21:21.299Z</time>
      </trkpt>
      <trkpt lat="47.476563" lon="7.814189">
        <ele>507.319412</ele>
        <time>2021-11-20T08:21:24.679Z</time>
      </trkpt>
      <trkpt lat="47.476534" lon="7.814226">
        <ele>506.946506</ele>
        <time>2021-11-20T08:21:28.721Z</time>
      </trkpt>
      <trkpt lat="47.476334" lon="7.814450">
        <ele>504.503781</ele>
        <time>2021-11-20T08:21:30.883Z</time>
      </trkpt>
      <trkpt lat="47.476204" lon="7.814552">
        <ele>503.070830</ele>
        <time>2021-11-20T08:21:32.094Z</time>
      </trkpt>
      <trkpt lat="47.476150" lon="7.814569">
        <ele>502.533201</ele>
        <time>2021-11-20T08:21:36.881Z</time>
      </trkpt>
      <trkpt lat="47.476077" lon="7.814575">
        <ele>501.821225</ele>
        <time>2021-11-20T08:21:37.484Z</time>
      </trkpt>
      <trkpt lat="47.475705" lon="7.814474">
        <ele>497.505999</ele>
        <time>2021-11-20T08:21:40.671Z</time>
      </trkpt>
      <trkpt lat="47.475471" lon="7.814482">
        <ele>494.683741</ele>
        <time>2021-11-20T08:21:42.618Z</time>
      </trkpt>
      <trkpt lat="47.475276" lon="7.814567">
        <ele>492.232560</ele>
        <time>2021-11-20T08:21:44.381Z</time>
      </trkpt>
      <trkpt lat="47.475210" lon="7.814595">
        <ele>491.404680</ele>
        <time>2021-11-20T08:21:44.950Z</time>
      </trkpt>
      <trkpt lat="47.474961" lon="7.814741">
        <ele>488.175118</ele>
        <time>2021-11-20T08:21:47.558Z</time>
      </trkpt>
      <trkpt lat="47.474804" lon="7.814845">
        <ele>486.100968</ele>
        <time>2021-11-20T08:21:48.974Z</time>
      </trkpt>
      <trkpt lat="47.474584" lon="7.814993">
        <ele>483.186913</ele>
        <time>2021-11-20T08:21:51.111Z</time>
      </trkpt>
      <trkpt lat="47.474430" lon="7.815154">
        <ele>480.913198</ele>
        <time>2021-11-20T08:21:52.751Z</time>
      </trkpt>
      <trkpt lat="47.474375" lon="7.815394">
        <ele>478.736389</ele>
        <time>2021-11-20T08:21:54.214Z</time>
      </trkpt>
      <trkpt lat="47.474616" lon="7.816226">
        <ele>468.157169</ele>
        <time>2021-11-20T08:21:59.219Z</time>
      </trkpt>
      <trkpt lat="47.474739" lon="7.816928">
        <ele>459.681461</ele>
        <time>2021-11-20T08:22:03.245Z</time>
      </trkpt>
      <trkpt lat="47.474739" lon="7.817281">
        <ele>455.555826</ele>
        <time>2021-11-20T08:22:05.196Z</time>
      </trkpt>
      <trkpt lat="47.474641" lon="7.817509">
        <ele>452.397953</ele>
        <time>2021-11-20T08:22:07.291Z</time>
      </trkpt>
      <trkpt lat="47.474613" lon="7.817546">
        <ele>451.748798</ele>
        <time>2021-11-20T08:22:08.589Z</time>
      </trkpt>
      <trkpt lat="47.474555" lon="7.817587">
        <ele>450.637314</ele>
        <time>2021-11-20T08:22:09.375Z</time>
      </trkpt>
      <trkpt lat="47.474389" lon="7.817613">
        <ele>447.867375</ele>
        <time>2021-11-20T08:22:24.530Z</time>
      </trkpt>
      <trkpt lat="47.474233" lon="7.817507">
        <ele>446.265029</ele>
        <time>2021-11-20T08:22:25.988Z</time>
      </trkpt>
      <trkpt lat="47.474210" lon="7.817475">
        <ele>445.970327</ele>
        <time>2021-11-20T08:22:26.567Z</time>
      </trkpt>
      <trkpt lat="47.474182" lon="7.817417">
        <ele>445.520651</ele>
        <time>2021-11-20T08:22:33.525Z</time>
      </trkpt>
      <trkpt lat="47.474106" lon="7.817184">
        <ele>443.888414</ele>
        <time>2021-11-20T08:22:38.289Z</time>
      </trkpt>
      <trkpt lat="47.473926" lon="7.816632">
        <ele>440.021684</ele>
        <time>2021-11-20T08:22:41.941Z</time>
      </trkpt>
      <trkpt lat="47.473743" lon="7.816298">
        <ele>437.309076</ele>
        <time>2021-11-20T08:22:44.354Z</time>
      </trkpt>
      <trkpt lat="47.473230" lon="7.815705">
        <ele>431.232380</ele>
        <time>2021-11-20T08:22:49.968Z</time>
      </trkpt>
      <trkpt lat="47.472623" lon="7.815140">
        <ele>426.729166</ele>
        <time>2021-11-20T08:22:58.541Z</time>
      </trkpt>
      <trkpt lat="47.472505" lon="7.815033">
        <ele>425.861175</ele>
        <time>2021-11-20T08:22:59.904Z</time>
      </trkpt>
      <trkpt lat="47.472320" lon="7.814860">
        <ele>424.488590</ele>
        <time>2021-11-20T08:23:02.041Z</time>
      </trkpt>
      <trkpt lat="47.471093" lon="7.813407">
        <ele>414.392841</ele>
        <time>2021-11-20T08:23:15.622Z</time>
      </trkpt>
      <trkpt lat="47.470923" lon="7.812993">
        <ele>412.246790</ele>
        <time>2021-11-20T08:23:18.684Z</time>
      </trkpt>
      <trkpt lat="47.470835" lon="7.812891">
        <ele>411.514083</ele>
        <time>2021-11-20T08:23:19.818Z</time>
      </trkpt>
      <trkpt lat="47.470794" lon="7.812878">
        <ele>411.239263</ele>
        <time>2021-11-20T08:23:20.586Z</time>
      </trkpt>
      <trkpt lat="47.470744" lon="7.812887">
        <ele>410.909142</ele>
        <time>2021-11-20T08:23:21.035Z</time>
      </trkpt>
      <trkpt lat="47.470614" lon="7.813052">
        <ele>409.786500</ele>
        <time>2021-11-20T08:23:22.661Z</time>
      </trkpt>
      <trkpt lat="47.470607" lon="7.813259">
        <ele>408.868270</ele>
        <time>2021-11-20T08:23:24.360Z</time>
      </trkpt>
      <trkpt lat="47.470938" lon="7.813871">
        <ele>406.482896</ele>
        <time>2021-11-20T08:23:29.750Z</time>
      </trkpt>
      <trkpt lat="47.470969" lon="7.814299">
        <ele>405.329492</ele>
        <time>2021-11-20T08:23:33.224Z</time>
      </trkpt>
      <trkpt lat="47.470838" lon="7.814669">
        <ele>404.210302</ele>
        <time>2021-11-20T08:23:36.319Z</time>
      </trkpt>
      <trkpt lat="47.470596" lon="7.814760">
        <ele>403.220506</ele>
        <time>2021-11-20T08:23:38.672Z</time>
      </trkpt>
      <trkpt lat="47.470163" lon="7.814758">
        <ele>401.504079</ele>
        <time>2021-11-20T08:23:42.667Z</time>
      </trkpt>
      <trkpt lat="47.469960" lon="7.814754">
        <ele>400.311361</ele>
        <time>2021-11-20T08:23:44.684Z</time>
      </trkpt>
      <trkpt lat="47.469647" lon="7.814557">
        <ele>397.315173</ele>
        <time>2021-11-20T08:23:47.688Z</time>
      </trkpt>
      <trkpt lat="47.469608" lon="7.814504">
        <ele>396.848695</ele>
        <time>2021-11-20T08:23:48.163Z</time>
      </trkpt>
      <trkpt lat="47.469564" lon="7.814419">
        <ele>396.211227</ele>
        <time>2021-11-20T08:23:48.765Z</time>
      </trkpt>
      <trkpt lat="47.469507" lon="7.814180">
        <ele>394.702171</ele>
        <time>2021-11-20T08:23:50.301Z</time>
      </trkpt>
      <trkpt lat="47.469477" lon="7.814056">
        <ele>393.917970</ele>
        <time>2021-11-20T08:23:51.136Z</time>
      </trkpt>
      <trkpt lat="47.469471" lon="7.813955">
        <ele>393.314264</ele>
        <time>2021-11-20T08:23:51.709Z</time>
      </trkpt>
      <trkpt lat="47.469445" lon="7.813683">
        <ele>391.678573</ele>
        <time>2021-11-20T08:23:53.343Z</time>
      </trkpt>
      <trkpt lat="47.469382" lon="7.813432">
        <ele>390.084335</ele>
        <time>2021-11-20T08:23:54.887Z</time>
      </trkpt>
      <trkpt lat="47.469261" lon="7.813214">
        <ele>388.404783</ele>
        <time>2021-11-20T08:23:56.536Z</time>
      </trkpt>
      <trkpt lat="47.468968" lon="7.813033">
        <ele>385.607930</ele>
        <time>2021-11-20T08:23:59.252Z</time>
      </trkpt>
      <trkpt lat="47.468898" lon="7.813028">
        <ele>385.026713</ele>
        <time>2021-11-20T08:23:59.838Z</time>
      </trkpt>
      <trkpt lat="47.468231" lon="7.813117">
        <ele>380.291313</ele>
        <time>2021-11-20T08:24:05.588Z</time>
      </trkpt>
      <trkpt lat="47.468087" lon="7.813122">
        <ele>379.272831</ele>
        <time>2021-11-20T08:24:06.861Z</time>
      </trkpt>
      <trkpt lat="47.467986" lon="7.813069">
        <ele>378.515073</ele>
        <time>2021-11-20T08:24:07.870Z</time>
      </trkpt>
      <trkpt lat="47.467958" lon="7.813047">
        <ele>378.290895</ele>
        <time>2021-11-20T08:24:08.207Z</time>
      </trkpt>
      <trkpt lat="47.467857" lon="7.812969">
        <ele>377.485276</ele>
        <time>2021-11-20T08:24:09.213Z</time>
      </trkpt>
      <trkpt lat="47.467746" lon="7.812871">
        <ele>376.571252</ele>
        <time>2021-11-20T08:24:10.430Z</time>
      </trkpt>
      <trkpt lat="47.467739" lon="7.812865">
        <ele>376.514047</ele>
        <time>2021-11-20T08:24:10.497Z</time>
      </trkpt>
      <trkpt lat="47.467426" lon="7.812608">
        <ele>373.982799</ele>
        <time>2021-11-20T08:24:13.865Z</time>
      </trkpt>
      <trkpt lat="47.467146" lon="7.812375">
        <ele>372.408252</ele>
        <time>2021-11-20T08:24:17.180Z</time>
      </trkpt>
      <trkpt lat="47.467077" lon="7.812317">
        <ele>372.372523</ele>
        <time>2021-11-20T08:24:17.973Z</time>
      </trkpt>
      <trkpt lat="47.467013" lon="7.812269">
        <ele>372.340219</ele>
        <time>2021-11-20T08:24:18.821Z</time>
      </trkpt>
      <trkpt lat="47.466796" lon="7.812117">
        <ele>372.232126</ele>
        <time>2021-11-20T08:24:21.406Z</time>
      </trkpt>
      <trkpt lat="47.466676" lon="7.812018">
        <ele>372.170268</ele>
        <time>2021-11-20T08:24:23.020Z</time>
      </trkpt>
      <trkpt lat="47.466578" lon="7.811937">
        <ele>372.119729</ele>
        <time>2021-11-20T08:24:24.426Z</time>
      </trkpt>
      <trkpt lat="47.466490" lon="7.811850">
        <ele>372.072077</ele>
        <time>2021-11-20T08:24:25.750Z</time>
      </trkpt>
      <trkpt lat="47.466315" lon="7.811646">
        <ele>371.971769</ele>
        <time>2021-11-20T08:24:29.544Z</time>
      </trkpt>
      <trkpt lat="47.466262" lon="7.811579">
        <ele>371.940382</ele>
        <time>2021-11-20T08:24:30.608Z</time>
      </trkpt>
      <trkpt lat="47.466196" lon="7.811499">
        <ele>371.901967</ele>
        <time>2021-11-20T08:24:32.225Z</time>
      </trkpt>
      <trkpt lat="47.466094" lon="7.811396">
        <ele>371.846367</ele>
        <time>2021-11-20T08:24:34.690Z</time>
      </trkpt>
      <trkpt lat="47.466010" lon="7.811328">
        <ele>371.803258</ele>
        <time>2021-11-20T08:24:36.593Z</time>
      </trkpt>
      <trkpt lat="47.465897" lon="7.811237">
        <ele>371.745335</ele>
        <time>2021-11-20T08:24:38.866Z</time>
      </trkpt>
      <trkpt lat="47.465656" lon="7.811068">
        <ele>371.726078</ele>
        <time>2021-11-20T08:24:45.259Z</time>
      </trkpt>
      <trkpt lat="47.465536" lon="7.811007">
        <ele>371.947988</ele>
        <time>2021-11-20T08:24:48.198Z</time>
      </trkpt>
      <trkpt lat="47.465394" lon="7.810939">
        <ele>372.209016</ele>
        <time>2021-11-20T08:24:52.057Z</time>
      </trkpt>
      <trkpt lat="47.465245" lon="7.810868">
        <ele>372.482783</ele>
        <time>2021-11-20T08:24:55.395Z</time>
      </trkpt>
      <trkpt lat="47.465212" lon="7.810852">
        <ele>372.543517</ele>
        <time>2021-11-20T08:24:56.279Z</time>
      </trkpt>
      <trkpt lat="47.465087" lon="7.810791">
        <ele>372.773714</ele>
        <time>2021-11-20T08:24:59.435Z</time>
      </trkpt>
      <trkpt lat="47.464636" lon="7.810572">
        <ele>373.603863</ele>
        <time>2021-11-20T08:25:09.719Z</time>
      </trkpt>
      <trkpt lat="47.464496" lon="7.810462">
        <ele>373.881102</ele>
        <time>2021-11-20T08:25:12.940Z</time>
      </trkpt>
      <trkpt lat="47.464452" lon="7.810429">
        <ele>373.967378</ele>
        <time>2021-11-20T08:25:14.137Z</time>
      </trkpt>
      <trkpt lat="47.464417" lon="7.810573">
        <ele>374.148300</ele>
        <time>2021-11-20T08:25:16.427Z</time>
      </trkpt>
      <trkpt lat="47.464385" lon="7.810619">
        <ele>374.226338</ele>
        <time>2021-11-20T08:25:17.164Z</time>
      </trkpt>
      <trkpt lat="47.464364" lon="7.810630">
        <ele>374.265299</ele>
        <time>2021-11-20T08:25:17.648Z</time>
      </trkpt>
      <trkpt lat="47.464340" lon="7.810632">
        <ele>374.307338</ele>
        <time>2021-11-20T08:25:18.188Z</time>
      </trkpt>
      <trkpt lat="47.464200" lon="7.810621">
        <ele>374.552524</ele>
        <time>2021-11-20T08:25:20.955Z</time>
      </trkpt>
      <trkpt lat="47.463897" lon="7.810575">
        <ele>375.019361</ele>
        <time>2021-11-20T08:25:27.600Z</time>
      </trkpt>
      <trkpt lat="47.463886" lon="7.810514">
        <ele>375.077270</ele>
        <time>2021-11-20T08:25:28.633Z</time>
      </trkpt>
      <trkpt lat="47.463831" lon="7.810395">
        <ele>375.209493</ele>
        <time>2021-11-20T08:25:31.203Z</time>
      </trkpt>
      <trkpt lat="47.463753" lon="7.810251">
        <ele>375.378746</ele>
        <time>2021-11-20T08:25:34.498Z</time>
      </trkpt>
      <trkpt lat="47.463689" lon="7.810134">
        <ele>375.516795</ele>
        <time>2021-11-20T08:25:37.192Z</time>
      </trkpt>
      <trkpt lat="47.463652" lon="7.810060">
        <ele>375.601219</ele>
        <time>2021-11-20T08:25:38.665Z</time>
      </trkpt>
      <trkpt lat="47.463616" lon="7.809990">
        <ele>375.681894</ele>
        <time>2021-11-20T08:25:40.180Z</time>
      </trkpt>
      <trkpt lat="47.463603" lon="7.809961">
        <ele>375.713811</ele>
        <time>2021-11-20T08:25:40.799Z</time>
      </trkpt>
      <trkpt lat="47.463403" lon="7.809601">
        <ele>376.141218</ele>
        <time>2021-11-20T08:25:48.852Z</time>
      </trkpt>
      <trkpt lat="47.463347" lon="7.809533">
        <ele>376.239521</ele>
        <time>2021-11-20T08:25:50.981Z</time>
      </trkpt>
      <trkpt lat="47.463122" lon="7.809317">
        <ele>376.603456</ele>
        <time>2021-11-20T08:25:57.501Z</time>
      </trkpt>
      <trkpt lat="47.463007" lon="7.809215">
        <ele>376.785387</ele>
        <time>2021-11-20T08:26:01.030Z</time>
      </trkpt>
      <trkpt lat="47.462918" lon="7.809150">
        <ele>376.920058</ele>
        <time>2021-11-20T08:26:02.732Z</time>
      </trkpt>
      <trkpt lat="47.462879" lon="7.809121">
        <ele>376.979283</ele>
        <time>2021-11-20T08:26:03.778Z</time>
      </trkpt>
      <trkpt lat="47.462185" lon="7.808547">
        <ele>378.106653</ele>
        <time>2021-11-20T08:26:19.301Z</time>
      </trkpt>
      <trkpt lat="47.462087" lon="7.808494">
        <ele>378.256547</ele>
        <time>2021-11-20T08:26:21.700Z</time>
      </trkpt>
      <trkpt lat="47.462052" lon="7.808470">
        <ele>378.311965</ele>
        <time>2021-11-20T08:26:22.407Z</time>
      </trkpt>
      <trkpt lat="47.461997" lon="7.808450">
        <ele>378.393325</ele>
        <time>2021-11-20T08:26:23.466Z</time>
      </trkpt>
      <trkpt lat="47.461822" lon="7.808433">
        <ele>378.645256</ele>
        <time>2021-11-20T08:26:27.304Z</time>
      </trkpt>
      <trkpt lat="47.461296" lon="7.808372">
        <ele>379.403180</ele>
        <time>2021-11-20T08:26:38.564Z</time>
      </trkpt>
      <trkpt lat="47.460938" lon="7.808308">
        <ele>379.919341</ele>
        <time>2021-11-20T08:26:45.898Z</time>
      </trkpt>
      <trkpt lat="47.460870" lon="7.808289">
        <ele>380.017006</ele>
        <time>2021-11-20T08:26:47.232Z</time>
      </trkpt>
      <trkpt lat="47.460827" lon="7.808276">
        <ele>380.078947</ele>
        <time>2021-11-20T08:26:48.230Z</time>
      </trkpt>
      <trkpt lat="47.460439" lon="7.808155">
        <ele>380.638569</ele>
        <time>2021-11-20T08:26:56.493Z</time>
      </trkpt>
      <trkpt lat="47.460298" lon="7.808103">
        <ele>380.843655</ele>
        <time>2021-11-20T08:26:59.487Z</time>
      </trkpt>
      <trkpt lat="47.460078" lon="7.808023">
        <ele>381.163386</ele>
        <time>2021-11-20T08:27:04.166Z</time>
      </trkpt>
      <trkpt lat="47.459865" lon="7.807952">
        <ele>381.471532</ele>
        <time>2021-11-20T08:27:08.594Z</time>
      </trkpt>
      <trkpt lat="47.459423" lon="7.807775">
        <ele>382.117785</ele>
        <time>2021-11-20T08:27:18.192Z</time>
      </trkpt>
      <trkpt lat="47.459282" lon="7.807707">
        <ele>382.327089</ele>
        <time>2021-11-20T08:27:21.065Z</time>
      </trkpt>
      <trkpt lat="47.459007" lon="7.807577">
        <ele>382.811224</ele>
        <time>2021-11-20T08:27:26.466Z</time>
      </trkpt>
      <trkpt lat="47.458678" lon="7.807409">
        <ele>383.401434</ele>
        <time>2021-11-20T08:27:33.432Z</time>
      </trkpt>
      <trkpt lat="47.458342" lon="7.807254">
        <ele>383.998271</ele>
        <time>2021-11-20T08:27:40.943Z</time>
      </trkpt>
      <trkpt lat="47.458237" lon="7.807215">
        <ele>384.181852</ele>
        <time>2021-11-20T08:27:43.359Z</time>
      </trkpt>
      <trkpt lat="47.458181" lon="7.807191">
        <ele>384.280719</ele>
        <time>2021-11-20T08:27:44.709Z</time>
      </trkpt>
      <trkpt lat="47.457732" lon="7.807037">
        <ele>385.062308</ele>
        <time>2021-11-20T08:27:55.210Z</time>
      </trkpt>
      <trkpt lat="47.457326" lon="7.806926">
        <ele>385.853489</ele>
        <time>2021-11-20T08:28:05.134Z</time>
      </trkpt>
      <trkpt lat="47.457291" lon="7.806917">
        <ele>385.929035</ele>
        <time>2021-11-20T08:28:05.858Z</time>
      </trkpt>
      <trkpt lat="47.456988" lon="7.806840">
        <ele>386.582821</ele>
        <time>2021-11-20T08:28:13.294Z</time>
      </trkpt>
      <trkpt lat="47.456502" lon="7.806745">
        <ele>387.625310</ele>
        <time>2021-11-20T08:28:24.606Z</time>
      </trkpt>
      <trkpt lat="47.456331" lon="7.806727">
        <ele>387.989869</ele>
        <time>2021-11-20T08:28:28.755Z</time>
      </trkpt>
      <trkpt lat="47.456100" lon="7.806718">
        <ele>388.481271</ele>
        <time>2021-11-20T08:28:34.124Z</time>
      </trkpt>
      <trkpt lat="47.455379" lon="7.806783">
        <ele>389.837019</ele>
        <time>2021-11-20T08:28:50.818Z</time>
      </trkpt>
      <trkpt lat="47.454559" lon="7.807067">
        <ele>391.218311</ele>
        <time>2021-11-20T08:29:09.586Z</time>
      </trkpt>
      <trkpt lat="47.454428" lon="7.807128">
        <ele>391.443566</ele>
        <time>2021-11-20T08:29:11.921Z</time>
      </trkpt>
      <trkpt lat="47.454310" lon="7.807191">
        <ele>391.649327</ele>
        <time>2021-11-20T08:29:14.426Z</time>
      </trkpt>
      <trkpt lat="47.453985" lon="7.807368">
        <ele>392.215507</ele>
        <time>2021-11-20T08:29:20.896Z</time>
      </trkpt>
      <trkpt lat="47.453901" lon="7.807402">
        <ele>392.351441</ele>
        <time>2021-11-20T08:29:22.776Z</time>
      </trkpt>
      <trkpt lat="47.453815" lon="7.807438">
        <ele>392.490949</ele>
        <time>2021-11-20T08:29:24.471Z</time>
      </trkpt>
      <trkpt lat="47.453677" lon="7.807487">
        <ele>392.712469</ele>
        <time>2021-11-20T08:29:27.078Z</time>
      </trkpt>
      <trkpt lat="47.453371" lon="7.807571">
        <ele>393.198250</ele>
        <time>2021-11-20T08:29:33.132Z</time>
      </trkpt>
      <trkpt lat="47.453183" lon="7.807608">
        <ele>393.494279</ele>
        <time>2021-11-20T08:29:37.356Z</time>
      </trkpt>
      <trkpt lat="47.452830" lon="7.807686">
        <ele>394.051379</ele>
        <time>2021-11-20T08:29:45.629Z</time>
      </trkpt>
      <trkpt lat="47.452649" lon="7.807724">
        <ele>394.336727</ele>
        <time>2021-11-20T08:29:49.540Z</time>
      </trkpt>
      <trkpt lat="47.452556" lon="7.807739">
        <ele>394.482748</ele>
        <time>2021-11-20T08:29:51.543Z</time>
      </trkpt>
      <trkpt lat="47.452456" lon="7.807753">
        <ele>394.639532</ele>
        <time>2021-11-20T08:29:54.064Z</time>
      </trkpt>
      <trkpt lat="47.452253" lon="7.807773">
        <ele>394.957089</ele>
        <time>2021-11-20T08:29:58.402Z</time>
      </trkpt>
      <trkpt lat="47.451923" lon="7.807754">
        <ele>395.478040</ele>
        <time>2021-11-20T08:30:05.288Z</time>
      </trkpt>
      <trkpt lat="47.451791" lon="7.807759">
        <ele>395.686463</ele>
        <time>2021-11-20T08:30:08.044Z</time>
      </trkpt>
      <trkpt lat="47.451415" lon="7.807774">
        <ele>396.280174</ele>
        <time>2021-11-20T08:30:15.864Z</time>
      </trkpt>
      <trkpt lat="47.450005" lon="7.807761">
        <ele>398.715164</ele>
        <time>2021-11-20T08:30:45.444Z</time>
      </trkpt>
      <trkpt lat="47.449896" lon="7.807771">
        <ele>398.940584</ele>
        <time>2021-11-20T08:30:47.668Z</time>
      </trkpt>
      <trkpt lat="47.449829" lon="7.807782">
        <ele>399.079728</ele>
        <time>2021-11-20T08:30:49.176Z</time>
      </trkpt>
      <trkpt lat="47.449353" lon="7.807942">
        <ele>400.087302</ele>
        <time>2021-11-20T08:30:59.550Z</time>
      </trkpt>
      <trkpt lat="47.449267" lon="7.807971">
        <ele>400.269372</ele>
        <time>2021-11-20T08:31:01.761Z</time>
      </trkpt>
      <trkpt lat="47.449267" lon="7.807971">
        <ele>400.269372</ele>
        <time>2021-11-20T08:31:01.804Z</time>
      </trkpt>
      <trkpt lat="47.449253" lon="7.807755">
        <ele>400.572253</ele>
        <time>2021-11-20T08:31:05.921Z</time>
      </trkpt>
      <trkpt lat="47.449247" lon="7.807403">
        <ele>401.063743</ele>
        <time>2021-11-20T08:31:13.332Z</time>
      </trkpt>
      <trkpt lat="47.449300" lon="7.806913">
        <ele>401.984143</ele>
        <time>2021-11-20T08:31:23.929Z</time>
      </trkpt>
      <trkpt lat="47.449425" lon="7.806478">
        <ele>403.331933</ele>
        <time>2021-11-20T08:31:34.324Z</time>
      </trkpt>
      <trkpt lat="47.449513" lon="7.806105">
        <ele>404.458449</ele>
        <time>2021-11-20T08:31:43.765Z</time>
      </trkpt>
      <trkpt lat="47.449544" lon="7.805931">
        <ele>404.971556</ele>
        <time>2021-11-20T08:31:48.746Z</time>
      </trkpt>
      <trkpt lat="47.449551" lon="7.805863">
        <ele>405.167697</ele>
        <time>2021-11-20T08:31:50.663Z</time>
      </trkpt>
      <trkpt lat="47.449654" lon="7.805006">
        <ele>407.649800</ele>
        <time>2021-11-20T08:32:13.380Z</time>
      </trkpt>
      <trkpt lat="47.449694" lon="7.804883">
        <ele>408.038994</ele>
        <time>2021-11-20T08:32:17.624Z</time>
      </trkpt>
      <trkpt lat="47.449912" lon="7.804695">
        <ele>409.103162</ele>
        <time>2021-11-20T08:32:27.008Z</time>
      </trkpt>
      <trkpt lat="47.449977" lon="7.804586">
        <ele>409.626224</ele>
        <time>2021-11-20T08:32:31.596Z</time>
      </trkpt>
      <trkpt lat="47.449992" lon="7.804348">
        <ele>410.495335</ele>
        <time>2021-11-20T08:32:38.123Z</time>
      </trkpt>
      <trkpt lat="47.449997" lon="7.803583">
        <ele>413.276981</ele>
        <time>2021-11-20T08:32:59.057Z</time>
      </trkpt>
      <trkpt lat="47.449998" lon="7.803407">
        <ele>413.916934</ele>
        <time>2021-11-20T08:33:03.759Z</time>
      </trkpt>
      <trkpt lat="47.449996" lon="7.803209">
        <ele>414.636936</ele>
        <time>2021-11-20T08:33:09.082Z</time>
      </trkpt>
      <trkpt lat="47.449993" lon="7.803123">
        <ele>414.950045</ele>
        <time>2021-11-20T08:33:11.526Z</time>
      </trkpt>
      <trkpt lat="47.449989" lon="7.803041">
        <ele>415.248969</ele>
        <time>2021-11-20T08:33:14.080Z</time>
      </trkpt>
      <trkpt lat="47.449988" lon="7.802434">
        <ele>417.456009</ele>
        <time>2021-11-20T08:33:32.135Z</time>
      </trkpt>
      <trkpt lat="47.449979" lon="7.802272">
        <ele>418.047020</ele>
        <time>2021-11-20T08:33:36.886Z</time>
      </trkpt>
      <trkpt lat="47.449979" lon="7.802272">
        <ele>418.047020</ele>
        <time>2021-11-20T08:33:37.003Z</time>
      </trkpt>
      <trkpt lat="47.449979" lon="7.802272">
        <ele>418.047020</ele>
        <time>2021-11-20T08:33:37.014Z</time>
      </trkpt>
      <trkpt lat="47.449943" lon="7.802235">
        <ele>418.282744</ele>
        <time>2021-11-20T08:33:39.311Z</time>
      </trkpt>
      <trkpt lat="47.449690" lon="7.802095">
        <ele>419.887195</ele>
        <time>2021-11-20T08:33:50.847Z</time>
      </trkpt>
      <trkpt lat="47.449611" lon="7.801975">
        <ele>420.594421</ele>
        <time>2021-11-20T08:33:55.550Z</time>
      </trkpt>
      <trkpt lat="47.449390" lon="7.801489">
        <ele>423.067614</ele>
        <time>2021-11-20T08:34:13.246Z</time>
      </trkpt>
      <trkpt lat="47.449143" lon="7.800947">
        <ele>425.827659</ele>
        <time>2021-11-20T08:34:32.364Z</time>
      </trkpt>
      <trkpt lat="47.449078" lon="7.800818">
        <ele>426.507013</ele>
        <time>2021-11-20T08:34:37.324Z</time>
      </trkpt>
      <trkpt lat="47.448983" lon="7.800594">
        <ele>427.623589</ele>
        <time>2021-11-20T08:34:45.371Z</time>
      </trkpt>
      <trkpt lat="47.448848" lon="7.800119">
        <ele>429.799447</ele>
        <time>2021-11-20T08:35:01.821Z</time>
      </trkpt>
      <trkpt lat="47.448810" lon="7.799932">
        <ele>430.831523</ele>
        <time>2021-11-20T08:35:08.489Z</time>
      </trkpt>
      <trkpt lat="47.448750" lon="7.799670">
        <ele>432.404637</ele>
        <time>2021-11-20T08:35:17.758Z</time>
      </trkpt>
      <trkpt lat="47.448620" lon="7.799147">
        <ele>435.573505</ele>
        <time>2021-11-20T08:35:36.490Z</time>
      </trkpt>
      <trkpt lat="47.448309" lon="7.798761">
        <ele>438.988061</ele>
        <time>2021-11-20T08:35:58.985Z</time>
      </trkpt>
      <trkpt lat="47.448084" lon="7.798490">
        <ele>441.428468</ele>
        <time>2021-11-20T08:36:14.555Z</time>
      </trkpt>
      <trkpt lat="47.447931" lon="7.798365">
        <ele>442.898464</ele>
        <time>2021-11-20T08:36:24.876Z</time>
      </trkpt>
      <trkpt lat="47.447820" lon="7.798327">
        <ele>443.856624</ele>
        <time>2021-11-20T08:36:30.696Z</time>
      </trkpt>
      <trkpt lat="47.447544" lon="7.798379">
        <ele>446.503359</ele>
        <time>2021-11-20T08:36:46.388Z</time>
      </trkpt>
      <trkpt lat="47.447380" lon="7.798347">
        <ele>448.303062</ele>
        <time>2021-11-20T08:36:57.530Z</time>
      </trkpt>
      <trkpt lat="47.447276" lon="7.798226">
        <ele>449.742772</ele>
        <time>2021-11-20T08:37:07.366Z</time>
      </trkpt>
      <trkpt lat="47.447148" lon="7.797938">
        <ele>452.278361</ele>
        <time>2021-11-20T08:37:21.779Z</time>
      </trkpt>
      <trkpt lat="47.446763" lon="7.796590">
        <ele>463.044479</ele>
        <time>2021-11-20T08:38:24.272Z</time>
      </trkpt>
      <trkpt lat="47.446732" lon="7.796525">
        <ele>463.629680</ele>
        <time>2021-11-20T08:38:30.120Z</time>
      </trkpt>
      <trkpt lat="47.446624" lon="7.796412">
        <ele>465.067204</ele>
        <time>2021-11-20T08:38:40.319Z</time>
      </trkpt>
      <trkpt lat="47.445967" lon="7.796221">
        <ele>472.313121</ele>
        <time>2021-11-20T08:39:22.488Z</time>
      </trkpt>
      <trkpt lat="47.445779" lon="7.796039">
        <ele>474.744827</ele>
        <time>2021-11-20T08:39:35.563Z</time>
      </trkpt>
      <trkpt lat="47.445682" lon="7.795835">
        <ele>476.569892</ele>
        <time>2021-11-20T08:39:48.757Z</time>
      </trkpt>
      <trkpt lat="47.445475" lon="7.795391">
        <ele>480.516639</ele>
        <time>2021-11-20T08:40:12.439Z</time>
      </trkpt>
      <trkpt lat="47.445416" lon="7.795242">
        <ele>481.780274</ele>
        <time>2021-11-20T08:40:18.715Z</time>
      </trkpt>
      <trkpt lat="47.445320" lon="7.795072">
        <ele>483.401138</ele>
        <time>2021-11-20T08:40:26.345Z</time>
      </trkpt>
      <trkpt lat="47.445231" lon="7.794743">
        <ele>486.147051</ele>
        <time>2021-11-20T08:40:39.243Z</time>
      </trkpt>
      <trkpt lat="47.445321" lon="7.794537">
        <ele>488.093212</ele>
        <time>2021-11-20T08:40:48.569Z</time>
      </trkpt>
      <trkpt lat="47.445387" lon="7.794487">
        <ele>488.963373</ele>
        <time>2021-11-20T08:40:53.647Z</time>
      </trkpt>
      <trkpt lat="47.445548" lon="7.794462">
        <ele>490.862911</ele>
        <time>2021-11-20T08:41:04.366Z</time>
      </trkpt>
      <trkpt lat="47.446028" lon="7.794297">
        <ele>496.645351</ele>
        <time>2021-11-20T08:41:38.052Z</time>
      </trkpt>
      <trkpt lat="47.446451" lon="7.793993">
        <ele>502.163955</ele>
        <time>2021-11-20T08:42:11.809Z</time>
      </trkpt>
      <trkpt lat="47.446661" lon="7.793793">
        <ele>505.094931</ele>
        <time>2021-11-20T08:42:29.394Z</time>
      </trkpt>
      <trkpt lat="47.446993" lon="7.793502">
        <ele>510.585531</ele>
        <time>2021-11-20T08:42:58.826Z</time>
      </trkpt>
      <trkpt lat="47.447282" lon="7.793359">
        <ele>514.955062</ele>
        <time>2021-11-20T08:43:21.338Z</time>
      </trkpt>
      <trkpt lat="47.447855" lon="7.793340">
        <ele>523.172821</ele>
        <time>2021-11-20T08:44:06.046Z</time>
      </trkpt>
      <trkpt lat="47.448363" lon="7.792534">
        <ele>533.772010</ele>
        <time>2021-11-20T08:45:07.605Z</time>
      </trkpt>
      <trkpt lat="47.448536" lon="7.792353">
        <ele>536.718759</ele>
        <time>2021-11-20T08:45:26.486Z</time>
      </trkpt>
      <trkpt lat="47.448715" lon="7.792165">
        <ele>539.771633</ele>
        <time>2021-11-20T08:45:41.557Z</time>
      </trkpt>
      <trkpt lat="47.449194" lon="7.791897">
        <ele>546.892847</ele>
        <time>2021-11-20T08:46:23.180Z</time>
      </trkpt>
      <trkpt lat="47.449435" lon="7.791839">
        <ele>550.288001</ele>
        <time>2021-11-20T08:46:38.072Z</time>
      </trkpt>
      <trkpt lat="47.449469" lon="7.791832">
        <ele>550.765325</ele>
        <time>2021-11-20T08:46:40.887Z</time>
      </trkpt>
      <trkpt lat="47.449471" lon="7.791720">
        <ele>551.818829</ele>
        <time>2021-11-20T08:46:49.326Z</time>
      </trkpt>
      <trkpt lat="47.449436" lon="7.791522">
        <ele>553.743181</ele>
        <time>2021-11-20T08:46:56.623Z</time>
      </trkpt>
      <trkpt lat="47.449369" lon="7.791466">
        <ele>554.813320</ele>
        <time>2021-11-20T08:47:00.832Z</time>
      </trkpt>
      <trkpt lat="47.449086" lon="7.791362">
        <ele>558.393912</ele>
        <time>2021-11-20T08:47:20.753Z</time>
      </trkpt>
      <trkpt lat="47.448392" lon="7.791109">
        <ele>566.637709</ele>
        <time>2021-11-20T08:48:11.628Z</time>
      </trkpt>
      <trkpt lat="47.448192" lon="7.791016">
        <ele>569.055740</ele>
        <time>2021-11-20T08:48:26.548Z</time>
      </trkpt>
      <trkpt lat="47.448130" lon="7.790974">
        <ele>569.842271</ele>
        <time>2021-11-20T08:48:29.911Z</time>
      </trkpt>
      <trkpt lat="47.447992" lon="7.790893">
        <ele>571.554674</ele>
        <time>2021-11-20T08:48:40.108Z</time>
      </trkpt>
      <trkpt lat="47.447687" lon="7.790708">
        <ele>575.356786</ele>
        <time>2021-11-20T08:48:59.210Z</time>
      </trkpt>
      <trkpt lat="47.447587" lon="7.790639">
        <ele>576.629505</ele>
        <time>2021-11-20T08:49:04.628Z</time>
      </trkpt>
      <trkpt lat="47.447500" lon="7.790589">
        <ele>577.594386</ele>
        <time>2021-11-20T08:49:08.982Z</time>
      </trkpt>
      <trkpt lat="47.447453" lon="7.790554">
        <ele>578.123766</ele>
        <time>2021-11-20T08:49:12.847Z</time>
      </trkpt>
      <trkpt lat="47.447429" lon="7.790481">
        <ele>578.675967</ele>
        <time>2021-11-20T08:49:18.971Z</time>
      </trkpt>
      <trkpt lat="47.447394" lon="7.789555">
        <ele>584.985445</ele>
        <time>2021-11-20T08:49:55.954Z</time>
      </trkpt>
      <trkpt lat="47.447440" lon="7.788465">
        <ele>592.415220</ele>
        <time>2021-11-20T08:50:41.032Z</time>
      </trkpt>
      <trkpt lat="47.447439" lon="7.788419">
        <ele>592.728323</ele>
        <time>2021-11-20T08:50:44.700Z</time>
      </trkpt>
      <trkpt lat="47.447433" lon="7.788039">
        <ele>595.100864</ele>
        <time>2021-11-20T08:50:57.653Z</time>
      </trkpt>
      <trkpt lat="47.447433" lon="7.787953">
        <ele>595.364275</ele>
        <time>2021-11-20T08:51:00.468Z</time>
      </trkpt>
      <trkpt lat="47.447432" lon="7.787892">
        <ele>595.551169</ele>
        <time>2021-11-20T08:51:05.037Z</time>
      </trkpt>
      <trkpt lat="47.447324" lon="7.787333">
        <ele>597.331850</ele>
        <time>2021-11-20T08:51:24.399Z</time>
      </trkpt>
      <trkpt lat="47.446444" lon="7.785618">
        <ele>602.612171</ele>
        <time>2021-11-20T08:52:10.967Z</time>
      </trkpt>
      <trkpt lat="47.446319" lon="7.785292">
        <ele>601.992832</ele>
        <time>2021-11-20T08:52:14.912Z</time>
      </trkpt>
      <trkpt lat="47.446226" lon="7.784823">
        <ele>601.185100</ele>
        <time>2021-11-20T08:52:19.742Z</time>
      </trkpt>
      <trkpt lat="47.446193" lon="7.784607">
        <ele>600.819129</ele>
        <time>2021-11-20T08:52:21.911Z</time>
      </trkpt>
      <trkpt lat="47.446178" lon="7.784507">
        <ele>600.649846</ele>
        <time>2021-11-20T08:52:22.779Z</time>
      </trkpt>
      <trkpt lat="47.446135" lon="7.783937">
        <ele>599.701983</ele>
        <time>2021-11-20T08:52:28.313Z</time>
      </trkpt>
      <trkpt lat="47.446352" lon="7.783367">
        <ele>598.599021</ele>
        <time>2021-11-20T08:52:34.604Z</time>
      </trkpt>
      <trkpt lat="47.446520" lon="7.783084">
        <ele>597.733456</ele>
        <time>2021-11-20T08:52:38.022Z</time>
      </trkpt>
      <trkpt lat="47.446721" lon="7.782801">
        <ele>596.790124</ele>
        <time>2021-11-20T08:52:42.043Z</time>
      </trkpt>
      <trkpt lat="47.446972" lon="7.782443">
        <ele>595.604817</ele>
        <time>2021-11-20T08:52:46.875Z</time>
      </trkpt>
      <trkpt lat="47.447383" lon="7.781620">
        <ele>593.253221</ele>
        <time>2021-11-20T08:52:57.176Z</time>
      </trkpt>
      <trkpt lat="47.447601" lon="7.781253">
        <ele>591.938993</ele>
        <time>2021-11-20T08:53:02.304Z</time>
      </trkpt>
      <trkpt lat="47.447746" lon="7.780962">
        <ele>590.741035</ele>
        <time>2021-11-20T08:53:06.137Z</time>
      </trkpt>
      <trkpt lat="47.448013" lon="7.780607">
        <ele>588.981367</ele>
        <time>2021-11-20T08:53:11.225Z</time>
      </trkpt>
      <trkpt lat="47.448130" lon="7.780390">
        <ele>588.061588</ele>
        <time>2021-11-20T08:53:13.945Z</time>
      </trkpt>
      <trkpt lat="47.448159" lon="7.780313">
        <ele>587.769489</ele>
        <time>2021-11-20T08:53:14.770Z</time>
      </trkpt>
      <trkpt lat="47.448201" lon="7.780045">
        <ele>586.857751</ele>
        <time>2021-11-20T08:53:17.200Z</time>
      </trkpt>
      <trkpt lat="47.448218" lon="7.779733">
        <ele>585.820377</ele>
        <time>2021-11-20T08:53:20.062Z</time>
      </trkpt>
      <trkpt lat="47.448238" lon="7.779393">
        <ele>584.689303</ele>
        <time>2021-11-20T08:53:23.124Z</time>
      </trkpt>
      <trkpt lat="47.448253" lon="7.779053">
        <ele>583.308330</ele>
        <time>2021-11-20T08:53:26.046Z</time>
      </trkpt>
      <trkpt lat="47.448285" lon="7.778741">
        <ele>580.868655</ele>
        <time>2021-11-20T08:53:28.741Z</time>
      </trkpt>
      <trkpt lat="47.448303" lon="7.778528">
        <ele>579.209132</ele>
        <time>2021-11-20T08:53:30.442Z</time>
      </trkpt>
      <trkpt lat="47.448416" lon="7.777341">
        <ele>569.941898</ele>
        <time>2021-11-20T08:53:40.200Z</time>
      </trkpt>
      <trkpt lat="47.448549" lon="7.776848">
        <ele>565.838412</ele>
        <time>2021-11-20T08:53:44.455Z</time>
      </trkpt>
      <trkpt lat="47.448634" lon="7.776646">
        <ele>563.999101</ele>
        <time>2021-11-20T08:53:46.354Z</time>
      </trkpt>
      <trkpt lat="47.448702" lon="7.776544">
        <ele>562.820119</ele>
        <time>2021-11-20T08:53:47.474Z</time>
      </trkpt>
      <trkpt lat="47.449249" lon="7.775915">
        <ele>552.973201</ele>
        <time>2021-11-20T08:53:55.580Z</time>
      </trkpt>
      <trkpt lat="47.449533" lon="7.775401">
        <ele>546.594599</ele>
        <time>2021-11-20T08:54:00.806Z</time>
      </trkpt>
      <trkpt lat="47.449767" lon="7.774684">
        <ele>538.943891</ele>
        <time>2021-11-20T08:54:07.137Z</time>
      </trkpt>
      <trkpt lat="47.449786" lon="7.774620">
        <ele>538.272205</ele>
        <time>2021-11-20T08:54:07.680Z</time>
      </trkpt>
      <trkpt lat="47.449800" lon="7.774515">
        <ele>537.387014</ele>
        <time>2021-11-20T08:54:08.565Z</time>
      </trkpt>
      <trkpt lat="47.449836" lon="7.774059">
        <ele>534.626250</ele>
        <time>2021-11-20T08:54:12.291Z</time>
      </trkpt>
      <trkpt lat="47.449949" lon="7.773945">
        <ele>533.409821</ele>
        <time>2021-11-20T08:54:13.979Z</time>
      </trkpt>
      <trkpt lat="47.449993" lon="7.773867">
        <ele>532.799001</ele>
        <time>2021-11-20T08:54:14.821Z</time>
      </trkpt>
      <trkpt lat="47.450173" lon="7.773366">
        <ele>529.387452</ele>
        <time>2021-11-20T08:54:19.509Z</time>
      </trkpt>
      <trkpt lat="47.450487" lon="7.772269">
        <ele>522.224122</ele>
        <time>2021-11-20T08:54:29.605Z</time>
      </trkpt>
      <trkpt lat="47.450696" lon="7.771509">
        <ele>520.780576</ele>
        <time>2021-11-20T08:54:38.075Z</time>
      </trkpt>
      <trkpt lat="47.451004" lon="7.770428">
        <ele>519.397182</ele>
        <time>2021-11-20T08:54:53.233Z</time>
      </trkpt>
      <trkpt lat="47.451135" lon="7.769901">
        <ele>518.735019</ele>
        <time>2021-11-20T08:55:00.102Z</time>
      </trkpt>
      <trkpt lat="47.451217" lon="7.769745">
        <ele>518.502000</ele>
        <time>2021-11-20T08:55:02.841Z</time>
      </trkpt>
      <trkpt lat="47.451197" lon="7.769677">
        <ele>518.386816</ele>
        <time>2021-11-20T08:55:03.734Z</time>
      </trkpt>
      <trkpt lat="47.451184" lon="7.769584">
        <ele>518.236312</ele>
        <time>2021-11-20T08:55:04.518Z</time>
      </trkpt>
      <trkpt lat="47.451171" lon="7.769212">
        <ele>517.645972</ele>
        <time>2021-11-20T08:55:07.240Z</time>
      </trkpt>
      <trkpt lat="47.451134" lon="7.768791">
        <ele>516.973151</ele>
        <time>2021-11-20T08:55:10.590Z</time>
      </trkpt>
      <trkpt lat="47.451069" lon="7.768123">
        <ele>515.903586</ele>
        <time>2021-11-20T08:55:15.436Z</time>
      </trkpt>
      <trkpt lat="47.451065" lon="7.767935">
        <ele>515.605492</ele>
        <time>2021-11-20T08:55:16.919Z</time>
      </trkpt>
      <trkpt lat="47.451066" lon="7.767828">
        <ele>515.435900</ele>
        <time>2021-11-20T08:55:17.617Z</time>
      </trkpt>
      <trkpt lat="47.451120" lon="7.767294">
        <ele>514.580194</ele>
        <time>2021-11-20T08:55:21.394Z</time>
      </trkpt>
      <trkpt lat="47.451119" lon="7.767203">
        <ele>514.435956</ele>
        <time>2021-11-20T08:55:21.977Z</time>
      </trkpt>
      <trkpt lat="47.451103" lon="7.767132">
        <ele>514.317350</ele>
        <time>2021-11-20T08:55:22.448Z</time>
      </trkpt>
      <trkpt lat="47.451026" lon="7.766973">
        <ele>513.540704</ele>
        <time>2021-11-20T08:55:23.934Z</time>
      </trkpt>
      <trkpt lat="47.450777" lon="7.766704">
        <ele>511.579818</ele>
        <time>2021-11-20T08:55:26.862Z</time>
      </trkpt>
      <trkpt lat="47.450678" lon="7.766592">
        <ele>510.787189</ele>
        <time>2021-11-20T08:55:28.074Z</time>
      </trkpt>
      <trkpt lat="47.450521" lon="7.766413">
        <ele>509.526566</ele>
        <time>2021-11-20T08:55:29.814Z</time>
      </trkpt>
      <trkpt lat="47.449755" lon="7.765773">
        <ele>503.931918</ele>
        <time>2021-11-20T08:55:37.679Z</time>
      </trkpt>
      <trkpt lat="47.449615" lon="7.765656">
        <ele>502.909334</ele>
        <time>2021-11-20T08:55:39.097Z</time>
      </trkpt>
      <trkpt lat="47.449522" lon="7.765582">
        <ele>502.037274</ele>
        <time>2021-11-20T08:55:40.005Z</time>
      </trkpt>
      <trkpt lat="47.449371" lon="7.765478">
        <ele>500.626743</ele>
        <time>2021-11-20T08:55:41.542Z</time>
      </trkpt>
      <trkpt lat="47.449330" lon="7.765441">
        <ele>500.220017</ele>
        <time>2021-11-20T08:55:41.972Z</time>
      </trkpt>
      <trkpt lat="47.449309" lon="7.765407">
        <ele>499.956336</ele>
        <time>2021-11-20T08:55:42.229Z</time>
      </trkpt>
      <trkpt lat="47.449197" lon="7.765003">
        <ele>497.456048</ele>
        <time>2021-11-20T08:55:44.886Z</time>
      </trkpt>
      <trkpt lat="47.449117" lon="7.764686">
        <ele>495.518515</ele>
        <time>2021-11-20T08:55:46.870Z</time>
      </trkpt>
      <trkpt lat="47.449104" lon="7.764651">
        <ele>495.289852</ele>
        <time>2021-11-20T08:55:47.120Z</time>
      </trkpt>
      <trkpt lat="47.449090" lon="7.764621">
        <ele>495.081127</ele>
        <time>2021-11-20T08:55:47.351Z</time>
      </trkpt>
      <trkpt lat="47.449068" lon="7.764572">
        <ele>494.744324</ele>
        <time>2021-11-20T08:55:47.712Z</time>
      </trkpt>
      <trkpt lat="47.448997" lon="7.764469">
        <ele>493.902100</ele>
        <time>2021-11-20T08:55:48.574Z</time>
      </trkpt>
      <trkpt lat="47.448981" lon="7.764430">
        <ele>493.640888</ele>
        <time>2021-11-20T08:55:48.839Z</time>
      </trkpt>
      <trkpt lat="47.448974" lon="7.764320">
        <ele>493.008206</ele>
        <time>2021-11-20T08:55:49.738Z</time>
      </trkpt>
      <trkpt lat="47.449018" lon="7.763977">
        <ele>491.009041</ele>
        <time>2021-11-20T08:55:52.774Z</time>
      </trkpt>
      <trkpt lat="47.449068" lon="7.763893">
        <ele>490.368233</ele>
        <time>2021-11-20T08:55:53.679Z</time>
      </trkpt>
      <trkpt lat="47.449223" lon="7.763900">
        <ele>489.055105</ele>
        <time>2021-11-20T08:55:55.622Z</time>
      </trkpt>
      <trkpt lat="47.449423" lon="7.763910">
        <ele>487.342590</ele>
        <time>2021-11-20T08:55:58.096Z</time>
      </trkpt>
      <trkpt lat="47.449641" lon="7.763856">
        <ele>485.336901</ele>
        <time>2021-11-20T08:56:00.769Z</time>
      </trkpt>
      <trkpt lat="47.450213" lon="7.763596">
        <ele>479.906919</ele>
        <time>2021-11-20T08:56:08.078Z</time>
      </trkpt>
      <trkpt lat="47.450591" lon="7.763529">
        <ele>476.452402</ele>
        <time>2021-11-20T08:56:12.790Z</time>
      </trkpt>
      <trkpt lat="47.450817" lon="7.763325">
        <ele>474.049832</ele>
        <time>2021-11-20T08:56:16.196Z</time>
      </trkpt>
      <trkpt lat="47.450847" lon="7.763266">
        <ele>473.596879</ele>
        <time>2021-11-20T08:56:16.779Z</time>
      </trkpt>
      <trkpt lat="47.450838" lon="7.763197">
        <ele>473.165688</ele>
        <time>2021-11-20T08:56:17.346Z</time>
      </trkpt>
      <trkpt lat="47.450610" lon="7.762726">
        <ele>469.946861</ele>
        <time>2021-11-20T08:56:22.301Z</time>
      </trkpt>
      <trkpt lat="47.450560" lon="7.762685">
        <ele>469.531697</ele>
        <time>2021-11-20T08:56:23.012Z</time>
      </trkpt>
      <trkpt lat="47.450507" lon="7.762657">
        <ele>469.123009</ele>
        <time>2021-11-20T08:56:23.723Z</time>
      </trkpt>
      <trkpt lat="47.450194" lon="7.762510">
        <ele>466.738251</ele>
        <time>2021-11-20T08:56:27.872Z</time>
      </trkpt>
      <trkpt lat="47.449966" lon="7.762399">
        <ele>464.995187</ele>
        <time>2021-11-20T08:56:30.887Z</time>
      </trkpt>
      <trkpt lat="47.449829" lon="7.762363">
        <ele>463.984762</ele>
        <time>2021-11-20T08:56:32.660Z</time>
      </trkpt>
      <trkpt lat="47.449598" lon="7.762322">
        <ele>462.295289</ele>
        <time>2021-11-20T08:56:35.576Z</time>
      </trkpt>
      <trkpt lat="47.449520" lon="7.762314">
        <ele>461.727523</ele>
        <time>2021-11-20T08:56:36.583Z</time>
      </trkpt>
      <trkpt lat="47.449019" lon="7.762253">
        <ele>458.080241</ele>
        <time>2021-11-20T08:56:43.217Z</time>
      </trkpt>
      <trkpt lat="47.448580" lon="7.762093">
        <ele>454.863627</ele>
        <time>2021-11-20T08:56:49.298Z</time>
      </trkpt>
      <trkpt lat="47.447451" lon="7.761515">
        <ele>446.363894</ele>
        <time>2021-11-20T08:57:04.665Z</time>
      </trkpt>
      <trkpt lat="47.445946" lon="7.760212">
        <ele>428.764341</ele>
        <time>2021-11-20T08:57:25.761Z</time>
      </trkpt>
      <trkpt lat="47.445735" lon="7.760004">
        <ele>426.150175</ele>
        <time>2021-11-20T08:57:28.874Z</time>
      </trkpt>
      <trkpt lat="47.445458" lon="7.759563">
        <ele>421.980980</ele>
        <time>2021-11-20T08:57:33.815Z</time>
      </trkpt>
      <trkpt lat="47.445401" lon="7.759495">
        <ele>421.230811</ele>
        <time>2021-11-20T08:57:34.649Z</time>
      </trkpt>
      <trkpt lat="47.445150" lon="7.759617">
        <ele>418.524526</ele>
        <time>2021-11-20T08:57:37.992Z</time>
      </trkpt>
      <trkpt lat="47.444345" lon="7.759836">
        <ele>410.140662</ele>
        <time>2021-11-20T08:57:47.777Z</time>
      </trkpt>
      <trkpt lat="47.443729" lon="7.759804">
        <ele>406.815060</ele>
        <time>2021-11-20T08:57:55.662Z</time>
      </trkpt>
      <trkpt lat="47.443616" lon="7.759700">
        <ele>406.337557</ele>
        <time>2021-11-20T08:57:57.391Z</time>
      </trkpt>
      <trkpt lat="47.443553" lon="7.759787">
        <ele>406.028302</ele>
        <time>2021-11-20T08:57:58.235Z</time>
      </trkpt>
      <trkpt lat="47.443311" lon="7.760032">
        <ele>404.976124</ele>
        <time>2021-11-20T08:58:01.203Z</time>
      </trkpt>
      <trkpt lat="47.443255" lon="7.760116">
        <ele>404.689946</ele>
        <time>2021-11-20T08:58:02.015Z</time>
      </trkpt>
      <trkpt lat="47.443178" lon="7.760281">
        <ele>404.203554</ele>
        <time>2021-11-20T08:58:04.177Z</time>
      </trkpt>
      <trkpt lat="47.443112" lon="7.760477">
        <ele>403.672317</ele>
        <time>2021-11-20T08:58:05.748Z</time>
      </trkpt>
      <trkpt lat="47.443049" lon="7.760704">
        <ele>403.076978</ele>
        <time>2021-11-20T08:58:08.041Z</time>
      </trkpt>
      <trkpt lat="47.442878" lon="7.761382">
        <ele>402.427098</ele>
        <time>2021-11-20T08:58:14.855Z</time>
      </trkpt>
      <trkpt lat="47.442562" lon="7.762024">
        <ele>403.769303</ele>
        <time>2021-11-20T08:58:27.102Z</time>
      </trkpt>
      <trkpt lat="47.442389" lon="7.762334">
        <ele>404.448688</ele>
        <time>2021-11-20T08:58:35.454Z</time>
      </trkpt>
      <trkpt lat="47.442382" lon="7.762437">
        <ele>404.623677</ele>
        <time>2021-11-20T08:58:37.296Z</time>
      </trkpt>
      <trkpt lat="47.441500" lon="7.763896">
        <ele>407.634015</ele>
        <time>2021-11-20T08:59:16.003Z</time>
      </trkpt>
      <trkpt lat="47.441114" lon="7.764541">
        <ele>408.793780</ele>
        <time>2021-11-20T08:59:28.236Z</time>
      </trkpt>
      <trkpt lat="47.440724" lon="7.765190">
        <ele>409.962865</ele>
        <time>2021-11-20T08:59:38.934Z</time>
      </trkpt>
      <trkpt lat="47.440245" lon="7.765985">
        <ele>410.722170</ele>
        <time>2021-11-20T08:59:52.382Z</time>
      </trkpt>
      <trkpt lat="47.439603" lon="7.767042">
        <ele>411.677350</ele>
        <time>2021-11-20T09:00:09.346Z</time>
      </trkpt>
      <trkpt lat="47.439506" lon="7.767200">
        <ele>411.820819</ele>
        <time>2021-11-20T09:00:12.493Z</time>
      </trkpt>
      <trkpt lat="47.438768" lon="7.768399">
        <ele>414.365761</ele>
        <time>2021-11-20T09:00:35.947Z</time>
      </trkpt>
      <trkpt lat="47.437853" lon="7.769608">
        <ele>417.700232</ele>
        <time>2021-11-20T09:01:11.598Z</time>
      </trkpt>
      <trkpt lat="47.437408" lon="7.770018">
        <ele>419.403574</ele>
        <time>2021-11-20T09:01:27.107Z</time>
      </trkpt>
      <trkpt lat="47.437200" lon="7.770210">
        <ele>420.200162</ele>
        <time>2021-11-20T09:01:34.414Z</time>
      </trkpt>
      <trkpt lat="47.435758" lon="7.771905">
        <ele>423.676051</ele>
        <time>2021-11-20T09:02:19.384Z</time>
      </trkpt>
      <trkpt lat="47.434841" lon="7.772600">
        <ele>423.043275</ele>
        <time>2021-11-20T09:02:31.782Z</time>
      </trkpt>
      <trkpt lat="47.434141" lon="7.773072">
        <ele>421.266695</ele>
        <time>2021-11-20T09:02:39.853Z</time>
      </trkpt>
      <trkpt lat="47.434119" lon="7.772984">
        <ele>421.120154</ele>
        <time>2021-11-20T09:02:40.689Z</time>
      </trkpt>
      <trkpt lat="47.433941" lon="7.773088">
        <ele>420.678193</ele>
        <time>2021-11-20T09:02:42.694Z</time>
      </trkpt>
      <trkpt lat="47.433246" lon="7.773363">
        <ele>418.788710</ele>
        <time>2021-11-20T09:02:49.860Z</time>
      </trkpt>
      <trkpt lat="47.432741" lon="7.773429">
        <ele>417.385863</ele>
        <time>2021-11-20T09:02:54.888Z</time>
      </trkpt>
      <trkpt lat="47.432060" lon="7.773355">
        <ele>415.496369</ele>
        <time>2021-11-20T09:03:02.155Z</time>
      </trkpt>
      <trkpt lat="47.431423" lon="7.773118">
        <ele>415.425783</ele>
        <time>2021-11-20T09:03:10.323Z</time>
      </trkpt>
      <trkpt lat="47.431011" lon="7.772908">
        <ele>415.613851</ele>
        <time>2021-11-20T09:03:17.138Z</time>
      </trkpt>
      <trkpt lat="47.430283" lon="7.772555">
        <ele>415.944484</ele>
        <time>2021-11-20T09:03:33.109Z</time>
      </trkpt>
      <trkpt lat="47.429020" lon="7.771862">
        <ele>419.012611</ele>
        <time>2021-11-20T09:04:07.045Z</time>
      </trkpt>
      <trkpt lat="47.428770" lon="7.771707">
        <ele>419.649503</ele>
        <time>2021-11-20T09:04:13.558Z</time>
      </trkpt>
      <trkpt lat="47.427870" lon="7.771359">
        <ele>421.321218</ele>
        <time>2021-11-20T09:04:34.989Z</time>
      </trkpt>
      <trkpt lat="47.427740" lon="7.771340">
        <ele>421.532156</ele>
        <time>2021-11-20T09:04:37.560Z</time>
      </trkpt>
      <trkpt lat="47.427702" lon="7.771335">
        <ele>421.593758</ele>
        <time>2021-11-20T09:04:38.302Z</time>
      </trkpt>
      <trkpt lat="47.427593" lon="7.771328">
        <ele>421.769929</ele>
        <time>2021-11-20T09:04:40.765Z</time>
      </trkpt>
      <trkpt lat="47.427296" lon="7.771252">
        <ele>422.256635</ele>
        <time>2021-11-20T09:04:46.454Z</time>
      </trkpt>
      <trkpt lat="47.427175" lon="7.771179">
        <ele>422.467664</ele>
        <time>2021-11-20T09:04:49.155Z</time>
      </trkpt>
      <trkpt lat="47.427112" lon="7.771125">
        <ele>422.585258</ele>
        <time>2021-11-20T09:04:50.485Z</time>
      </trkpt>
      <trkpt lat="47.426997" lon="7.771000">
        <ele>422.815753</ele>
        <time>2021-11-20T09:04:53.155Z</time>
      </trkpt>
      <trkpt lat="47.426977" lon="7.770973">
        <ele>422.859490</ele>
        <time>2021-11-20T09:04:53.823Z</time>
      </trkpt>
      <trkpt lat="47.426821" lon="7.770734">
        <ele>423.230761</ele>
        <time>2021-11-20T09:04:58.182Z</time>
      </trkpt>
      <trkpt lat="47.426586" lon="7.770441">
        <ele>423.760552</ele>
        <time>2021-11-20T09:05:04.677Z</time>
      </trkpt>
      <trkpt lat="47.426561" lon="7.770421">
        <ele>423.809539</ele>
        <time>2021-11-20T09:05:05.236Z</time>
      </trkpt>
      <trkpt lat="47.426442" lon="7.770325">
        <ele>424.043159</ele>
        <time>2021-11-20T09:05:08.148Z</time>
      </trkpt>
      <trkpt lat="47.426137" lon="7.770135">
        <ele>424.613521</ele>
        <time>2021-11-20T09:05:15.753Z</time>
      </trkpt>
      <trkpt lat="47.425937" lon="7.770017">
        <ele>424.984613</ele>
        <time>2021-11-20T09:05:20.434Z</time>
      </trkpt>
      <trkpt lat="47.425665" lon="7.769858">
        <ele>425.488661</ele>
        <time>2021-11-20T09:05:26.728Z</time>
      </trkpt>
      <trkpt lat="47.425372" lon="7.769666">
        <ele>426.040968</ele>
        <time>2021-11-20T09:05:33.632Z</time>
      </trkpt>
      <trkpt lat="47.425140" lon="7.769501">
        <ele>426.580757</ele>
        <time>2021-11-20T09:05:39.627Z</time>
      </trkpt>
      <trkpt lat="47.424876" lon="7.769315">
        <ele>427.252357</ele>
        <time>2021-11-20T09:05:46.320Z</time>
      </trkpt>
      <trkpt lat="47.424861" lon="7.769306">
        <ele>427.289533</ele>
        <time>2021-11-20T09:05:46.981Z</time>
      </trkpt>
      <trkpt lat="47.424704" lon="7.769209">
        <ele>427.680298</ele>
        <time>2021-11-20T09:05:50.798Z</time>
      </trkpt>
      <trkpt lat="47.424599" lon="7.769145">
        <ele>427.941117</ele>
        <time>2021-11-20T09:05:53.591Z</time>
      </trkpt>
      <trkpt lat="47.424448" lon="7.769050">
        <ele>428.317979</ele>
        <time>2021-11-20T09:05:57.514Z</time>
      </trkpt>
      <trkpt lat="47.424384" lon="7.769015">
        <ele>428.474686</ele>
        <time>2021-11-20T09:05:59.175Z</time>
      </trkpt>
      <trkpt lat="47.424202" lon="7.768896">
        <ele>428.931698</ele>
        <time>2021-11-20T09:06:04.373Z</time>
      </trkpt>
      <trkpt lat="47.424097" lon="7.768835">
        <ele>429.190777</ele>
        <time>2021-11-20T09:06:06.958Z</time>
      </trkpt>
      <trkpt lat="47.423979" lon="7.768752">
        <ele>429.490872</ele>
        <time>2021-11-20T09:06:10.540Z</time>
      </trkpt>
      <trkpt lat="47.423761" lon="7.768539">
        <ele>430.090982</ele>
        <time>2021-11-20T09:06:17.068Z</time>
      </trkpt>
      <trkpt lat="47.423232" lon="7.767959">
        <ele>431.523706</ele>
        <time>2021-11-20T09:06:32.717Z</time>
      </trkpt>
      <trkpt lat="47.423119" lon="7.767830">
        <ele>431.831103</ele>
        <time>2021-11-20T09:06:36.333Z</time>
      </trkpt>
      <trkpt lat="47.422830" lon="7.767512">
        <ele>432.606788</ele>
        <time>2021-11-20T09:06:44.733Z</time>
      </trkpt>
      <trkpt lat="47.422420" lon="7.767061">
        <ele>433.707121</ele>
        <time>2021-11-20T09:06:56.538Z</time>
      </trkpt>
      <trkpt lat="47.422000" lon="7.766596">
        <ele>434.733369</ele>
        <time>2021-11-20T09:07:08.330Z</time>
      </trkpt>
      <trkpt lat="47.421552" lon="7.766115">
        <ele>435.732201</ele>
        <time>2021-11-20T09:07:19.980Z</time>
      </trkpt>
      <trkpt lat="47.421282" lon="7.765827">
        <ele>436.332825</ele>
        <time>2021-11-20T09:07:27.362Z</time>
      </trkpt>
      <trkpt lat="47.420253" lon="7.764759">
        <ele>438.693111</ele>
        <time>2021-11-20T09:07:55.419Z</time>
      </trkpt>
      <trkpt lat="47.420157" lon="7.764659">
        <ele>438.921830</ele>
        <time>2021-11-20T09:07:58.338Z</time>
      </trkpt>
      <trkpt lat="47.420156" lon="7.764658">
        <ele>438.924182</ele>
        <time>2021-11-20T09:07:58.496Z</time>
      </trkpt>
      <trkpt lat="47.419772" lon="7.764298">
        <ele>439.809745</ele>
        <time>2021-11-20T09:08:08.444Z</time>
      </trkpt>
      <trkpt lat="47.419279" lon="7.763797">
        <ele>440.973692</ele>
        <time>2021-11-20T09:08:22.032Z</time>
      </trkpt>
      <trkpt lat="47.418427" lon="7.762968">
        <ele>442.880133</ele>
        <time>2021-11-20T09:08:44.829Z</time>
      </trkpt>
      <trkpt lat="47.418350" lon="7.762893">
        <ele>443.052483</ele>
        <time>2021-11-20T09:08:47.013Z</time>
      </trkpt>
      <trkpt lat="47.418108" lon="7.762666">
        <ele>443.588173</ele>
        <time>2021-11-20T09:08:53.146Z</time>
      </trkpt>
      <trkpt lat="47.417792" lon="7.762365">
        <ele>444.290794</ele>
        <time>2021-11-20T09:09:01.303Z</time>
      </trkpt>
      <trkpt lat="47.417666" lon="7.762248">
        <ele>444.638703</ele>
        <time>2021-11-20T09:09:04.613Z</time>
      </trkpt>
      <trkpt lat="47.417126" lon="7.761784">
        <ele>446.117273</ele>
        <time>2021-11-20T09:09:19.205Z</time>
      </trkpt>
      <trkpt lat="47.416792" lon="7.761347">
        <ele>447.173196</ele>
        <time>2021-11-20T09:09:29.929Z</time>
      </trkpt>
      <trkpt lat="47.416052" lon="7.759740">
        <ele>450.628611</ele>
        <time>2021-11-20T09:10:04.256Z</time>
      </trkpt>
      <trkpt lat="47.415747" lon="7.759291">
        <ele>451.850015</ele>
        <time>2021-11-20T09:10:15.801Z</time>
      </trkpt>
      <trkpt lat="47.415402" lon="7.758996">
        <ele>452.980867</ele>
        <time>2021-11-20T09:10:26.418Z</time>
      </trkpt>
      <trkpt lat="47.414242" lon="7.758407">
        <ele>456.059756</ele>
        <time>2021-11-20T09:10:57.933Z</time>
      </trkpt>
      <trkpt lat="47.413354" lon="7.757794">
        <ele>458.430127</ele>
        <time>2021-11-20T09:11:20.601Z</time>
      </trkpt>
      <trkpt lat="47.413130" lon="7.757630">
        <ele>459.020828</ele>
        <time>2021-11-20T09:11:26.220Z</time>
      </trkpt>
      <trkpt lat="47.412976" lon="7.757506">
        <ele>459.435234</ele>
        <time>2021-11-20T09:11:29.921Z</time>
      </trkpt>
      <trkpt lat="47.412140" lon="7.757109">
        <ele>461.510152</ele>
        <time>2021-11-20T09:11:49.411Z</time>
      </trkpt>
      <trkpt lat="47.411231" lon="7.756194">
        <ele>465.945186</ele>
        <time>2021-11-20T09:12:23.157Z</time>
      </trkpt>
      <trkpt lat="47.410819" lon="7.755776">
        <ele>468.316764</ele>
        <time>2021-11-20T09:12:43.528Z</time>
      </trkpt>
      <trkpt lat="47.410249" lon="7.755193">
        <ele>471.133172</ele>
        <time>2021-11-20T09:13:07.727Z</time>
      </trkpt>
      <trkpt lat="47.409760" lon="7.754676">
        <ele>472.262236</ele>
        <time>2021-11-20T09:13:26.014Z</time>
      </trkpt>
      <trkpt lat="47.409608" lon="7.754510">
        <ele>472.617151</ele>
        <time>2021-11-20T09:13:31.691Z</time>
      </trkpt>
      <trkpt lat="47.409489" lon="7.754401">
        <ele>472.880055</ele>
        <time>2021-11-20T09:13:33.474Z</time>
      </trkpt>
      <trkpt lat="47.409359" lon="7.754282">
        <ele>473.167211</ele>
        <time>2021-11-20T09:13:36.623Z</time>
      </trkpt>
      <trkpt lat="47.408436" lon="7.753348">
        <ele>473.048534</ele>
        <time>2021-11-20T09:13:50.008Z</time>
      </trkpt>
      <trkpt lat="47.408293" lon="7.753211">
        <ele>472.702998</ele>
        <time>2021-11-20T09:13:51.663Z</time>
      </trkpt>
      <trkpt lat="47.408184" lon="7.753119">
        <ele>472.448492</ele>
        <time>2021-11-20T09:13:52.841Z</time>
      </trkpt>
      <trkpt lat="47.407673" lon="7.752793">
        <ele>471.320016</ele>
        <time>2021-11-20T09:13:58.669Z</time>
      </trkpt>
      <trkpt lat="47.407314" lon="7.752624">
        <ele>470.556109</ele>
        <time>2021-11-20T09:14:02.892Z</time>
      </trkpt>
      <trkpt lat="47.407064" lon="7.752527">
        <ele>470.728699</ele>
        <time>2021-11-20T09:14:06.099Z</time>
      </trkpt>
      <trkpt lat="47.406921" lon="7.752457">
        <ele>470.830890</ele>
        <time>2021-11-20T09:14:07.824Z</time>
      </trkpt>
      <trkpt lat="47.406774" lon="7.752394">
        <ele>470.934720</ele>
        <time>2021-11-20T09:14:10.083Z</time>
      </trkpt>
      <trkpt lat="47.406667" lon="7.752359">
        <ele>471.009062</ele>
        <time>2021-11-20T09:14:12.136Z</time>
      </trkpt>
      <trkpt lat="47.406458" lon="7.752320">
        <ele>471.151966</ele>
        <time>2021-11-20T09:14:15.822Z</time>
      </trkpt>
      <trkpt lat="47.406028" lon="7.752259">
        <ele>471.445005</ele>
        <time>2021-11-20T09:14:24.466Z</time>
      </trkpt>
      <trkpt lat="47.405500" lon="7.752177">
        <ele>471.917531</ele>
        <time>2021-11-20T09:14:36.703Z</time>
      </trkpt>
      <trkpt lat="47.405318" lon="7.752130">
        <ele>472.497643</ele>
        <time>2021-11-20T09:14:41.367Z</time>
      </trkpt>
      <trkpt lat="47.405135" lon="7.752076">
        <ele>473.083578</ele>
        <time>2021-11-20T09:14:46.135Z</time>
      </trkpt>
      <trkpt lat="47.404962" lon="7.752020">
        <ele>473.639652</ele>
        <time>2021-11-20T09:14:50.854Z</time>
      </trkpt>
      <trkpt lat="47.404757" lon="7.751955">
        <ele>474.297972</ele>
        <time>2021-11-20T09:14:56.411Z</time>
      </trkpt>
      <trkpt lat="47.404398" lon="7.751774">
        <ele>475.488990</ele>
        <time>2021-11-20T09:15:06.953Z</time>
      </trkpt>
      <trkpt lat="47.404311" lon="7.751716">
        <ele>475.788675</ele>
        <time>2021-11-20T09:15:09.933Z</time>
      </trkpt>
      <trkpt lat="47.404214" lon="7.751646">
        <ele>476.127626</ele>
        <time>2021-11-20T09:15:12.973Z</time>
      </trkpt>
      <trkpt lat="47.404048" lon="7.751509">
        <ele>476.724639</ele>
        <time>2021-11-20T09:15:18.656Z</time>
      </trkpt>
      <trkpt lat="47.403730" lon="7.751223">
        <ele>477.910401</ele>
        <time>2021-11-20T09:15:30.286Z</time>
      </trkpt>
      <trkpt lat="47.403097" lon="7.750650">
        <ele>480.324550</ele>
        <time>2021-11-20T09:15:52.845Z</time>
      </trkpt>
      <trkpt lat="47.402454" lon="7.750070">
        <ele>482.774488</ele>
        <time>2021-11-20T09:16:12.879Z</time>
      </trkpt>
      <trkpt lat="47.402330" lon="7.749957">
        <ele>483.248273</ele>
        <time>2021-11-20T09:16:16.635Z</time>
      </trkpt>
      <trkpt lat="47.401590" lon="7.749360">
        <ele>484.518363</ele>
        <time>2021-11-20T09:16:35.133Z</time>
      </trkpt>
      <trkpt lat="47.401293" lon="7.749291">
        <ele>484.966910</ele>
        <time>2021-11-20T09:16:41.130Z</time>
      </trkpt>
      <trkpt lat="47.401019" lon="7.749360">
        <ele>485.381594</ele>
        <time>2021-11-20T09:16:46.456Z</time>
      </trkpt>
      <trkpt lat="47.400800" lon="7.749492">
        <ele>485.734471</ele>
        <time>2021-11-20T09:16:50.697Z</time>
      </trkpt>
      <trkpt lat="47.400598" lon="7.749617">
        <ele>486.028235</ele>
        <time>2021-11-20T09:16:54.492Z</time>
      </trkpt>
      <trkpt lat="47.400432" lon="7.749686">
        <ele>486.206202</ele>
        <time>2021-11-20T09:16:57.603Z</time>
      </trkpt>
      <trkpt lat="47.400244" lon="7.749736">
        <ele>486.403342</ele>
        <time>2021-11-20T09:17:00.971Z</time>
      </trkpt>
      <trkpt lat="47.400091" lon="7.749776">
        <ele>486.563695</ele>
        <time>2021-11-20T09:17:03.838Z</time>
      </trkpt>
      <trkpt lat="47.399717" lon="7.749806">
        <ele>486.950240</ele>
        <time>2021-11-20T09:17:10.604Z</time>
      </trkpt>
      <trkpt lat="47.399567" lon="7.749788">
        <ele>487.105554</ele>
        <time>2021-11-20T09:17:13.279Z</time>
      </trkpt>
      <trkpt lat="47.399500" lon="7.749781">
        <ele>487.174872</ele>
        <time>2021-11-20T09:17:14.607Z</time>
      </trkpt>
      <trkpt lat="47.398014" lon="7.749432">
        <ele>489.356181</ele>
        <time>2021-11-20T09:17:45.783Z</time>
      </trkpt>
      <trkpt lat="47.397558" lon="7.749325">
        <ele>490.159169</ele>
        <time>2021-11-20T09:17:55.980Z</time>
      </trkpt>
      <trkpt lat="47.397032" lon="7.749214">
        <ele>491.204927</ele>
        <time>2021-11-20T09:18:07.846Z</time>
      </trkpt>
      <trkpt lat="47.396748" lon="7.749161">
        <ele>492.121523</ele>
        <time>2021-11-20T09:18:14.841Z</time>
      </trkpt>
      <trkpt lat="47.396663" lon="7.749150">
        <ele>492.394735</ele>
        <time>2021-11-20T09:18:17.081Z</time>
      </trkpt>
      <trkpt lat="47.396567" lon="7.749140">
        <ele>492.702890</ele>
        <time>2021-11-20T09:18:19.146Z</time>
      </trkpt>
      <trkpt lat="47.396397" lon="7.749134">
        <ele>493.247385</ele>
        <time>2021-11-20T09:18:23.596Z</time>
      </trkpt>
      <trkpt lat="47.395694" lon="7.749002">
        <ele>495.516501</ele>
        <time>2021-11-20T09:18:43.152Z</time>
      </trkpt>
      <trkpt lat="47.395586" lon="7.748999">
        <ele>495.862378</ele>
        <time>2021-11-20T09:18:46.985Z</time>
      </trkpt>
      <trkpt lat="47.395539" lon="7.749002">
        <ele>496.013012</ele>
        <time>2021-11-20T09:18:48.361Z</time>
      </trkpt>
      <trkpt lat="47.395507" lon="7.749005">
        <ele>496.115682</ele>
        <time>2021-11-20T09:18:49.284Z</time>
      </trkpt>
      <trkpt lat="47.395502" lon="7.748946">
        <ele>496.244566</ele>
        <time>2021-11-20T09:18:50.482Z</time>
      </trkpt>
      <trkpt lat="47.395495" lon="7.748893">
        <ele>496.361611</ele>
        <time>2021-11-20T09:18:51.604Z</time>
      </trkpt>
      <trkpt lat="47.395484" lon="7.748829">
        <ele>496.504736</ele>
        <time>2021-11-20T09:18:52.870Z</time>
      </trkpt>
      <trkpt lat="47.395437" lon="7.748697">
        <ele>496.914250</ele>
        <time>2021-11-20T09:18:56.631Z</time>
      </trkpt>
      <trkpt lat="47.395216" lon="7.748043">
        <ele>499.548095</ele>
        <time>2021-11-20T09:19:14.082Z</time>
      </trkpt>
      <trkpt lat="47.395153" lon="7.747805">
        <ele>500.468912</ele>
        <time>2021-11-20T09:19:19.875Z</time>
      </trkpt>
      <trkpt lat="47.395098" lon="7.747553">
        <ele>501.422970</ele>
        <time>2021-11-20T09:19:27.089Z</time>
      </trkpt>
      <trkpt lat="47.395049" lon="7.747299">
        <ele>502.374646</ele>
        <time>2021-11-20T09:19:33.177Z</time>
      </trkpt>
      <trkpt lat="47.394974" lon="7.746918">
        <ele>503.804371</ele>
        <time>2021-11-20T09:19:43.755Z</time>
      </trkpt>
      <trkpt lat="47.394904" lon="7.746495">
        <ele>505.373452</ele>
        <time>2021-11-20T09:19:54.892Z</time>
      </trkpt>
      <trkpt lat="47.394896" lon="7.746159">
        <ele>506.615080</ele>
        <time>2021-11-20T09:20:02.580Z</time>
      </trkpt>
      <trkpt lat="47.394911" lon="7.745928">
        <ele>507.531849</ele>
        <time>2021-11-20T09:20:09.136Z</time>
      </trkpt>
      <trkpt lat="47.395186" lon="7.744409">
        <ele>513.743636</ele>
        <time>2021-11-20T09:20:50.767Z</time>
      </trkpt>
      <trkpt lat="47.395171" lon="7.743925">
        <ele>515.657702</ele>
        <time>2021-11-20T09:21:02.832Z</time>
      </trkpt>
      <trkpt lat="47.395140" lon="7.743788">
        <ele>516.228363</ele>
        <time>2021-11-20T09:21:06.733Z</time>
      </trkpt>
      <trkpt lat="47.395069" lon="7.743509">
        <ele>517.465382</ele>
        <time>2021-11-20T09:21:13.883Z</time>
      </trkpt>
      <trkpt lat="47.394948" lon="7.742380">
        <ele>522.402760</ele>
        <time>2021-11-20T09:21:42.698Z</time>
      </trkpt>
      <trkpt lat="47.394701" lon="7.741483">
        <ele>526.585588</ele>
        <time>2021-11-20T09:22:09.577Z</time>
      </trkpt>
      <trkpt lat="47.394561" lon="7.740148">
        <ele>534.660630</ele>
        <time>2021-11-20T09:22:52.215Z</time>
      </trkpt>
      <trkpt lat="47.394537" lon="7.739339">
        <ele>540.034703</ele>
        <time>2021-11-20T09:23:23.882Z</time>
      </trkpt>
      <trkpt lat="47.394527" lon="7.739262">
        <ele>540.555032</ele>
        <time>2021-11-20T09:23:27.770Z</time>
      </trkpt>
      <trkpt lat="47.394469" lon="7.738925">
        <ele>542.862681</ele>
        <time>2021-11-20T09:23:41.135Z</time>
      </trkpt>
      <trkpt lat="47.394290" lon="7.738104">
        <ele>548.849697</ele>
        <time>2021-11-20T09:24:14.915Z</time>
      </trkpt>
      <trkpt lat="47.394258" lon="7.738000">
        <ele>549.681417</ele>
        <time>2021-11-20T09:24:19.500Z</time>
      </trkpt>
      <trkpt lat="47.394229" lon="7.737903">
        <ele>550.453436</ele>
        <time>2021-11-20T09:24:25.755Z</time>
      </trkpt>
      <trkpt lat="47.393999" lon="7.737400">
        <ele>554.872706</ele>
        <time>2021-11-20T09:24:51.457Z</time>
      </trkpt>
      <trkpt lat="47.393712" lon="7.736954">
        <ele>559.352817</ele>
        <time>2021-11-20T09:25:16.835Z</time>
      </trkpt>
      <trkpt lat="47.393608" lon="7.736659">
        <ele>561.774394</ele>
        <time>2021-11-20T09:25:27.746Z</time>
      </trkpt>
      <trkpt lat="47.393568" lon="7.736511">
        <ele>562.934629</ele>
        <time>2021-11-20T09:25:35.229Z</time>
      </trkpt>
      <trkpt lat="47.393433" lon="7.735943">
        <ele>566.628579</ele>
        <time>2021-11-20T09:25:56.452Z</time>
      </trkpt>
      <trkpt lat="47.393215" lon="7.735175">
        <ele>570.697692</ele>
        <time>2021-11-20T09:26:19.061Z</time>
      </trkpt>
      <trkpt lat="47.393165" lon="7.734401">
        <ele>574.496778</ele>
        <time>2021-11-20T09:26:43.288Z</time>
      </trkpt>
      <trkpt lat="47.393244" lon="7.733491">
        <ele>578.815136</ele>
        <time>2021-11-20T09:27:06.810Z</time>
      </trkpt>
      <trkpt lat="47.393397" lon="7.732326">
        <ele>583.382411</ele>
        <time>2021-11-20T09:27:37.755Z</time>
      </trkpt>
      <trkpt lat="47.393441" lon="7.731993">
        <ele>584.688195</ele>
        <time>2021-11-20T09:27:46.432Z</time>
      </trkpt>
      <trkpt lat="47.393558" lon="7.731118">
        <ele>588.120819</ele>
        <time>2021-11-20T09:28:08.063Z</time>
      </trkpt>
      <trkpt lat="47.393599" lon="7.730842">
        <ele>589.048079</ele>
        <time>2021-11-20T09:28:15.505Z</time>
      </trkpt>
      <trkpt lat="47.393645" lon="7.730312">
        <ele>590.680832</ele>
        <time>2021-11-20T09:28:28.735Z</time>
      </trkpt>
      <trkpt lat="47.393562" lon="7.729252">
        <ele>593.941422</ele>
        <time>2021-11-20T09:28:53.399Z</time>
      </trkpt>
      <trkpt lat="47.393597" lon="7.729010">
        <ele>594.697579</ele>
        <time>2021-11-20T09:28:58.037Z</time>
      </trkpt>
      <trkpt lat="47.393811" lon="7.728392">
        <ele>596.689768</ele>
        <time>2021-11-20T09:29:11.477Z</time>
      </trkpt>
      <trkpt lat="47.393786" lon="7.727797">
        <ele>597.639485</ele>
        <time>2021-11-20T09:29:22.441Z</time>
      </trkpt>
      <trkpt lat="47.393695" lon="7.727335">
        <ele>598.406019</ele>
        <time>2021-11-20T09:29:31.377Z</time>
      </trkpt>
      <trkpt lat="47.393494" lon="7.726727">
        <ele>599.483956</ele>
        <time>2021-11-20T09:29:42.492Z</time>
      </trkpt>
      <trkpt lat="47.393271" lon="7.726180">
        <ele>600.501207</ele>
        <time>2021-11-20T09:29:51.026Z</time>
      </trkpt>
      <trkpt lat="47.392967" lon="7.725613">
        <ele>601.543630</ele>
        <time>2021-11-20T09:30:00.070Z</time>
      </trkpt>
      <trkpt lat="47.392856" lon="7.725172">
        <ele>602.198682</ele>
        <time>2021-11-20T09:30:06.408Z</time>
      </trkpt>
      <trkpt lat="47.392777" lon="7.724694">
        <ele>602.883730</ele>
        <time>2021-11-20T09:30:13.609Z</time>
      </trkpt>
      <trkpt lat="47.392748" lon="7.724495">
        <ele>603.167137</ele>
        <time>2021-11-20T09:30:17.030Z</time>
      </trkpt>
      <trkpt lat="47.392652" lon="7.723941">
        <ele>603.963321</ele>
        <time>2021-11-20T09:30:26.869Z</time>
      </trkpt>
      <trkpt lat="47.392602" lon="7.723770">
        <ele>604.222657</ele>
        <time>2021-11-20T09:30:30.288Z</time>
      </trkpt>
      <trkpt lat="47.392461" lon="7.723191">
        <ele>606.090785</ele>
        <time>2021-11-20T09:30:42.218Z</time>
      </trkpt>
      <trkpt lat="47.392382" lon="7.722819">
        <ele>607.551536</ele>
        <time>2021-11-20T09:30:49.604Z</time>
      </trkpt>
      <trkpt lat="47.392292" lon="7.722529">
        <ele>608.746821</ele>
        <time>2021-11-20T09:30:56.789Z</time>
      </trkpt>
      <trkpt lat="47.392253" lon="7.722399">
        <ele>609.279580</ele>
        <time>2021-11-20T09:31:00.072Z</time>
      </trkpt>
      <trkpt lat="47.392208" lon="7.722208">
        <ele>610.037306</ele>
        <time>2021-11-20T09:31:07.678Z</time>
      </trkpt>
      <trkpt lat="47.392110" lon="7.721662">
        <ele>612.153708</ele>
        <time>2021-11-20T09:31:23.996Z</time>
      </trkpt>
      <trkpt lat="47.392049" lon="7.721206">
        <ele>613.895262</ele>
        <time>2021-11-20T09:31:38.135Z</time>
      </trkpt>
      <trkpt lat="47.392023" lon="7.720911">
        <ele>614.888538</ele>
        <time>2021-11-20T09:31:45.690Z</time>
      </trkpt>
      <trkpt lat="47.392009" lon="7.720553">
        <ele>615.948077</ele>
        <time>2021-11-20T09:31:55.878Z</time>
      </trkpt>
      <trkpt lat="47.392003" lon="7.720465">
        <ele>616.209404</ele>
        <time>2021-11-20T09:31:57.914Z</time>
      </trkpt>
      <trkpt lat="47.391997" lon="7.720322">
        <ele>616.632735</ele>
        <time>2021-11-20T09:32:02.349Z</time>
      </trkpt>
      <trkpt lat="47.391981" lon="7.720232">
        <ele>616.907672</ele>
        <time>2021-11-20T09:32:03.445Z</time>
      </trkpt>
      <trkpt lat="47.391976" lon="7.720207">
        <ele>616.984696</ele>
        <time>2021-11-20T09:32:05.349Z</time>
      </trkpt>
      <trkpt lat="47.391855" lon="7.719934">
        <ele>617.948826</ele>
        <time>2021-11-20T09:32:11.497Z</time>
      </trkpt>
      <trkpt lat="47.391473" lon="7.719512">
        <ele>620.030753</ele>
        <time>2021-11-20T09:32:25.826Z</time>
      </trkpt>
      <trkpt lat="47.391452" lon="7.719365">
        <ele>620.474661</ele>
        <time>2021-11-20T09:32:29.811Z</time>
      </trkpt>
      <trkpt lat="47.391523" lon="7.719174">
        <ele>621.118491</ele>
        <time>2021-11-20T09:32:32.767Z</time>
      </trkpt>
      <trkpt lat="47.391559" lon="7.719141">
        <ele>621.303409</ele>
        <time>2021-11-20T09:32:35.365Z</time>
      </trkpt>
      <trkpt lat="47.391607" lon="7.719119">
        <ele>621.522759</ele>
        <time>2021-11-20T09:32:35.833Z</time>
      </trkpt>
      <trkpt lat="47.391750" lon="7.719173">
        <ele>622.166956</ele>
        <time>2021-11-20T09:32:40.105Z</time>
      </trkpt>
      <trkpt lat="47.392177" lon="7.719569">
        <ele>622.880552</ele>
        <time>2021-11-20T09:32:51.647Z</time>
      </trkpt>
      <trkpt lat="47.392377" lon="7.719928">
        <ele>623.272902</ele>
        <time>2021-11-20T09:32:55.443Z</time>
      </trkpt>
      <trkpt lat="47.392836" lon="7.720755">
        <ele>624.175360</ele>
        <time>2021-11-20T09:33:08.380Z</time>
      </trkpt>
      <trkpt lat="47.392902" lon="7.721504">
        <ele>625.540881</ele>
        <time>2021-11-20T09:33:19.625Z</time>
      </trkpt>
      <trkpt lat="47.392988" lon="7.721605">
        <ele>626.028280</ele>
        <time>2021-11-20T09:33:21.794Z</time>
      </trkpt>
      <trkpt lat="47.393093" lon="7.721617">
        <ele>626.495477</ele>
        <time>2021-11-20T09:33:24.029Z</time>
      </trkpt>
      <trkpt lat="47.393128" lon="7.721605">
        <ele>626.654873</ele>
        <time>2021-11-20T09:33:24.963Z</time>
      </trkpt>
      <trkpt lat="47.393161" lon="7.721575">
        <ele>626.826770</ele>
        <time>2021-11-20T09:33:27.227Z</time>
      </trkpt>
      <trkpt lat="47.393232" lon="7.721443">
        <ele>627.333086</ele>
        <time>2021-11-20T09:33:30.016Z</time>
      </trkpt>
      <trkpt lat="47.393237" lon="7.721281">
        <ele>627.820104</ele>
        <time>2021-11-20T09:33:32.857Z</time>
      </trkpt>
      <trkpt lat="47.392966" lon="7.720710">
        <ele>629.914360</ele>
        <time>2021-11-20T09:33:48.764Z</time>
      </trkpt>
      <trkpt lat="47.392792" lon="7.719995">
        <ele>632.196167</ele>
        <time>2021-11-20T09:34:09.116Z</time>
      </trkpt>
      <trkpt lat="47.392053" lon="7.717542">
        <ele>646.785537</ele>
        <time>2021-11-20T09:35:35.011Z</time>
      </trkpt>
      <trkpt lat="47.391806" lon="7.715912">
        <ele>658.150841</ele>
        <time>2021-11-20T09:36:37.641Z</time>
      </trkpt>
      <trkpt lat="47.391679" lon="7.715613">
        <ele>660.573882</ele>
        <time>2021-11-20T09:36:51.991Z</time>
      </trkpt>
      <trkpt lat="47.391654" lon="7.715557">
        <ele>661.034357</ele>
        <time>2021-11-20T09:36:54.630Z</time>
      </trkpt>
      <trkpt lat="47.391364" lon="7.715202">
        <ele>664.853475</ele>
        <time>2021-11-20T09:37:16.273Z</time>
      </trkpt>
      <trkpt lat="47.391106" lon="7.714695">
        <ele>668.829225</ele>
        <time>2021-11-20T09:37:40.329Z</time>
      </trkpt>
      <trkpt lat="47.391078" lon="7.714610">
        <ele>669.412954</ele>
        <time>2021-11-20T09:37:45.918Z</time>
      </trkpt>
      <trkpt lat="47.391061" lon="7.714515">
        <ele>670.019744</ele>
        <time>2021-11-20T09:37:49.569Z</time>
      </trkpt>
      <trkpt lat="47.391044" lon="7.714334">
        <ele>671.148158</ele>
        <time>2021-11-20T09:37:54.402Z</time>
      </trkpt>
      <trkpt lat="47.391031" lon="7.713953">
        <ele>673.503889</ele>
        <time>2021-11-20T09:38:09.211Z</time>
      </trkpt>
      <trkpt lat="47.391064" lon="7.713903">
        <ele>673.935096</ele>
        <time>2021-11-20T09:38:10.689Z</time>
      </trkpt>
      <trkpt lat="47.391167" lon="7.713797">
        <ele>675.080151</ele>
        <time>2021-11-20T09:38:16.228Z</time>
      </trkpt>
      <trkpt lat="47.391209" lon="7.713777">
        <ele>675.482670</ele>
        <time>2021-11-20T09:38:18.365Z</time>
      </trkpt>
      <trkpt lat="47.391275" lon="7.713830">
        <ele>676.167902</ele>
        <time>2021-11-20T09:38:24.110Z</time>
      </trkpt>
      <trkpt lat="47.391417" lon="7.713973">
        <ele>677.735529</ele>
        <time>2021-11-20T09:38:30.078Z</time>
      </trkpt>
      <trkpt lat="47.391473" lon="7.714046">
        <ele>678.416799</ele>
        <time>2021-11-20T09:38:33.203Z</time>
      </trkpt>
      <trkpt lat="47.391545" lon="7.714159">
        <ele>679.375042</ele>
        <time>2021-11-20T09:38:40.905Z</time>
      </trkpt>
      <trkpt lat="47.391940" lon="7.714939">
        <ele>684.943393</ele>
        <time>2021-11-20T09:39:09.401Z</time>
      </trkpt>
      <trkpt lat="47.392591" lon="7.715554">
        <ele>691.103041</ele>
        <time>2021-11-20T09:39:44.318Z</time>
      </trkpt>
      <trkpt lat="47.392595" lon="7.715557">
        <ele>691.138800</ele>
        <time>2021-11-20T09:39:44.830Z</time>
      </trkpt>
      <trkpt lat="47.392844" lon="7.715873">
        <ele>693.755502</ele>
        <time>2021-11-20T09:39:59.079Z</time>
      </trkpt>
      <trkpt lat="47.393434" lon="7.717032">
        <ele>702.701946</ele>
        <time>2021-11-20T09:40:49.112Z</time>
      </trkpt>
      <trkpt lat="47.393774" lon="7.717216">
        <ele>706.188166</ele>
        <time>2021-11-20T09:41:09.684Z</time>
      </trkpt>
      <trkpt lat="47.394297" lon="7.717318">
        <ele>711.267215</ele>
        <time>2021-11-20T09:41:39.183Z</time>
      </trkpt>
      <trkpt lat="47.394703" lon="7.717919">
        <ele>716.426199</ele>
        <time>2021-11-20T09:42:10.237Z</time>
      </trkpt>
      <trkpt lat="47.395332" lon="7.718649">
        <ele>723.252493</ele>
        <time>2021-11-20T09:42:50.708Z</time>
      </trkpt>
      <trkpt lat="47.396208" lon="7.719583">
        <ele>730.525841</ele>
        <time>2021-11-20T09:43:39.666Z</time>
      </trkpt>
      <trkpt lat="47.396744" lon="7.720071">
        <ele>733.010450</ele>
        <time>2021-11-20T09:43:59.601Z</time>
      </trkpt>
      <trkpt lat="47.396942" lon="7.720223">
        <ele>733.891001</ele>
        <time>2021-11-20T09:44:06.096Z</time>
      </trkpt>
      <trkpt lat="47.397007" lon="7.720272">
        <ele>734.178971</ele>
        <time>2021-11-20T09:44:07.820Z</time>
      </trkpt>
      <trkpt lat="47.397231" lon="7.720377">
        <ele>735.106355</ele>
        <time>2021-11-20T09:44:12.436Z</time>
      </trkpt>
      <trkpt lat="47.397269" lon="7.720386">
        <ele>735.258226</ele>
        <time>2021-11-20T09:44:13.541Z</time>
      </trkpt>
      <trkpt lat="47.397313" lon="7.720394">
        <ele>735.433169</ele>
        <time>2021-11-20T09:44:14.472Z</time>
      </trkpt>
      <trkpt lat="47.397390" lon="7.720396">
        <ele>735.737075</ele>
        <time>2021-11-20T09:44:15.854Z</time>
      </trkpt>
      <trkpt lat="47.397434" lon="7.720402">
        <ele>735.911447</ele>
        <time>2021-11-20T09:44:16.272Z</time>
      </trkpt>
      <trkpt lat="47.397631" lon="7.720533">
        <ele>735.518254</ele>
        <time>2021-11-20T09:44:20.798Z</time>
      </trkpt>
      <trkpt lat="47.398012" lon="7.721043">
        <ele>734.443371</ele>
        <time>2021-11-20T09:44:26.709Z</time>
      </trkpt>
      <trkpt lat="47.398228" lon="7.721213">
        <ele>733.931706</ele>
        <time>2021-11-20T09:44:29.730Z</time>
      </trkpt>
      <trkpt lat="47.398924" lon="7.721174">
        <ele>732.475569</ele>
        <time>2021-11-20T09:44:36.522Z</time>
      </trkpt>
      <trkpt lat="47.399468" lon="7.721220">
        <ele>730.530471</ele>
        <time>2021-11-20T09:44:41.776Z</time>
      </trkpt>
      <trkpt lat="47.399564" lon="7.721179">
        <ele>730.124146</ele>
        <time>2021-11-20T09:44:42.752Z</time>
      </trkpt>
      <trkpt lat="47.399638" lon="7.721030">
        <ele>729.615519</ele>
        <time>2021-11-20T09:44:43.998Z</time>
      </trkpt>
      <trkpt lat="47.399660" lon="7.720103">
        <ele>727.062633</ele>
        <time>2021-11-20T09:44:50.325Z</time>
      </trkpt>
      <trkpt lat="47.399572" lon="7.719165">
        <ele>724.026029</ele>
        <time>2021-11-20T09:44:56.507Z</time>
      </trkpt>
      <trkpt lat="47.399543" lon="7.718856">
        <ele>722.286914</ele>
        <time>2021-11-20T09:44:58.940Z</time>
      </trkpt>
      <trkpt lat="47.399474" lon="7.718576">
        <ele>720.625720</ele>
        <time>2021-11-20T09:45:00.670Z</time>
      </trkpt>
      <trkpt lat="47.399149" lon="7.717788">
        <ele>715.481449</ele>
        <time>2021-11-20T09:45:06.183Z</time>
      </trkpt>
      <trkpt lat="47.399103" lon="7.717512">
        <ele>713.896816</ele>
        <time>2021-11-20T09:45:07.989Z</time>
      </trkpt>
      <trkpt lat="47.399104" lon="7.717464">
        <ele>713.629093</ele>
        <time>2021-11-20T09:45:08.911Z</time>
      </trkpt>
      <trkpt lat="47.399108" lon="7.717419">
        <ele>713.376068</ele>
        <time>2021-11-20T09:45:09.192Z</time>
      </trkpt>
      <trkpt lat="47.399123" lon="7.717379">
        <ele>713.121137</ele>
        <time>2021-11-20T09:45:09.467Z</time>
      </trkpt>
      <trkpt lat="47.399148" lon="7.717338">
        <ele>712.813499</ele>
        <time>2021-11-20T09:45:09.797Z</time>
      </trkpt>
      <trkpt lat="47.399302" lon="7.717285">
        <ele>711.511178</ele>
        <time>2021-11-20T09:45:11.168Z</time>
      </trkpt>
      <trkpt lat="47.399544" lon="7.717320">
        <ele>709.137736</ele>
        <time>2021-11-20T09:45:13.211Z</time>
      </trkpt>
      <trkpt lat="47.400525" lon="7.717614">
        <ele>695.372246</ele>
        <time>2021-11-20T09:45:21.644Z</time>
      </trkpt>
      <trkpt lat="47.400608" lon="7.717628">
        <ele>694.223415</ele>
        <time>2021-11-20T09:45:22.345Z</time>
      </trkpt>
      <trkpt lat="47.400782" lon="7.717635">
        <ele>691.829680</ele>
        <time>2021-11-20T09:45:23.804Z</time>
      </trkpt>
      <trkpt lat="47.400989" lon="7.717629">
        <ele>688.982467</ele>
        <time>2021-11-20T09:45:25.527Z</time>
      </trkpt>
      <trkpt lat="47.401112" lon="7.717600">
        <ele>687.269567</ele>
        <time>2021-11-20T09:45:26.586Z</time>
      </trkpt>
      <trkpt lat="47.401134" lon="7.717594">
        <ele>686.961912</ele>
        <time>2021-11-20T09:45:26.776Z</time>
      </trkpt>
      <trkpt lat="47.401268" lon="7.717495">
        <ele>684.979452</ele>
        <time>2021-11-20T09:45:28.049Z</time>
      </trkpt>
      <trkpt lat="47.401285" lon="7.717461">
        <ele>684.657981</ele>
        <time>2021-11-20T09:45:28.285Z</time>
      </trkpt>
      <trkpt lat="47.401328" lon="7.717478">
        <ele>684.157842</ele>
        <time>2021-11-20T09:45:28.646Z</time>
      </trkpt>
      <trkpt lat="47.401842" lon="7.717454">
        <ele>678.379750</ele>
        <time>2021-11-20T09:45:32.980Z</time>
      </trkpt>
      <trkpt lat="47.401903" lon="7.717454">
        <ele>677.694366</ele>
        <time>2021-11-20T09:45:33.517Z</time>
      </trkpt>
      <trkpt lat="47.402002" lon="7.717453">
        <ele>676.581994</ele>
        <time>2021-11-20T09:45:34.338Z</time>
      </trkpt>
      <trkpt lat="47.402158" lon="7.717491">
        <ele>674.805544</ele>
        <time>2021-11-20T09:45:35.653Z</time>
      </trkpt>
      <trkpt lat="47.402609" lon="7.717319">
        <ele>669.572091</ele>
        <time>2021-11-20T09:45:39.695Z</time>
      </trkpt>
      <trkpt lat="47.402822" lon="7.717151">
        <ele>666.859187</ele>
        <time>2021-11-20T09:45:41.774Z</time>
      </trkpt>
      <trkpt lat="47.402922" lon="7.717061">
        <ele>665.543556</ele>
        <time>2021-11-20T09:45:42.838Z</time>
      </trkpt>
      <trkpt lat="47.402973" lon="7.717016">
        <ele>664.982512</ele>
        <time>2021-11-20T09:45:43.372Z</time>
      </trkpt>
      <trkpt lat="47.403375" lon="7.716661">
        <ele>662.035215</ele>
        <time>2021-11-20T09:45:47.513Z</time>
      </trkpt>
      <trkpt lat="47.403735" lon="7.716427">
        <ele>659.560128</ele>
        <time>2021-11-20T09:45:51.085Z</time>
      </trkpt>
      <trkpt lat="47.403899" lon="7.716467">
        <ele>658.514083</ele>
        <time>2021-11-20T09:45:52.601Z</time>
      </trkpt>
      <trkpt lat="47.404466" lon="7.716800">
        <ele>654.674301</ele>
        <time>2021-11-20T09:45:58.324Z</time>
      </trkpt>
      <trkpt lat="47.404768" lon="7.716683">
        <ele>652.980453</ele>
        <time>2021-11-20T09:46:01.328Z</time>
      </trkpt>
      <trkpt lat="47.404908" lon="7.716574">
        <ele>652.232268</ele>
        <time>2021-11-20T09:46:02.806Z</time>
      </trkpt>
      <trkpt lat="47.404958" lon="7.716510">
        <ele>651.919499</ele>
        <time>2021-11-20T09:46:03.501Z</time>
      </trkpt>
      <trkpt lat="47.405001" lon="7.716441">
        <ele>651.619363</ele>
        <time>2021-11-20T09:46:04.128Z</time>
      </trkpt>
      <trkpt lat="47.405052" lon="7.716347">
        <ele>651.233854</ele>
        <time>2021-11-20T09:46:04.967Z</time>
      </trkpt>
      <trkpt lat="47.405088" lon="7.716251">
        <ele>650.882661</ele>
        <time>2021-11-20T09:46:05.660Z</time>
      </trkpt>
      <trkpt lat="47.405319" lon="7.715802">
        <ele>649.077925</ele>
        <time>2021-11-20T09:46:09.343Z</time>
      </trkpt>
      <trkpt lat="47.405811" lon="7.715221">
        <ele>646.100121</ele>
        <time>2021-11-20T09:46:15.388Z</time>
      </trkpt>
      <trkpt lat="47.406028" lon="7.715086">
        <ele>644.925161</ele>
        <time>2021-11-20T09:46:17.533Z</time>
      </trkpt>
      <trkpt lat="47.406312" lon="7.715069">
        <ele>643.311891</ele>
        <time>2021-11-20T09:46:20.158Z</time>
      </trkpt>
      <trkpt lat="47.407105" lon="7.715405">
        <ele>638.629517</ele>
        <time>2021-11-20T09:46:27.771Z</time>
      </trkpt>
      <trkpt lat="47.407298" lon="7.715574">
        <ele>637.356159</ele>
        <time>2021-11-20T09:46:29.809Z</time>
      </trkpt>
      <trkpt lat="47.407499" lon="7.715701">
        <ele>636.115379</ele>
        <time>2021-11-20T09:46:31.841Z</time>
      </trkpt>
      <trkpt lat="47.408108" lon="7.715654">
        <ele>633.145041</ele>
        <time>2021-11-20T09:46:37.548Z</time>
      </trkpt>
      <trkpt lat="47.408635" lon="7.715377">
        <ele>630.611171</ele>
        <time>2021-11-20T09:46:42.691Z</time>
      </trkpt>
      <trkpt lat="47.409587" lon="7.715532">
        <ele>626.704796</ele>
        <time>2021-11-20T09:46:52.329Z</time>
      </trkpt>
      <trkpt lat="47.409743" lon="7.715520">
        <ele>626.456692</ele>
        <time>2021-11-20T09:46:53.924Z</time>
      </trkpt>
      <trkpt lat="47.409871" lon="7.715501">
        <ele>626.252371</ele>
        <time>2021-11-20T09:46:55.296Z</time>
      </trkpt>
      <trkpt lat="47.410085" lon="7.715514">
        <ele>625.912197</ele>
        <time>2021-11-20T09:46:57.628Z</time>
      </trkpt>
      <trkpt lat="47.410705" lon="7.716187">
        <ele>624.690338</ele>
        <time>2021-11-20T09:47:06.488Z</time>
      </trkpt>
      <trkpt lat="47.411207" lon="7.716425">
        <ele>624.101645</ele>
        <time>2021-11-20T09:47:13.755Z</time>
      </trkpt>
      <trkpt lat="47.411846" lon="7.716434">
        <ele>624.191181</ele>
        <time>2021-11-20T09:47:25.436Z</time>
      </trkpt>
      <trkpt lat="47.412328" lon="7.716240">
        <ele>624.261176</ele>
        <time>2021-11-20T09:47:33.497Z</time>
      </trkpt>
      <trkpt lat="47.412450" lon="7.716184">
        <ele>624.279075</ele>
        <time>2021-11-20T09:47:35.873Z</time>
      </trkpt>
      <trkpt lat="47.412590" lon="7.716158">
        <ele>624.298845</ele>
        <time>2021-11-20T09:47:37.595Z</time>
      </trkpt>
      <trkpt lat="47.412775" lon="7.716147">
        <ele>624.324787</ele>
        <time>2021-11-20T09:47:40.424Z</time>
      </trkpt>
      <trkpt lat="47.413048" lon="7.716235">
        <ele>624.198719</ele>
        <time>2021-11-20T09:47:43.973Z</time>
      </trkpt>
      <trkpt lat="47.413270" lon="7.716315">
        <ele>624.056938</ele>
        <time>2021-11-20T09:47:47.143Z</time>
      </trkpt>
      <trkpt lat="47.413449" lon="7.716393">
        <ele>623.941147</ele>
        <time>2021-11-20T09:47:49.639Z</time>
      </trkpt>
      <trkpt lat="47.413541" lon="7.716468">
        <ele>623.875954</ele>
        <time>2021-11-20T09:47:51.274Z</time>
      </trkpt>
      <trkpt lat="47.413639" lon="7.716577">
        <ele>623.799849</ele>
        <time>2021-11-20T09:47:52.772Z</time>
      </trkpt>
      <trkpt lat="47.413716" lon="7.716691">
        <ele>623.732221</ele>
        <time>2021-11-20T09:47:54.250Z</time>
      </trkpt>
      <trkpt lat="47.413814" lon="7.716811">
        <ele>623.653253</ele>
        <time>2021-11-20T09:47:56.204Z</time>
      </trkpt>
      <trkpt lat="47.414031" lon="7.716993">
        <ele>623.498438</ele>
        <time>2021-11-20T09:47:59.380Z</time>
      </trkpt>
      <trkpt lat="47.414303" lon="7.717157">
        <ele>623.316164</ele>
        <time>2021-11-20T09:48:03.690Z</time>
      </trkpt>
      <trkpt lat="47.414393" lon="7.717200">
        <ele>623.257475</ele>
        <time>2021-11-20T09:48:04.713Z</time>
      </trkpt>
      <trkpt lat="47.414485" lon="7.717229">
        <ele>623.155228</ele>
        <time>2021-11-20T09:48:05.705Z</time>
      </trkpt>
      <trkpt lat="47.414805" lon="7.717262">
        <ele>622.481357</ele>
        <time>2021-11-20T09:48:09.386Z</time>
      </trkpt>
      <trkpt lat="47.415202" lon="7.717240">
        <ele>621.646777</ele>
        <time>2021-11-20T09:48:13.704Z</time>
      </trkpt>
      <trkpt lat="47.415371" lon="7.717232">
        <ele>621.291570</ele>
        <time>2021-11-20T09:48:16.063Z</time>
      </trkpt>
      <trkpt lat="47.415787" lon="7.717202">
        <ele>620.416622</ele>
        <time>2021-11-20T09:48:20.532Z</time>
      </trkpt>
      <trkpt lat="47.415827" lon="7.717218">
        <ele>620.329569</ele>
        <time>2021-11-20T09:48:20.942Z</time>
      </trkpt>
      <trkpt lat="47.415827" lon="7.717218">
        <ele>620.329569</ele>
        <time>2021-11-20T09:48:20.955Z</time>
      </trkpt>
      <trkpt lat="47.415847" lon="7.717272">
        <ele>620.242061</ele>
        <time>2021-11-20T09:48:21.327Z</time>
      </trkpt>
      <trkpt lat="47.415876" lon="7.717480">
        <ele>619.940176</ele>
        <time>2021-11-20T09:48:23.154Z</time>
      </trkpt>
      <trkpt lat="47.415781" lon="7.718098">
        <ele>618.461158</ele>
        <time>2021-11-20T09:48:27.709Z</time>
      </trkpt>
      <trkpt lat="47.415736" lon="7.718322">
        <ele>617.648588</ele>
        <time>2021-11-20T09:48:29.160Z</time>
      </trkpt>
      <trkpt lat="47.415610" lon="7.718731">
        <ele>616.085813</ele>
        <time>2021-11-20T09:48:32.324Z</time>
      </trkpt>
      <trkpt lat="47.415529" lon="7.718844">
        <ele>615.513361</ele>
        <time>2021-11-20T09:48:33.317Z</time>
      </trkpt>
      <trkpt lat="47.415445" lon="7.718932">
        <ele>614.984206</ele>
        <time>2021-11-20T09:48:34.371Z</time>
      </trkpt>
      <trkpt lat="47.415333" lon="7.718977">
        <ele>614.387727</ele>
        <time>2021-11-20T09:48:35.441Z</time>
      </trkpt>
      <trkpt lat="47.415257" lon="7.718964">
        <ele>613.994544</ele>
        <time>2021-11-20T09:48:36.089Z</time>
      </trkpt>
      <trkpt lat="47.415144" lon="7.718946">
        <ele>613.410456</ele>
        <time>2021-11-20T09:48:37.192Z</time>
      </trkpt>
      <trkpt lat="47.415085" lon="7.718916">
        <ele>613.089800</ele>
        <time>2021-11-20T09:48:37.802Z</time>
      </trkpt>
      <trkpt lat="47.414906" lon="7.718825">
        <ele>612.116981</ele>
        <time>2021-11-20T09:48:39.514Z</time>
      </trkpt>
      <trkpt lat="47.414817" lon="7.718789">
        <ele>611.642772</ele>
        <time>2021-11-20T09:48:40.324Z</time>
      </trkpt>
      <trkpt lat="47.414722" lon="7.718777">
        <ele>611.152773</ele>
        <time>2021-11-20T09:48:41.249Z</time>
      </trkpt>
      <trkpt lat="47.414615" lon="7.718802">
        <ele>610.596053</ele>
        <time>2021-11-20T09:48:42.214Z</time>
      </trkpt>
      <trkpt lat="47.414393" lon="7.718916">
        <ele>609.073080</ele>
        <time>2021-11-20T09:48:44.320Z</time>
      </trkpt>
      <trkpt lat="47.414319" lon="7.718972">
        <ele>608.479014</ele>
        <time>2021-11-20T09:48:45.082Z</time>
      </trkpt>
      <trkpt lat="47.414280" lon="7.719030">
        <ele>608.083654</ele>
        <time>2021-11-20T09:48:45.593Z</time>
      </trkpt>
      <trkpt lat="47.413956" lon="7.719514">
        <ele>604.791719</ele>
        <time>2021-11-20T09:48:49.737Z</time>
      </trkpt>
      <trkpt lat="47.413641" lon="7.719745">
        <ele>602.278982</ele>
        <time>2021-11-20T09:48:52.901Z</time>
      </trkpt>
      <trkpt lat="47.413623" lon="7.719760">
        <ele>602.131322</ele>
        <time>2021-11-20T09:48:53.068Z</time>
      </trkpt>
      <trkpt lat="47.413400" lon="7.719986">
        <ele>600.199157</ele>
        <time>2021-11-20T09:48:55.519Z</time>
      </trkpt>
      <trkpt lat="47.413147" lon="7.720298">
        <ele>597.844550</ele>
        <time>2021-11-20T09:48:58.445Z</time>
      </trkpt>
      <trkpt lat="47.413072" lon="7.720391">
        <ele>597.138193</ele>
        <time>2021-11-20T09:48:59.326Z</time>
      </trkpt>
      <trkpt lat="47.412537" lon="7.721090">
        <ele>591.861339</ele>
        <time>2021-11-20T09:49:05.673Z</time>
      </trkpt>
      <trkpt lat="47.411868" lon="7.721955">
        <ele>585.292748</ele>
        <time>2021-11-20T09:49:13.646Z</time>
      </trkpt>
      <trkpt lat="47.411523" lon="7.722389">
        <ele>581.917078</ele>
        <time>2021-11-20T09:49:17.674Z</time>
      </trkpt>
      <trkpt lat="47.411468" lon="7.722450">
        <ele>581.402248</ele>
        <time>2021-11-20T09:49:18.252Z</time>
      </trkpt>
      <trkpt lat="47.410942" lon="7.722960">
        <ele>576.692370</ele>
        <time>2021-11-20T09:49:23.901Z</time>
      </trkpt>
      <trkpt lat="47.410504" lon="7.723297">
        <ele>572.995432</ele>
        <time>2021-11-20T09:49:28.228Z</time>
      </trkpt>
      <trkpt lat="47.410297" lon="7.723445">
        <ele>571.273866</ele>
        <time>2021-11-20T09:49:30.304Z</time>
      </trkpt>
      <trkpt lat="47.410158" lon="7.723603">
        <ele>570.235329</ele>
        <time>2021-11-20T09:49:31.854Z</time>
      </trkpt>
      <trkpt lat="47.410084" lon="7.723825">
        <ele>569.530793</ele>
        <time>2021-11-20T09:49:33.382Z</time>
      </trkpt>
      <trkpt lat="47.410159" lon="7.724686">
        <ele>567.059329</ele>
        <time>2021-11-20T09:49:38.864Z</time>
      </trkpt>
      <trkpt lat="47.410222" lon="7.725091">
        <ele>565.876239</ele>
        <time>2021-11-20T09:49:41.490Z</time>
      </trkpt>
      <trkpt lat="47.409904" lon="7.725438">
        <ele>564.213230</ele>
        <time>2021-11-20T09:49:45.429Z</time>
      </trkpt>
      <trkpt lat="47.409681" lon="7.725726">
        <ele>563.079731</ele>
        <time>2021-11-20T09:49:48.810Z</time>
      </trkpt>
      <trkpt lat="47.409665" lon="7.725810">
        <ele>563.355094</ele>
        <time>2021-11-20T09:49:50.424Z</time>
      </trkpt>
      <trkpt lat="47.409674" lon="7.725959">
        <ele>563.827135</ele>
        <time>2021-11-20T09:49:51.933Z</time>
      </trkpt>
      <trkpt lat="47.409745" lon="7.726185">
        <ele>564.613377</ele>
        <time>2021-11-20T09:49:54.916Z</time>
      </trkpt>
      <trkpt lat="47.409835" lon="7.726335">
        <ele>565.245945</ele>
        <time>2021-11-20T09:49:58.993Z</time>
      </trkpt>
      <trkpt lat="47.409928" lon="7.726491">
        <ele>565.901962</ele>
        <time>2021-11-20T09:50:01.322Z</time>
      </trkpt>
      <trkpt lat="47.410341" lon="7.727029">
        <ele>568.469141</ele>
        <time>2021-11-20T09:50:21.985Z</time>
      </trkpt>
      <trkpt lat="47.410433" lon="7.727222">
        <ele>569.214062</ele>
        <time>2021-11-20T09:50:27.396Z</time>
      </trkpt>
      <trkpt lat="47.410633" lon="7.727433">
        <ele>570.359898</ele>
        <time>2021-11-20T09:50:39.466Z</time>
      </trkpt>
      <trkpt lat="47.411980" lon="7.727916">
        <ele>581.528380</ele>
        <time>2021-11-20T09:51:54.328Z</time>
      </trkpt>
      <trkpt lat="47.412866" lon="7.728378">
        <ele>588.428475</ele>
        <time>2021-11-20T09:52:38.121Z</time>
      </trkpt>
      <trkpt lat="47.413257" lon="7.728265">
        <ele>590.204277</ele>
        <time>2021-11-20T09:52:50.957Z</time>
      </trkpt>
      <trkpt lat="47.413487" lon="7.728281">
        <ele>591.230580</ele>
        <time>2021-11-20T09:52:57.948Z</time>
      </trkpt>
      <trkpt lat="47.413639" lon="7.728378">
        <ele>591.968556</ele>
        <time>2021-11-20T09:53:02.082Z</time>
      </trkpt>
      <trkpt lat="47.414190" lon="7.729343">
        <ele>595.850946</ele>
        <time>2021-11-20T09:53:25.142Z</time>
      </trkpt>
      <trkpt lat="47.414363" lon="7.729590">
        <ele>597.040041</ele>
        <time>2021-11-20T09:53:30.754Z</time>
      </trkpt>
      <trkpt lat="47.414811" lon="7.730279">
        <ele>600.236259</ele>
        <time>2021-11-20T09:53:52.815Z</time>
      </trkpt>
      <trkpt lat="47.415214" lon="7.731235">
        <ele>604.003451</ele>
        <time>2021-11-20T09:54:25.088Z</time>
      </trkpt>
      <trkpt lat="47.415379" lon="7.731628">
        <ele>605.516177</ele>
        <time>2021-11-20T09:54:34.877Z</time>
      </trkpt>
      <trkpt lat="47.415699" lon="7.732640">
        <ele>609.169734</ele>
        <time>2021-11-20T09:55:05.095Z</time>
      </trkpt>
      <trkpt lat="47.415747" lon="7.732955">
        <ele>610.225816</ele>
        <time>2021-11-20T09:55:08.311Z</time>
      </trkpt>
      <trkpt lat="47.415711" lon="7.733165">
        <ele>610.934369</ele>
        <time>2021-11-20T09:55:18.809Z</time>
      </trkpt>
      <trkpt lat="47.415642" lon="7.733408">
        <ele>611.796299</ele>
        <time>2021-11-20T09:55:20.622Z</time>
      </trkpt>
      <trkpt lat="47.415406" lon="7.734683">
        <ele>612.603886</ele>
        <time>2021-11-20T09:55:46.710Z</time>
      </trkpt>
      <trkpt lat="47.415350" lon="7.735697">
        <ele>612.527722</ele>
        <time>2021-11-20T09:55:53.815Z</time>
      </trkpt>
      <trkpt lat="47.415390" lon="7.736852">
        <ele>611.036493</ele>
        <time>2021-11-20T09:56:02.885Z</time>
      </trkpt>
      <trkpt lat="47.415325" lon="7.737688">
        <ele>608.887743</ele>
        <time>2021-11-20T09:56:08.274Z</time>
      </trkpt>
      <trkpt lat="47.415337" lon="7.739277">
        <ele>605.114317</ele>
        <time>2021-11-20T09:56:18.608Z</time>
      </trkpt>
      <trkpt lat="47.415295" lon="7.739537">
        <ele>604.655760</ele>
        <time>2021-11-20T09:56:20.362Z</time>
      </trkpt>
      <trkpt lat="47.415497" lon="7.739267">
        <ele>603.965267</ele>
        <time>2021-11-20T09:56:26.410Z</time>
      </trkpt>
      <trkpt lat="47.415865" lon="7.738510">
        <ele>602.366284</ele>
        <time>2021-11-20T09:56:40.934Z</time>
      </trkpt>
      <trkpt lat="47.416109" lon="7.737885">
        <ele>601.126829</ele>
        <time>2021-11-20T09:56:51.981Z</time>
      </trkpt>
      <trkpt lat="47.416486" lon="7.737163">
        <ele>599.240633</ele>
        <time>2021-11-20T09:57:06.794Z</time>
      </trkpt>
      <trkpt lat="47.416676" lon="7.737017">
        <ele>598.586076</ele>
        <time>2021-11-20T09:57:11.555Z</time>
      </trkpt>
      <trkpt lat="47.416984" lon="7.736846">
        <ele>597.580419</ele>
        <time>2021-11-20T09:57:18.626Z</time>
      </trkpt>
      <trkpt lat="47.417518" lon="7.736510">
        <ele>595.806446</ele>
        <time>2021-11-20T09:57:30.488Z</time>
      </trkpt>
      <trkpt lat="47.417807" lon="7.736460">
        <ele>593.890576</ele>
        <time>2021-11-20T09:57:36.144Z</time>
      </trkpt>
      <trkpt lat="47.418779" lon="7.736523">
        <ele>586.687523</ele>
        <time>2021-11-20T09:57:54.209Z</time>
      </trkpt>
      <trkpt lat="47.419802" lon="7.736343">
        <ele>577.269655</ele>
        <time>2021-11-20T09:58:12.468Z</time>
      </trkpt>
      <trkpt lat="47.420861" lon="7.736378">
        <ele>565.123030</ele>
        <time>2021-11-20T09:58:30.567Z</time>
      </trkpt>
      <trkpt lat="47.421296" lon="7.736285">
        <ele>560.149068</ele>
        <time>2021-11-20T09:58:38.007Z</time>
      </trkpt>
      <trkpt lat="47.421691" lon="7.736142">
        <ele>555.676639</ele>
        <time>2021-11-20T09:58:44.988Z</time>
      </trkpt>
      <trkpt lat="47.421704" lon="7.736083">
        <ele>555.214935</ele>
        <time>2021-11-20T09:58:45.718Z</time>
      </trkpt>
      <trkpt lat="47.421784" lon="7.735744">
        <ele>552.543452</ele>
        <time>2021-11-20T09:58:49.914Z</time>
      </trkpt>
      <trkpt lat="47.421844" lon="7.735301">
        <ele>549.181758</ele>
        <time>2021-11-20T09:58:55.270Z</time>
      </trkpt>
      <trkpt lat="47.422293" lon="7.735294">
        <ele>544.243608</ele>
        <time>2021-11-20T09:59:34.407Z</time>
      </trkpt>
      <trkpt lat="47.422388" lon="7.735288">
        <ele>543.197893</ele>
        <time>2021-11-20T09:59:42.786Z</time>
      </trkpt>
      <trkpt lat="47.422500" lon="7.735210">
        <ele>541.851343</ele>
        <time>2021-11-20T09:59:53.637Z</time>
      </trkpt>
      <trkpt lat="47.422671" lon="7.735019">
        <ele>539.933586</ele>
        <time>2021-11-20T10:00:12.797Z</time>
      </trkpt>
      <trkpt lat="47.422710" lon="7.734975">
        <ele>539.494597</ele>
        <time>2021-11-20T10:00:17.177Z</time>
      </trkpt>
      <trkpt lat="47.423061" lon="7.734488">
        <ele>535.187138</ele>
        <time>2021-11-20T10:01:01.355Z</time>
      </trkpt>
      <trkpt lat="47.423099" lon="7.734398">
        <ele>534.544930</ele>
        <time>2021-11-20T10:01:07.812Z</time>
      </trkpt>
      <trkpt lat="47.423325" lon="7.734550">
        <ele>532.323319</ele>
        <time>2021-11-20T10:01:29.973Z</time>
      </trkpt>
      <trkpt lat="47.423544" lon="7.734715">
        <ele>530.123958</ele>
        <time>2021-11-20T10:01:52.371Z</time>
      </trkpt>
      <trkpt lat="47.424230" lon="7.735230">
        <ele>523.148683</ele>
        <time>2021-11-20T10:03:01.356Z</time>
      </trkpt>
      <trkpt lat="47.424417" lon="7.735484">
        <ele>520.796278</ele>
        <time>2021-11-20T10:03:23.807Z</time>
      </trkpt>
      <trkpt lat="47.424571" lon="7.735725">
        <ele>518.718869</ele>
        <time>2021-11-20T10:03:43.349Z</time>
      </trkpt>
      <trkpt lat="47.424739" lon="7.735943">
        <ele>516.648170</ele>
        <time>2021-11-20T10:04:03.615Z</time>
      </trkpt>
      <trkpt lat="47.425774" lon="7.736576">
        <ele>507.113516</ele>
        <time>2021-11-20T10:05:43.476Z</time>
      </trkpt>
      <trkpt lat="47.425997" lon="7.736650">
        <ele>505.611956</ele>
        <time>2021-11-20T10:06:04.141Z</time>
      </trkpt>
      <trkpt lat="47.427900" lon="7.737015">
        <ele>495.233909</ele>
        <time>2021-11-20T10:09:07.920Z</time>
      </trkpt>
      <trkpt lat="47.428115" lon="7.736897">
        <ele>494.500697</ele>
        <time>2021-11-20T10:09:32.310Z</time>
      </trkpt>
      <trkpt lat="47.428150" lon="7.736813">
        <ele>494.287325</ele>
        <time>2021-11-20T10:09:38.702Z</time>
      </trkpt>
      <trkpt lat="47.428190" lon="7.736356">
        <ele>493.290672</ele>
        <time>2021-11-20T10:10:12.390Z</time>
      </trkpt>
      <trkpt lat="47.428103" lon="7.735428">
        <ele>490.894631</ele>
        <time>2021-11-20T10:11:20.523Z</time>
      </trkpt>
      <trkpt lat="47.428191" lon="7.734968">
        <ele>488.710304</ele>
        <time>2021-11-20T10:11:52.147Z</time>
      </trkpt>
      <trkpt lat="47.428615" lon="7.733879">
        <ele>482.969048</ele>
        <time>2021-11-20T10:13:12.497Z</time>
      </trkpt>
      <trkpt lat="47.428833" lon="7.733579">
        <ele>480.957302</ele>
        <time>2021-11-20T10:13:38.982Z</time>
      </trkpt>
      <trkpt lat="47.429069" lon="7.733252">
        <ele>477.894073</ele>
        <time>2021-11-20T10:14:07.114Z</time>
      </trkpt>
      <trkpt lat="47.429362" lon="7.732853">
        <ele>471.705108</ele>
        <time>2021-11-20T10:14:41.006Z</time>
      </trkpt>
      <trkpt lat="47.429959" lon="7.732498">
        <ele>461.708262</ele>
        <time>2021-11-20T10:15:33.605Z</time>
      </trkpt>
      <trkpt lat="47.430224" lon="7.731858">
        <ele>453.822318</ele>
        <time>2021-11-20T10:16:14.712Z</time>
      </trkpt>
      <trkpt lat="47.430584" lon="7.731172">
        <ele>445.153018</ele>
        <time>2021-11-20T10:17:02.517Z</time>
      </trkpt>
      <trkpt lat="47.430842" lon="7.730733">
        <ele>439.450073</ele>
        <time>2021-11-20T10:17:35.042Z</time>
      </trkpt>
      <trkpt lat="47.430854" lon="7.730687">
        <ele>438.966581</ele>
        <time>2021-11-20T10:17:37.843Z</time>
      </trkpt>
      <trkpt lat="47.430965" lon="7.730504">
        <ele>436.556170</ele>
        <time>2021-11-20T10:17:51.754Z</time>
      </trkpt>
      <trkpt lat="47.431272" lon="7.730133">
        <ele>430.807749</ele>
        <time>2021-11-20T10:18:25.258Z</time>
      </trkpt>
      <trkpt lat="47.431302" lon="7.730041">
        <ele>429.806182</ele>
        <time>2021-11-20T10:18:30.954Z</time>
      </trkpt>
      <trkpt lat="47.431421" lon="7.730117">
        <ele>427.926948</ele>
        <time>2021-11-20T10:18:32.041Z</time>
      </trkpt>
      <trkpt lat="47.431765" lon="7.730246">
        <ele>424.241659</ele>
        <time>2021-11-20T10:18:35.064Z</time>
      </trkpt>
      <trkpt lat="47.432069" lon="7.730253">
        <ele>422.262519</ele>
        <time>2021-11-20T10:18:37.711Z</time>
      </trkpt>
      <trkpt lat="47.433187" lon="7.730043">
        <ele>414.926340</ele>
        <time>2021-11-20T10:18:48.233Z</time>
      </trkpt>
      <trkpt lat="47.433636" lon="7.729886">
        <ele>413.086315</ele>
        <time>2021-11-20T10:18:53.089Z</time>
      </trkpt>
      <trkpt lat="47.434474" lon="7.729332">
        <ele>410.973084</ele>
        <time>2021-11-20T10:19:03.117Z</time>
      </trkpt>
      <trkpt lat="47.436101" lon="7.727930">
        <ele>408.117525</ele>
        <time>2021-11-20T10:19:24.108Z</time>
      </trkpt>
      <trkpt lat="47.436508" lon="7.727625">
        <ele>407.594976</ele>
        <time>2021-11-20T10:19:30.406Z</time>
      </trkpt>
      <trkpt lat="47.436769" lon="7.727452">
        <ele>407.732754</ele>
        <time>2021-11-20T10:19:35.076Z</time>
      </trkpt>
      <trkpt lat="47.437400" lon="7.726969">
        <ele>408.403482</ele>
        <time>2021-11-20T10:19:51.786Z</time>
      </trkpt>
      <trkpt lat="47.437559" lon="7.727278">
        <ele>408.651372</ele>
        <time>2021-11-20T10:19:58.666Z</time>
      </trkpt>
      <trkpt lat="47.438029" lon="7.727947">
        <ele>409.035379</ele>
        <time>2021-11-20T10:20:08.816Z</time>
      </trkpt>
      <trkpt lat="47.438277" lon="7.728199">
        <ele>407.915523</ele>
        <time>2021-11-20T10:20:12.188Z</time>
      </trkpt>
      <trkpt lat="47.438420" lon="7.728330">
        <ele>407.289493</ele>
        <time>2021-11-20T10:20:15.873Z</time>
      </trkpt>
      <trkpt lat="47.438560" lon="7.728448">
        <ele>406.689787</ele>
        <time>2021-11-20T10:20:17.422Z</time>
      </trkpt>
      <trkpt lat="47.438996" lon="7.728816">
        <ele>404.821492</ele>
        <time>2021-11-20T10:20:22.637Z</time>
      </trkpt>
      <trkpt lat="47.440436" lon="7.730051">
        <ele>395.934270</ele>
        <time>2021-11-20T10:20:37.437Z</time>
      </trkpt>
      <trkpt lat="47.440666" lon="7.730243">
        <ele>394.272943</ele>
        <time>2021-11-20T10:20:39.841Z</time>
      </trkpt>
      <trkpt lat="47.441594" lon="7.731080">
        <ele>389.698196</ele>
        <time>2021-11-20T10:20:50.457Z</time>
      </trkpt>
      <trkpt lat="47.441706" lon="7.731181">
        <ele>389.367199</ele>
        <time>2021-11-20T10:20:51.950Z</time>
      </trkpt>
      <trkpt lat="47.442994" lon="7.732397">
        <ele>385.762417</ele>
        <time>2021-11-20T10:21:09.412Z</time>
      </trkpt>
      <trkpt lat="47.443020" lon="7.732425">
        <ele>385.698754</ele>
        <time>2021-11-20T10:21:09.679Z</time>
      </trkpt>
      <trkpt lat="47.443230" lon="7.732639">
        <ele>385.193958</ele>
        <time>2021-11-20T10:21:12.825Z</time>
      </trkpt>
      <trkpt lat="47.443386" lon="7.732819">
        <ele>384.802307</ele>
        <time>2021-11-20T10:21:14.896Z</time>
      </trkpt>
      <trkpt lat="47.443761" lon="7.733253">
        <ele>383.859762</ele>
        <time>2021-11-20T10:21:20.171Z</time>
      </trkpt>
      <trkpt lat="47.443863" lon="7.733374">
        <ele>383.600935</ele>
        <time>2021-11-20T10:21:21.564Z</time>
      </trkpt>
      <trkpt lat="47.443910" lon="7.733430">
        <ele>383.481467</ele>
        <time>2021-11-20T10:21:22.146Z</time>
      </trkpt>
      <trkpt lat="47.444242" lon="7.733828">
        <ele>382.607822</ele>
        <time>2021-11-20T10:21:26.778Z</time>
      </trkpt>
      <trkpt lat="47.444384" lon="7.733998">
        <ele>382.225332</ele>
        <time>2021-11-20T10:21:28.817Z</time>
      </trkpt>
      <trkpt lat="47.444690" lon="7.734364">
        <ele>381.401397</ele>
        <time>2021-11-20T10:21:33.247Z</time>
      </trkpt>
      <trkpt lat="47.444778" lon="7.734464">
        <ele>381.169055</ele>
        <time>2021-11-20T10:21:34.536Z</time>
      </trkpt>
      <trkpt lat="47.444952" lon="7.734628">
        <ele>380.737088</ele>
        <time>2021-11-20T10:21:36.739Z</time>
      </trkpt>
      <trkpt lat="47.445206" lon="7.734772">
        <ele>380.167611</ele>
        <time>2021-11-20T10:21:39.672Z</time>
      </trkpt>
      <trkpt lat="47.445351" lon="7.734812">
        <ele>379.858826</ele>
        <time>2021-11-20T10:21:41.210Z</time>
      </trkpt>
      <trkpt lat="47.445493" lon="7.734890">
        <ele>379.541709</ele>
        <time>2021-11-20T10:21:42.867Z</time>
      </trkpt>
      <trkpt lat="47.445550" lon="7.734931">
        <ele>379.409014</ele>
        <time>2021-11-20T10:21:43.550Z</time>
      </trkpt>
      <trkpt lat="47.445610" lon="7.734982">
        <ele>379.263231</ele>
        <time>2021-11-20T10:21:44.264Z</time>
      </trkpt>
      <trkpt lat="47.445804" lon="7.735171">
        <ele>378.771789</ele>
        <time>2021-11-20T10:21:46.786Z</time>
      </trkpt>
      <trkpt lat="47.446093" lon="7.735404">
        <ele>378.075487</ele>
        <time>2021-11-20T10:21:50.324Z</time>
      </trkpt>
      <trkpt lat="47.446470" lon="7.735676">
        <ele>377.188135</ele>
        <time>2021-11-20T10:21:54.866Z</time>
      </trkpt>
      <trkpt lat="47.447048" lon="7.735793">
        <ele>375.954062</ele>
        <time>2021-11-20T10:22:01.340Z</time>
      </trkpt>
      <trkpt lat="47.447629" lon="7.735983">
        <ele>374.831962</ele>
        <time>2021-11-20T10:22:07.918Z</time>
      </trkpt>
      <trkpt lat="47.447927" lon="7.736077">
        <ele>374.290976</ele>
        <time>2021-11-20T10:22:11.295Z</time>
      </trkpt>
      <trkpt lat="47.448235" lon="7.736115">
        <ele>373.742238</ele>
        <time>2021-11-20T10:22:14.811Z</time>
      </trkpt>
      <trkpt lat="47.448379" lon="7.736094">
        <ele>373.485334</ele>
        <time>2021-11-20T10:22:16.327Z</time>
      </trkpt>
      <trkpt lat="47.448554" lon="7.736059">
        <ele>373.171802</ele>
        <time>2021-11-20T10:22:18.463Z</time>
      </trkpt>
      <trkpt lat="47.448658" lon="7.736045">
        <ele>372.986392</ele>
        <time>2021-11-20T10:22:19.555Z</time>
      </trkpt>
      <trkpt lat="47.448771" lon="7.736054">
        <ele>372.785476</ele>
        <time>2021-11-20T10:22:20.816Z</time>
      </trkpt>
      <trkpt lat="47.448896" lon="7.736079">
        <ele>372.561524</ele>
        <time>2021-11-20T10:22:22.359Z</time>
      </trkpt>
      <trkpt lat="47.449072" lon="7.736131">
        <ele>372.260971</ele>
        <time>2021-11-20T10:22:24.277Z</time>
      </trkpt>
      <trkpt lat="47.449300" lon="7.736166">
        <ele>371.921400</ele>
        <time>2021-11-20T10:22:27.169Z</time>
      </trkpt>
      <trkpt lat="47.449358" lon="7.736158">
        <ele>371.835107</ele>
        <time>2021-11-20T10:22:27.782Z</time>
      </trkpt>
      <trkpt lat="47.449411" lon="7.736143">
        <ele>371.755169</ele>
        <time>2021-11-20T10:22:28.330Z</time>
      </trkpt>
      <trkpt lat="47.449636" lon="7.736014">
        <ele>371.397682</ele>
        <time>2021-11-20T10:22:31.391Z</time>
      </trkpt>
      <trkpt lat="47.449876" lon="7.735764">
        <ele>370.962798</ele>
        <time>2021-11-20T10:22:34.723Z</time>
      </trkpt>
      <trkpt lat="47.449999" lon="7.735674">
        <ele>370.759502</ele>
        <time>2021-11-20T10:22:36.246Z</time>
      </trkpt>
      <trkpt lat="47.450032" lon="7.735659">
        <ele>370.708359</ele>
        <time>2021-11-20T10:22:36.598Z</time>
      </trkpt>
      <trkpt lat="47.450096" lon="7.735633">
        <ele>370.610038</ele>
        <time>2021-11-20T10:22:37.338Z</time>
      </trkpt>
      <trkpt lat="47.450162" lon="7.735630">
        <ele>370.512220</ele>
        <time>2021-11-20T10:22:38.166Z</time>
      </trkpt>
      <trkpt lat="47.450235" lon="7.735644">
        <ele>370.403173</ele>
        <time>2021-11-20T10:22:39.050Z</time>
      </trkpt>
      <trkpt lat="47.450479" lon="7.735840">
        <ele>369.991831</ele>
        <time>2021-11-20T10:22:42.191Z</time>
      </trkpt>
      <trkpt lat="47.450546" lon="7.735968">
        <ele>369.829681</ele>
        <time>2021-11-20T10:22:43.554Z</time>
      </trkpt>
      <trkpt lat="47.450604" lon="7.736062">
        <ele>369.702208</ele>
        <time>2021-11-20T10:22:44.539Z</time>
      </trkpt>
      <trkpt lat="47.450657" lon="7.736137">
        <ele>369.604274</ele>
        <time>2021-11-20T10:22:45.314Z</time>
      </trkpt>
      <trkpt lat="47.450802" lon="7.736283">
        <ele>369.374041</ele>
        <time>2021-11-20T10:22:47.468Z</time>
      </trkpt>
      <trkpt lat="47.450937" lon="7.736418">
        <ele>369.160151</ele>
        <time>2021-11-20T10:22:49.543Z</time>
      </trkpt>
      <trkpt lat="47.451089" lon="7.736610">
        <ele>368.897788</ele>
        <time>2021-11-20T10:22:51.898Z</time>
      </trkpt>
      <trkpt lat="47.451187" lon="7.736763">
        <ele>368.710753</ele>
        <time>2021-11-20T10:22:53.664Z</time>
      </trkpt>
      <trkpt lat="47.451252" lon="7.736833">
        <ele>368.605219</ele>
        <time>2021-11-20T10:22:54.582Z</time>
      </trkpt>
      <trkpt lat="47.451333" lon="7.736889">
        <ele>368.487866</ele>
        <time>2021-11-20T10:22:55.626Z</time>
      </trkpt>
      <trkpt lat="47.451595" lon="7.736972">
        <ele>368.136201</ele>
        <time>2021-11-20T10:22:58.830Z</time>
      </trkpt>
      <trkpt lat="47.451812" lon="7.737022">
        <ele>367.847961</ele>
        <time>2021-11-20T10:23:01.422Z</time>
      </trkpt>
      <trkpt lat="47.451885" lon="7.737043">
        <ele>367.750355</ele>
        <time>2021-11-20T10:23:02.317Z</time>
      </trkpt>
      <trkpt lat="47.452015" lon="7.736899">
        <ele>367.537180</ele>
        <time>2021-11-20T10:23:04.140Z</time>
      </trkpt>
      <trkpt lat="47.452271" lon="7.736620">
        <ele>367.057266</ele>
        <time>2021-11-20T10:23:07.832Z</time>
      </trkpt>
      <trkpt lat="47.452433" lon="7.736548">
        <ele>366.768249</ele>
        <time>2021-11-20T10:23:09.788Z</time>
      </trkpt>
      <trkpt lat="47.452718" lon="7.736396">
        <ele>366.250610</ele>
        <time>2021-11-20T10:23:13.209Z</time>
      </trkpt>
      <trkpt lat="47.453006" lon="7.736239">
        <ele>365.726176</ele>
        <time>2021-11-20T10:23:16.682Z</time>
      </trkpt>
      <trkpt lat="47.453622" lon="7.735950">
        <ele>364.622009</ele>
        <time>2021-11-20T10:23:23.866Z</time>
      </trkpt>
      <trkpt lat="47.453883" lon="7.735834">
        <ele>364.158214</ele>
        <time>2021-11-20T10:23:26.867Z</time>
      </trkpt>
      <trkpt lat="47.454308" lon="7.735755">
        <ele>363.440181</ele>
        <time>2021-11-20T10:23:31.602Z</time>
      </trkpt>
      <trkpt lat="47.454885" lon="7.735630">
        <ele>362.462633</ele>
        <time>2021-11-20T10:23:38.157Z</time>
      </trkpt>
      <trkpt lat="47.455429" lon="7.735582">
        <ele>361.549104</ele>
        <time>2021-11-20T10:23:44.520Z</time>
      </trkpt>
      <trkpt lat="47.455549" lon="7.735588">
        <ele>361.347833</ele>
        <time>2021-11-20T10:23:45.929Z</time>
      </trkpt>
      <trkpt lat="47.455615" lon="7.735594">
        <ele>361.236992</ele>
        <time>2021-11-20T10:23:46.742Z</time>
      </trkpt>
      <trkpt lat="47.456176" lon="7.735679">
        <ele>360.293487</ele>
        <time>2021-11-20T10:23:53.146Z</time>
      </trkpt>
      <trkpt lat="47.456690" lon="7.735740">
        <ele>359.430765</ele>
        <time>2021-11-20T10:23:58.943Z</time>
      </trkpt>
      <trkpt lat="47.457063" lon="7.735820">
        <ele>358.800182</ele>
        <time>2021-11-20T10:24:03.197Z</time>
      </trkpt>
      <trkpt lat="47.457484" lon="7.735879">
        <ele>358.072632</ele>
        <time>2021-11-20T10:24:07.917Z</time>
      </trkpt>
      <trkpt lat="47.457758" lon="7.735918">
        <ele>357.544725</ele>
        <time>2021-11-20T10:24:10.959Z</time>
      </trkpt>
      <trkpt lat="47.457799" lon="7.735179">
        <ele>356.583249</ele>
        <time>2021-11-20T10:24:16.540Z</time>
      </trkpt>
      <trkpt lat="47.458298" lon="7.735177">
        <ele>355.626261</ele>
        <time>2021-11-20T10:24:21.925Z</time>
      </trkpt>
      <trkpt lat="47.458729" lon="7.735136">
        <ele>354.797979</ele>
        <time>2021-11-20T10:24:26.701Z</time>
      </trkpt>
      <trkpt lat="47.459171" lon="7.734384">
        <ele>353.668228</ele>
        <time>2021-11-20T10:24:34.452Z</time>
      </trkpt>
      <trkpt lat="47.459314" lon="7.734184">
        <ele>353.338855</ele>
        <time>2021-11-20T10:24:36.652Z</time>
      </trkpt>
      <trkpt lat="47.459335" lon="7.734155">
        <ele>353.290772</ele>
        <time>2021-11-20T10:24:36.971Z</time>
      </trkpt>
      <trkpt lat="47.459375" lon="7.734098">
        <ele>353.197815</ele>
        <time>2021-11-20T10:24:37.596Z</time>
      </trkpt>
      <trkpt lat="47.459533" lon="7.733882">
        <ele>352.837740</ele>
        <time>2021-11-20T10:24:40.015Z</time>
      </trkpt>
      <trkpt lat="47.459872" lon="7.733477">
        <ele>352.108444</ele>
        <time>2021-11-20T10:24:45.000Z</time>
      </trkpt>
      <trkpt lat="47.460742" lon="7.733028">
        <ele>350.447113</ele>
        <time>2021-11-20T10:24:55.394Z</time>
      </trkpt>
      <trkpt lat="47.461241" lon="7.732810">
        <ele>349.490076</ele>
        <time>2021-11-20T10:25:01.167Z</time>
      </trkpt>
      <trkpt lat="47.461727" lon="7.732633">
        <ele>348.569450</ele>
        <time>2021-11-20T10:25:06.630Z</time>
      </trkpt>
      <trkpt lat="47.462549" lon="7.732636">
        <ele>346.819225</ele>
        <time>2021-11-20T10:25:15.621Z</time>
      </trkpt>
      <trkpt lat="47.463439" lon="7.732609">
        <ele>344.904018</ele>
        <time>2021-11-20T10:25:25.204Z</time>
      </trkpt>
      <trkpt lat="47.464097" lon="7.732716">
        <ele>343.657072</ele>
        <time>2021-11-20T10:25:32.374Z</time>
      </trkpt>
      <trkpt lat="47.465398" lon="7.732895">
        <ele>341.316536</ele>
        <time>2021-11-20T10:25:47.076Z</time>
      </trkpt>
      <trkpt lat="47.466451" lon="7.733067">
        <ele>340.361340</ele>
        <time>2021-11-20T10:25:59.690Z</time>
      </trkpt>
      <trkpt lat="47.467031" lon="7.733067">
        <ele>339.838389</ele>
        <time>2021-11-20T10:26:07.307Z</time>
      </trkpt>
      <trkpt lat="47.468111" lon="7.733543">
        <ele>339.686527</ele>
        <time>2021-11-20T10:26:24.385Z</time>
      </trkpt>
      <trkpt lat="47.468168" lon="7.733547">
        <ele>339.684761</ele>
        <time>2021-11-20T10:26:24.969Z</time>
      </trkpt>
      <trkpt lat="47.468229" lon="7.733497">
        <ele>339.682602</ele>
        <time>2021-11-20T10:26:26.740Z</time>
      </trkpt>
      <trkpt lat="47.468421" lon="7.733200">
        <ele>339.674001</ele>
        <time>2021-11-20T10:26:30.290Z</time>
      </trkpt>
      <trkpt lat="47.468562" lon="7.733196">
        <ele>339.669635</ele>
        <time>2021-11-20T10:26:32.738Z</time>
      </trkpt>
      <trkpt lat="47.468620" lon="7.733218">
        <ele>339.667781</ele>
        <time>2021-11-20T10:26:34.401Z</time>
      </trkpt>
      <trkpt lat="47.468845" lon="7.733471">
        <ele>339.631887</ele>
        <time>2021-11-20T10:26:38.061Z</time>
      </trkpt>
      <trkpt lat="47.469087" lon="7.733776">
        <ele>339.516872</ele>
        <time>2021-11-20T10:26:43.032Z</time>
      </trkpt>
      <trkpt lat="47.469170" lon="7.733878">
        <ele>339.477835</ele>
        <time>2021-11-20T10:26:45.077Z</time>
      </trkpt>
      <trkpt lat="47.469549" lon="7.734424">
        <ele>339.286449</ele>
        <time>2021-11-20T10:26:52.636Z</time>
      </trkpt>
      <trkpt lat="47.470937" lon="7.735790">
        <ele>338.261890</ele>
        <time>2021-11-20T10:27:13.413Z</time>
      </trkpt>
      <trkpt lat="47.471007" lon="7.735877">
        <ele>338.186256</ele>
        <time>2021-11-20T10:27:14.629Z</time>
      </trkpt>
      <trkpt lat="47.471084" lon="7.736004">
        <ele>338.090852</ele>
        <time>2021-11-20T10:27:15.972Z</time>
      </trkpt>
      <trkpt lat="47.471200" lon="7.736140">
        <ele>337.968405</ele>
        <time>2021-11-20T10:27:17.941Z</time>
      </trkpt>
      <trkpt lat="47.471461" lon="7.736291">
        <ele>337.736558</ele>
        <time>2021-11-20T10:27:21.389Z</time>
      </trkpt>
      <trkpt lat="47.471811" lon="7.736488">
        <ele>337.492305</ele>
        <time>2021-11-20T10:27:26.007Z</time>
      </trkpt>
      <trkpt lat="47.473022" lon="7.737442">
        <ele>337.131325</ele>
        <time>2021-11-20T10:27:44.473Z</time>
      </trkpt>
      <trkpt lat="47.473306" lon="7.737636">
        <ele>337.049060</ele>
        <time>2021-11-20T10:27:49.707Z</time>
      </trkpt>
      <trkpt lat="47.473508" lon="7.737670">
        <ele>336.998868</ele>
        <time>2021-11-20T10:27:53.796Z</time>
      </trkpt>
      <trkpt lat="47.474657" lon="7.737686">
        <ele>336.715186</ele>
        <time>2021-11-20T10:28:11.685Z</time>
      </trkpt>
      <trkpt lat="47.474872" lon="7.737661">
        <ele>336.661943</ele>
        <time>2021-11-20T10:28:14.187Z</time>
      </trkpt>
      <trkpt lat="47.475220" lon="7.737599">
        <ele>336.308779</ele>
        <time>2021-11-20T10:28:18.275Z</time>
      </trkpt>
      <trkpt lat="47.475400" lon="7.737565">
        <ele>335.868138</ele>
        <time>2021-11-20T10:28:20.443Z</time>
      </trkpt>
      <trkpt lat="47.475490" lon="7.737890">
        <ele>335.291682</ele>
        <time>2021-11-20T10:28:24.086Z</time>
      </trkpt>
      <trkpt lat="47.475697" lon="7.738335">
        <ele>334.405053</ele>
        <time>2021-11-20T10:28:29.747Z</time>
      </trkpt>
      <trkpt lat="47.475811" lon="7.738591">
        <ele>333.901888</ele>
        <time>2021-11-20T10:28:32.903Z</time>
      </trkpt>
      <trkpt lat="47.476310" lon="7.738873">
        <ele>332.604782</ele>
        <time>2021-11-20T10:28:40.675Z</time>
      </trkpt>
      <trkpt lat="47.476800" lon="7.739141">
        <ele>331.392808</ele>
        <time>2021-11-20T10:28:48.089Z</time>
      </trkpt>
      <trkpt lat="47.477232" lon="7.739342">
        <ele>330.362148</ele>
        <time>2021-11-20T10:28:55.078Z</time>
      </trkpt>
      <trkpt lat="47.477544" lon="7.739487">
        <ele>329.617859</ele>
        <time>2021-11-20T10:29:00.440Z</time>
      </trkpt>
      <trkpt lat="47.478433" lon="7.739902">
        <ele>327.613516</ele>
        <time>2021-11-20T10:29:15.509Z</time>
      </trkpt>
      <trkpt lat="47.478734" lon="7.740055">
        <ele>327.020206</ele>
        <time>2021-11-20T10:29:20.447Z</time>
      </trkpt>
      <trkpt lat="47.478886" lon="7.740171">
        <ele>326.701378</ele>
        <time>2021-11-20T10:29:23.124Z</time>
      </trkpt>
      <trkpt lat="47.478976" lon="7.740230">
        <ele>326.517871</ele>
        <time>2021-11-20T10:29:24.275Z</time>
      </trkpt>
      <trkpt lat="47.479094" lon="7.740332">
        <ele>326.263108</ele>
        <time>2021-11-20T10:29:25.740Z</time>
      </trkpt>
      <trkpt lat="47.479203" lon="7.740474">
        <ele>325.992373</ele>
        <time>2021-11-20T10:29:27.522Z</time>
      </trkpt>
      <trkpt lat="47.479320" lon="7.740624">
        <ele>325.703776</ele>
        <time>2021-11-20T10:29:29.272Z</time>
      </trkpt>
      <trkpt lat="47.479429" lon="7.740787">
        <ele>325.414874</ele>
        <time>2021-11-20T10:29:31.094Z</time>
      </trkpt>
      <trkpt lat="47.479786" lon="7.741328">
        <ele>324.380679</ele>
        <time>2021-11-20T10:29:36.677Z</time>
      </trkpt>
      <trkpt lat="47.479843" lon="7.741440">
        <ele>324.160265</ele>
        <time>2021-11-20T10:29:37.643Z</time>
      </trkpt>
      <trkpt lat="47.479963" lon="7.741350">
        <ele>323.847320</ele>
        <time>2021-11-20T10:29:39.158Z</time>
      </trkpt>
      <trkpt lat="47.480020" lon="7.741305">
        <ele>323.697039</ele>
        <time>2021-11-20T10:29:39.823Z</time>
      </trkpt>
      <trkpt lat="47.480104" lon="7.741241">
        <ele>323.477262</ele>
        <time>2021-11-20T10:29:40.829Z</time>
      </trkpt>
      <trkpt lat="47.480294" lon="7.741119">
        <ele>322.995479</ele>
        <time>2021-11-20T10:29:43.046Z</time>
      </trkpt>
      <trkpt lat="47.480299" lon="7.741115">
        <ele>322.982257</ele>
        <time>2021-11-20T10:29:43.105Z</time>
      </trkpt>
      <trkpt lat="47.480539" lon="7.740961">
        <ele>322.373755</ele>
        <time>2021-11-20T10:29:45.825Z</time>
      </trkpt>
      <trkpt lat="47.480591" lon="7.740959">
        <ele>322.252757</ele>
        <time>2021-11-20T10:29:46.494Z</time>
      </trkpt>
      <trkpt lat="47.480648" lon="7.741012">
        <ele>322.096162</ele>
        <time>2021-11-20T10:29:47.144Z</time>
      </trkpt>
      <trkpt lat="47.481177" lon="7.741735">
        <ele>320.478426</ele>
        <time>2021-11-20T10:29:54.724Z</time>
      </trkpt>
      <trkpt lat="47.481605" lon="7.742324">
        <ele>319.537131</ele>
        <time>2021-11-20T10:30:01.330Z</time>
      </trkpt>
      <trkpt lat="47.481698" lon="7.742446">
        <ele>319.336976</ele>
        <time>2021-11-20T10:30:02.650Z</time>
      </trkpt>
      <trkpt lat="47.481811" lon="7.742600">
        <ele>319.089571</ele>
        <time>2021-11-20T10:30:04.434Z</time>
      </trkpt>
      <trkpt lat="47.481898" lon="7.742719">
        <ele>318.898771</ele>
        <time>2021-11-20T10:30:05.826Z</time>
      </trkpt>
      <trkpt lat="47.481963" lon="7.742814">
        <ele>318.751639</ele>
        <time>2021-11-20T10:30:06.831Z</time>
      </trkpt>
      <trkpt lat="47.482182" lon="7.743222">
        <ele>318.184568</ele>
        <time>2021-11-20T10:30:11.009Z</time>
      </trkpt>
      <trkpt lat="47.482599" lon="7.742771">
        <ele>317.526734</ele>
        <time>2021-11-20T10:30:17.318Z</time>
      </trkpt>
      <trkpt lat="47.482889" lon="7.742461">
        <ele>317.230415</ele>
        <time>2021-11-20T10:30:21.759Z</time>
      </trkpt>
      <trkpt lat="47.482927" lon="7.742421">
        <ele>317.191790</ele>
        <time>2021-11-20T10:30:22.444Z</time>
      </trkpt>
      <trkpt lat="47.483275" lon="7.742050">
        <ele>316.836536</ele>
        <time>2021-11-20T10:30:27.737Z</time>
      </trkpt>
      <trkpt lat="47.483828" lon="7.741475">
        <ele>316.276732</ele>
        <time>2021-11-20T10:30:36.583Z</time>
      </trkpt>
      <trkpt lat="47.483946" lon="7.741362">
        <ele>316.204922</ele>
        <time>2021-11-20T10:30:38.340Z</time>
      </trkpt>
      <trkpt lat="47.484154" lon="7.741142">
        <ele>316.148271</ele>
        <time>2021-11-20T10:30:41.569Z</time>
      </trkpt>
      <trkpt lat="47.484268" lon="7.741010">
        <ele>316.116197</ele>
        <time>2021-11-20T10:30:43.325Z</time>
      </trkpt>
      <trkpt lat="47.484365" lon="7.740878">
        <ele>316.086998</ele>
        <time>2021-11-20T10:30:44.903Z</time>
      </trkpt>
      <trkpt lat="47.484807" lon="7.739866">
        <ele>315.906570</ele>
        <time>2021-11-20T10:30:56.745Z</time>
      </trkpt>
      <trkpt lat="47.484997" lon="7.738871">
        <ele>315.657540</ele>
        <time>2021-11-20T10:31:08.298Z</time>
      </trkpt>
      <trkpt lat="47.485014" lon="7.738715">
        <ele>315.602454</ele>
        <time>2021-11-20T10:31:09.836Z</time>
      </trkpt>
      <trkpt lat="47.485032" lon="7.738535">
        <ele>315.539021</ele>
        <time>2021-11-20T10:31:11.789Z</time>
      </trkpt>
      <trkpt lat="47.485045" lon="7.738427">
        <ele>315.500778</ele>
        <time>2021-11-20T10:31:12.667Z</time>
      </trkpt>
      <trkpt lat="47.485067" lon="7.738278">
        <ele>315.447610</ele>
        <time>2021-11-20T10:31:14.120Z</time>
      </trkpt>
      <trkpt lat="47.485088" lon="7.738190">
        <ele>315.415076</ele>
        <time>2021-11-20T10:31:14.872Z</time>
      </trkpt>
      <trkpt lat="47.485121" lon="7.738124">
        <ele>315.386455</ele>
        <time>2021-11-20T10:31:15.875Z</time>
      </trkpt>
      <trkpt lat="47.485202" lon="7.737978">
        <ele>315.320603</ele>
        <time>2021-11-20T10:31:17.444Z</time>
      </trkpt>
      <trkpt lat="47.485384" lon="7.737678">
        <ele>315.180060</ele>
        <time>2021-11-20T10:31:20.838Z</time>
      </trkpt>
      <trkpt lat="47.485507" lon="7.737472">
        <ele>315.084231</ele>
        <time>2021-11-20T10:31:22.962Z</time>
      </trkpt>
      <trkpt lat="47.485631" lon="7.737265">
        <ele>314.987799</ele>
        <time>2021-11-20T10:31:25.348Z</time>
      </trkpt>
      <trkpt lat="47.485696" lon="7.737158">
        <ele>314.937642</ele>
        <time>2021-11-20T10:31:26.539Z</time>
      </trkpt>
      <trkpt lat="47.485750" lon="7.737070">
        <ele>314.896205</ele>
        <time>2021-11-20T10:31:27.545Z</time>
      </trkpt>
      <trkpt lat="47.485806" lon="7.737111">
        <ele>314.852498</ele>
        <time>2021-11-20T10:31:28.248Z</time>
      </trkpt>
      <trkpt lat="47.485875" lon="7.737156">
        <ele>314.799131</ele>
        <time>2021-11-20T10:31:29.551Z</time>
      </trkpt>
      <trkpt lat="47.485976" lon="7.737217">
        <ele>314.721924</ele>
        <time>2021-11-20T10:31:30.865Z</time>
      </trkpt>
      <trkpt lat="47.486087" lon="7.737329">
        <ele>314.626839</ele>
        <time>2021-11-20T10:31:32.503Z</time>
      </trkpt>
      <trkpt lat="47.486287" lon="7.737642">
        <ele>314.420814</ele>
        <time>2021-11-20T10:31:36.097Z</time>
      </trkpt>
      <trkpt lat="47.486314" lon="7.737686">
        <ele>314.392389</ele>
        <time>2021-11-20T10:31:36.509Z</time>
      </trkpt>
      <trkpt lat="47.486354" lon="7.737753">
        <ele>314.349631</ele>
        <time>2021-11-20T10:31:37.148Z</time>
      </trkpt>
      <trkpt lat="47.486384" lon="7.737805">
        <ele>314.316930</ele>
        <time>2021-11-20T10:31:37.879Z</time>
      </trkpt>
      <trkpt lat="47.486495" lon="7.737981">
        <ele>314.201790</ele>
        <time>2021-11-20T10:31:40.305Z</time>
      </trkpt>
      <trkpt lat="47.486621" lon="7.738169">
        <ele>314.075152</ele>
        <time>2021-11-20T10:31:42.328Z</time>
      </trkpt>
      <trkpt lat="47.486676" lon="7.738293">
        <ele>314.004213</ele>
        <time>2021-11-20T10:31:44.279Z</time>
      </trkpt>
      <trkpt lat="47.486689" lon="7.738358">
        <ele>313.971793</ele>
        <time>2021-11-20T10:31:44.796Z</time>
      </trkpt>
      <trkpt lat="47.486827" lon="7.738319">
        <ele>313.872358</ele>
        <time>2021-11-20T10:31:46.426Z</time>
      </trkpt>
      <trkpt lat="47.487288" lon="7.738117">
        <ele>313.634851</ele>
        <time>2021-11-20T10:31:52.913Z</time>
      </trkpt>
      <trkpt lat="47.487552" lon="7.737858">
        <ele>313.667347</ele>
        <time>2021-11-20T10:31:57.849Z</time>
      </trkpt>
      <trkpt lat="47.487621" lon="7.737779">
        <ele>313.676297</ele>
        <time>2021-11-20T10:31:59.848Z</time>
      </trkpt>
      <trkpt lat="47.487864" lon="7.737500">
        <ele>313.707850</ele>
        <time>2021-11-20T10:32:05.183Z</time>
      </trkpt>
      <trkpt lat="47.488046" lon="7.737266">
        <ele>313.732585</ele>
        <time>2021-11-20T10:32:09.691Z</time>
      </trkpt>
      <trkpt lat="47.488606" lon="7.735964">
        <ele>313.386717</ele>
        <time>2021-11-20T10:32:24.693Z</time>
      </trkpt>
      <trkpt lat="47.488804" lon="7.735382">
        <ele>312.815954</ele>
        <time>2021-11-20T10:32:29.852Z</time>
      </trkpt>
      <trkpt lat="47.488949" lon="7.734979">
        <ele>312.416029</ele>
        <time>2021-11-20T10:32:33.416Z</time>
      </trkpt>
      <trkpt lat="47.489032" lon="7.734791">
        <ele>312.219321</ele>
        <time>2021-11-20T10:32:35.093Z</time>
      </trkpt>
      <trkpt lat="47.489918" lon="7.732395">
        <ele>309.220113</ele>
        <time>2021-11-20T10:32:55.497Z</time>
      </trkpt>
      <trkpt lat="47.489972" lon="7.732312">
        <ele>309.082030</ele>
        <time>2021-11-20T10:32:56.311Z</time>
      </trkpt>
      <trkpt lat="47.491123" lon="7.730521">
        <ele>306.733010</ele>
        <time>2021-11-20T10:33:16.000Z</time>
      </trkpt>
      <trkpt lat="47.491189" lon="7.730425">
        <ele>306.615364</ele>
        <time>2021-11-20T10:33:17.157Z</time>
      </trkpt>
      <trkpt lat="47.491229" lon="7.730369">
        <ele>306.545364</ele>
        <time>2021-11-20T10:33:17.844Z</time>
      </trkpt>
      <trkpt lat="47.491274" lon="7.730304">
        <ele>306.465424</ele>
        <time>2021-11-20T10:33:18.631Z</time>
      </trkpt>
      <trkpt lat="47.491352" lon="7.730195">
        <ele>306.329043</ele>
        <time>2021-11-20T10:33:19.856Z</time>
      </trkpt>
      <trkpt lat="47.491749" lon="7.729641">
        <ele>305.666768</ele>
        <time>2021-11-20T10:33:26.413Z</time>
      </trkpt>
      <trkpt lat="47.491764" lon="7.729620">
        <ele>305.642790</ele>
        <time>2021-11-20T10:33:26.605Z</time>
      </trkpt>
      <trkpt lat="47.492018" lon="7.729265">
        <ele>305.237094</ele>
        <time>2021-11-20T10:33:30.797Z</time>
      </trkpt>
      <trkpt lat="47.492160" lon="7.729079">
        <ele>305.016888</ele>
        <time>2021-11-20T10:33:32.972Z</time>
      </trkpt>
      <trkpt lat="47.492253" lon="7.728955">
        <ele>304.871527</ele>
        <time>2021-11-20T10:33:34.512Z</time>
      </trkpt>
      <trkpt lat="47.492640" lon="7.728394">
        <ele>304.242462</ele>
        <time>2021-11-20T10:33:41.014Z</time>
      </trkpt>
      <trkpt lat="47.493051" lon="7.727844">
        <ele>303.742584</ele>
        <time>2021-11-20T10:33:47.758Z</time>
      </trkpt>
      <trkpt lat="47.493304" lon="7.727627">
        <ele>303.560019</ele>
        <time>2021-11-20T10:33:51.330Z</time>
      </trkpt>
      <trkpt lat="47.493736" lon="7.727441">
        <ele>303.279126</ele>
        <time>2021-11-20T10:33:57.126Z</time>
      </trkpt>
      <trkpt lat="47.493928" lon="7.727382">
        <ele>303.156698</ele>
        <time>2021-11-20T10:33:59.706Z</time>
      </trkpt>
      <trkpt lat="47.495388" lon="7.727405">
        <ele>302.401749</ele>
        <time>2021-11-20T10:34:20.265Z</time>
      </trkpt>
      <trkpt lat="47.495736" lon="7.727409">
        <ele>302.247326</ele>
        <time>2021-11-20T10:34:24.871Z</time>
      </trkpt>
      <trkpt lat="47.495777" lon="7.727410">
        <ele>302.229131</ele>
        <time>2021-11-20T10:34:25.422Z</time>
      </trkpt>
      <trkpt lat="47.495921" lon="7.727411">
        <ele>302.165233</ele>
        <time>2021-11-20T10:34:27.237Z</time>
      </trkpt>
      <trkpt lat="47.496039" lon="7.727411">
        <ele>302.112873</ele>
        <time>2021-11-20T10:34:28.805Z</time>
      </trkpt>
      <trkpt lat="47.496162" lon="7.727414">
        <ele>302.058286</ele>
        <time>2021-11-20T10:34:30.395Z</time>
      </trkpt>
      <trkpt lat="47.496367" lon="7.727420">
        <ele>301.956959</ele>
        <time>2021-11-20T10:34:32.984Z</time>
      </trkpt>
      <trkpt lat="47.496689" lon="7.727441">
        <ele>301.744020</ele>
        <time>2021-11-20T10:34:37.026Z</time>
      </trkpt>
      <trkpt lat="47.498171" lon="7.727736">
        <ele>300.770562</ele>
        <time>2021-11-20T10:34:56.154Z</time>
      </trkpt>
      <trkpt lat="47.499222" lon="7.727694">
        <ele>300.303863</ele>
        <time>2021-11-20T10:35:10.516Z</time>
      </trkpt>
      <trkpt lat="47.500808" lon="7.727366">
        <ele>298.825528</ele>
        <time>2021-11-20T10:35:32.003Z</time>
      </trkpt>
      <trkpt lat="47.501683" lon="7.727114">
        <ele>297.682969</ele>
        <time>2021-11-20T10:35:41.598Z</time>
      </trkpt>
      <trkpt lat="47.502070" lon="7.727002">
        <ele>297.065714</ele>
        <time>2021-11-20T10:35:45.920Z</time>
      </trkpt>
      <trkpt lat="47.502089" lon="7.726997">
        <ele>297.035506</ele>
        <time>2021-11-20T10:35:46.162Z</time>
      </trkpt>
      <trkpt lat="47.502204" lon="7.726964">
        <ele>296.852141</ele>
        <time>2021-11-20T10:35:47.569Z</time>
      </trkpt>
      <trkpt lat="47.502189" lon="7.726824">
        <ele>296.702243</ele>
        <time>2021-11-20T10:35:48.585Z</time>
      </trkpt>
      <trkpt lat="47.502177" lon="7.726706">
        <ele>296.576055</ele>
        <time>2021-11-20T10:35:49.569Z</time>
      </trkpt>
      <trkpt lat="47.502177" lon="7.726706">
        <ele>296.576055</ele>
        <time>2021-11-20T10:35:49.581Z</time>
      </trkpt>
      <trkpt lat="47.502122" lon="7.726303">
        <ele>296.141280</ele>
        <time>2021-11-20T10:35:52.803Z</time>
      </trkpt>
      <trkpt lat="47.502115" lon="7.726246">
        <ele>296.080015</ele>
        <time>2021-11-20T10:35:53.476Z</time>
      </trkpt>
      <trkpt lat="47.502048" lon="7.725782">
        <ele>295.578259</ele>
        <time>2021-11-20T10:35:57.072Z</time>
      </trkpt>
      <trkpt lat="47.502031" lon="7.725427">
        <ele>295.201910</ele>
        <time>2021-11-20T10:35:59.979Z</time>
      </trkpt>
      <trkpt lat="47.502031" lon="7.725298">
        <ele>295.065495</ele>
        <time>2021-11-20T10:36:01.002Z</time>
      </trkpt>
      <trkpt lat="47.502029" lon="7.725074">
        <ele>294.885532</ele>
        <time>2021-11-20T10:36:02.739Z</time>
      </trkpt>
      <trkpt lat="47.502040" lon="7.724902">
        <ele>294.875652</ele>
        <time>2021-11-20T10:36:04.547Z</time>
      </trkpt>
      <trkpt lat="47.502055" lon="7.724669">
        <ele>294.862267</ele>
        <time>2021-11-20T10:36:06.634Z</time>
      </trkpt>
      <trkpt lat="47.502172" lon="7.724685">
        <ele>294.852320</ele>
        <time>2021-11-20T10:36:08.505Z</time>
      </trkpt>
      <trkpt lat="47.502179" lon="7.724686">
        <ele>294.851725</ele>
        <time>2021-11-20T10:36:08.655Z</time>
      </trkpt>
      <trkpt lat="47.502205" lon="7.724690">
        <ele>294.849512</ele>
        <time>2021-11-20T10:36:09.181Z</time>
      </trkpt>
      <trkpt lat="47.502283" lon="7.724703">
        <ele>294.842868</ele>
        <time>2021-11-20T10:36:10.828Z</time>
      </trkpt>
      <trkpt lat="47.502584" lon="7.724671">
        <ele>294.817322</ele>
        <time>2021-11-20T10:36:17.673Z</time>
      </trkpt>
      <trkpt lat="47.502794" lon="7.724635">
        <ele>294.799426</ele>
        <time>2021-11-20T10:36:22.468Z</time>
      </trkpt>
      <trkpt lat="47.503201" lon="7.724541">
        <ele>294.764556</ele>
        <time>2021-11-20T10:36:31.946Z</time>
      </trkpt>
      <trkpt lat="47.503333" lon="7.724502">
        <ele>294.753161</ele>
        <time>2021-11-20T10:36:34.840Z</time>
      </trkpt>
      <trkpt lat="47.503457" lon="7.724469">
        <ele>294.742496</ele>
        <time>2021-11-20T10:36:37.454Z</time>
      </trkpt>
      <trkpt lat="47.503494" lon="7.724462">
        <ele>294.739338</ele>
        <time>2021-11-20T10:36:38.261Z</time>
      </trkpt>
      <trkpt lat="47.503945" lon="7.724377">
        <ele>294.188751</ele>
        <time>2021-11-20T10:36:46.509Z</time>
      </trkpt>
      <trkpt lat="47.504048" lon="7.724357">
        <ele>294.053729</ele>
        <time>2021-11-20T10:36:48.228Z</time>
      </trkpt>
      <trkpt lat="47.504396" lon="7.724291">
        <ele>293.597716</ele>
        <time>2021-11-20T10:36:54.141Z</time>
      </trkpt>
      <trkpt lat="47.504514" lon="7.724269">
        <ele>293.443133</ele>
        <time>2021-11-20T10:36:56.161Z</time>
      </trkpt>
      <trkpt lat="47.504610" lon="7.724250">
        <ele>293.317246</ele>
        <time>2021-11-20T10:36:57.825Z</time>
      </trkpt>
      <trkpt lat="47.504856" lon="7.724220">
        <ele>292.996422</ele>
        <time>2021-11-20T10:37:01.735Z</time>
      </trkpt>
      <trkpt lat="47.505012" lon="7.724231">
        <ele>292.793429</ele>
        <time>2021-11-20T10:37:04.290Z</time>
      </trkpt>
      <trkpt lat="47.505073" lon="7.724246">
        <ele>292.713057</ele>
        <time>2021-11-20T10:37:05.182Z</time>
      </trkpt>
      <trkpt lat="47.505161" lon="7.724267">
        <ele>292.597202</ele>
        <time>2021-11-20T10:37:06.602Z</time>
      </trkpt>
      <trkpt lat="47.505365" lon="7.724317">
        <ele>292.279055</ele>
        <time>2021-11-20T10:37:09.956Z</time>
      </trkpt>
      <trkpt lat="47.505646" lon="7.724350">
        <ele>291.655232</ele>
        <time>2021-11-20T10:37:14.255Z</time>
      </trkpt>
      <trkpt lat="47.505783" lon="7.724344">
        <ele>291.351910</ele>
        <time>2021-11-20T10:37:16.289Z</time>
      </trkpt>
      <trkpt lat="47.505851" lon="7.724341">
        <ele>291.201355</ele>
        <time>2021-11-20T10:37:17.370Z</time>
      </trkpt>
      <trkpt lat="47.505891" lon="7.724339">
        <ele>291.112782</ele>
        <time>2021-11-20T10:37:17.966Z</time>
      </trkpt>
      <trkpt lat="47.505930" lon="7.724337">
        <ele>291.026421</ele>
        <time>2021-11-20T10:37:18.569Z</time>
      </trkpt>
      <trkpt lat="47.506453" lon="7.724284">
        <ele>289.866282</ele>
        <time>2021-11-20T10:37:26.538Z</time>
      </trkpt>
      <trkpt lat="47.506607" lon="7.724268">
        <ele>289.524632</ele>
        <time>2021-11-20T10:37:28.854Z</time>
      </trkpt>
      <trkpt lat="47.506921" lon="7.724257">
        <ele>288.829536</ele>
        <time>2021-11-20T10:37:33.852Z</time>
      </trkpt>
      <trkpt lat="47.506945" lon="7.724261">
        <ele>288.776087</ele>
        <time>2021-11-20T10:37:34.231Z</time>
      </trkpt>
      <trkpt lat="47.507064" lon="7.724278">
        <ele>288.511510</ele>
        <time>2021-11-20T10:37:36.107Z</time>
      </trkpt>
      <trkpt lat="47.507444" lon="7.724343">
        <ele>287.926164</ele>
        <time>2021-11-20T10:37:42.231Z</time>
      </trkpt>
      <trkpt lat="47.507810" lon="7.724326">
        <ele>287.396803</ele>
        <time>2021-11-20T10:37:48.214Z</time>
      </trkpt>
      <trkpt lat="47.508175" lon="7.724311">
        <ele>286.868944</ele>
        <time>2021-11-20T10:37:54.254Z</time>
      </trkpt>
      <trkpt lat="47.508425" lon="7.724317">
        <ele>286.507489</ele>
        <time>2021-11-20T10:37:58.478Z</time>
      </trkpt>
      <trkpt lat="47.508629" lon="7.724301">
        <ele>286.212166</ele>
        <time>2021-11-20T10:38:01.848Z</time>
      </trkpt>
      <trkpt lat="47.508823" lon="7.724215">
        <ele>285.919410</ele>
        <time>2021-11-20T10:38:04.330Z</time>
      </trkpt>
      <trkpt lat="47.509150" lon="7.724070">
        <ele>285.754013</ele>
        <time>2021-11-20T10:38:08.505Z</time>
      </trkpt>
      <trkpt lat="47.509672" lon="7.723906">
        <ele>285.628039</ele>
        <time>2021-11-20T10:38:15.428Z</time>
      </trkpt>
      <trkpt lat="47.509849" lon="7.723882">
        <ele>285.586080</ele>
        <time>2021-11-20T10:38:19.032Z</time>
      </trkpt>
      <trkpt lat="47.510349" lon="7.724011">
        <ele>285.466265</ele>
        <time>2021-11-20T10:38:29.999Z</time>
      </trkpt>
      <trkpt lat="47.510952" lon="7.724263">
        <ele>285.489529</ele>
        <time>2021-11-20T10:38:44.060Z</time>
      </trkpt>
      <trkpt lat="47.511606" lon="7.724590">
        <ele>285.698085</ele>
        <time>2021-11-20T10:38:56.529Z</time>
      </trkpt>
      <trkpt lat="47.511791" lon="7.724622">
        <ele>285.754360</ele>
        <time>2021-11-20T10:39:00.099Z</time>
      </trkpt>
      <trkpt lat="47.511979" lon="7.724618">
        <ele>285.811166</ele>
        <time>2021-11-20T10:39:03.941Z</time>
      </trkpt>
      <trkpt lat="47.512214" lon="7.724543">
        <ele>285.883797</ele>
        <time>2021-11-20T10:39:10.009Z</time>
      </trkpt>
      <trkpt lat="47.512277" lon="7.724501">
        <ele>285.904672</ele>
        <time>2021-11-20T10:39:11.109Z</time>
      </trkpt>
      <trkpt lat="47.512857" lon="7.723931">
        <ele>286.724553</ele>
        <time>2021-11-20T10:39:31.866Z</time>
      </trkpt>
      <trkpt lat="47.512888" lon="7.724074">
        <ele>286.860069</ele>
        <time>2021-11-20T10:39:33.964Z</time>
      </trkpt>
      <trkpt lat="47.512910" lon="7.724174">
        <ele>286.954968</ele>
        <time>2021-11-20T10:39:35.819Z</time>
      </trkpt>
      <trkpt lat="47.512976" lon="7.724418">
        <ele>287.192136</ele>
        <time>2021-11-20T10:39:39.213Z</time>
      </trkpt>
      <trkpt lat="47.513078" lon="7.724821">
        <ele>287.580466</ele>
        <time>2021-11-20T10:39:45.126Z</time>
      </trkpt>
      <trkpt lat="47.513150" lon="7.725105">
        <ele>287.854184</ele>
        <time>2021-11-20T10:39:47.500Z</time>
      </trkpt>
      <trkpt lat="47.513193" lon="7.725244">
        <ele>287.992137</ele>
        <time>2021-11-20T10:39:50.496Z</time>
      </trkpt>
      <trkpt lat="47.513232" lon="7.725318">
        <ele>288.076831</ele>
        <time>2021-11-20T10:39:51.651Z</time>
      </trkpt>
      <trkpt lat="47.513538" lon="7.725582">
        <ele>288.275671</ele>
        <time>2021-11-20T10:39:58.750Z</time>
      </trkpt>
      <trkpt lat="47.513681" lon="7.725617">
        <ele>288.216656</ele>
        <time>2021-11-20T10:40:01.077Z</time>
      </trkpt>
      <trkpt lat="47.514143" lon="7.725538">
        <ele>288.027293</ele>
        <time>2021-11-20T10:40:10.714Z</time>
      </trkpt>
      <trkpt lat="47.515140" lon="7.725368">
        <ele>287.618663</ele>
        <time>2021-11-20T10:40:22.630Z</time>
      </trkpt>
      <trkpt lat="47.515697" lon="7.725255">
        <ele>286.386000</ele>
        <time>2021-11-20T10:40:28.431Z</time>
      </trkpt>
      <trkpt lat="47.515959" lon="7.725102">
        <ele>285.742447</ele>
        <time>2021-11-20T10:40:31.414Z</time>
      </trkpt>
      <trkpt lat="47.516416" lon="7.724623">
        <ele>284.463033</ele>
        <time>2021-11-20T10:40:37.371Z</time>
      </trkpt>
      <trkpt lat="47.517269" lon="7.723372">
        <ele>282.151904</ele>
        <time>2021-11-20T10:40:50.435Z</time>
      </trkpt>
      <trkpt lat="47.517885" lon="7.722793">
        <ele>280.890053</ele>
        <time>2021-11-20T10:40:58.769Z</time>
      </trkpt>
      <trkpt lat="47.518038" lon="7.722700">
        <ele>280.604022</ele>
        <time>2021-11-20T10:41:00.648Z</time>
      </trkpt>
      <trkpt lat="47.518237" lon="7.722578">
        <ele>280.334313</ele>
        <time>2021-11-20T10:41:03.267Z</time>
      </trkpt>
      <trkpt lat="47.519305" lon="7.722165">
        <ele>279.688621</ele>
        <time>2021-11-20T10:41:16.866Z</time>
      </trkpt>
      <trkpt lat="47.520760" lon="7.721667">
        <ele>281.417806</ele>
        <time>2021-11-20T10:41:40.864Z</time>
      </trkpt>
      <trkpt lat="47.521121" lon="7.721544">
        <ele>282.286438</ele>
        <time>2021-11-20T10:41:50.306Z</time>
      </trkpt>
      <trkpt lat="47.521455" lon="7.721426">
        <ele>283.091621</ele>
        <time>2021-11-20T10:42:01.477Z</time>
      </trkpt>
      <trkpt lat="47.521722" lon="7.721283">
        <ele>284.104492</ele>
        <time>2021-11-20T10:42:11.075Z</time>
      </trkpt>
      <trkpt lat="47.521846" lon="7.721211">
        <ele>284.945516</ele>
        <time>2021-11-20T10:42:17.350Z</time>
      </trkpt>
      <trkpt lat="47.521984" lon="7.721168">
        <ele>285.835982</ele>
        <time>2021-11-20T10:42:22.104Z</time>
      </trkpt>
      <trkpt lat="47.522249" lon="7.721165">
        <ele>287.509340</ele>
        <time>2021-11-20T10:42:34.161Z</time>
      </trkpt>
      <trkpt lat="47.522498" lon="7.721207">
        <ele>289.091787</ele>
        <time>2021-11-20T10:42:44.798Z</time>
      </trkpt>
      <trkpt lat="47.522682" lon="7.721170">
        <ele>290.264295</ele>
        <time>2021-11-20T10:42:52.250Z</time>
      </trkpt>
      <trkpt lat="47.522888" lon="7.721170">
        <ele>291.565056</ele>
        <time>2021-11-20T10:43:01.983Z</time>
      </trkpt>
      <trkpt lat="47.523111" lon="7.721224">
        <ele>292.991863</ele>
        <time>2021-11-20T10:43:10.347Z</time>
      </trkpt>
      <trkpt lat="47.523300" lon="7.721328">
        <ele>294.265009</ele>
        <time>2021-11-20T10:43:19.671Z</time>
      </trkpt>
      <trkpt lat="47.523671" lon="7.721634">
        <ele>295.925803</ele>
        <time>2021-11-20T10:43:35.588Z</time>
      </trkpt>
      <trkpt lat="47.523902" lon="7.721670">
        <ele>296.657494</ele>
        <time>2021-11-20T10:43:44.403Z</time>
      </trkpt>
      <trkpt lat="47.524263" lon="7.721598">
        <ele>297.804948</ele>
        <time>2021-11-20T10:43:55.746Z</time>
      </trkpt>
      <trkpt lat="47.524632" lon="7.721805">
        <ele>299.047942</ele>
        <time>2021-11-20T10:44:05.106Z</time>
      </trkpt>
      <trkpt lat="47.524884" lon="7.722022">
        <ele>299.966218</ele>
        <time>2021-11-20T10:44:10.353Z</time>
      </trkpt>
      <trkpt lat="47.525258" lon="7.722384">
        <ele>300.291365</ele>
        <time>2021-11-20T10:44:16.491Z</time>
      </trkpt>
      <trkpt lat="47.525373" lon="7.722545">
        <ele>300.113835</ele>
        <time>2021-11-20T10:44:18.498Z</time>
      </trkpt>
      <trkpt lat="47.526099" lon="7.723563">
        <ele>298.992251</ele>
        <time>2021-11-20T10:44:29.896Z</time>
      </trkpt>
      <trkpt lat="47.526744" lon="7.724750">
        <ele>298.279156</ele>
        <time>2021-11-20T10:44:41.832Z</time>
      </trkpt>
      <trkpt lat="47.526894" lon="7.725042">
        <ele>298.171537</ele>
        <time>2021-11-20T10:44:44.869Z</time>
      </trkpt>
      <trkpt lat="47.527862" lon="7.727114">
        <ele>298.091736</ele>
        <time>2021-11-20T10:45:13.081Z</time>
      </trkpt>
      <trkpt lat="47.528009" lon="7.727429">
        <ele>298.194633</ele>
        <time>2021-11-20T10:45:17.741Z</time>
      </trkpt>
      <trkpt lat="47.528009" lon="7.727429">
        <ele>298.194633</ele>
        <time>2021-11-20T10:45:17.798Z</time>
      </trkpt>
      <trkpt lat="47.528065" lon="7.727556">
        <ele>298.235394</ele>
        <time>2021-11-20T10:45:19.581Z</time>
      </trkpt>
      <trkpt lat="47.528164" lon="7.727824">
        <ele>298.317485</ele>
        <time>2021-11-20T10:45:22.975Z</time>
      </trkpt>
      <trkpt lat="47.528320" lon="7.728136">
        <ele>298.421811</ele>
        <time>2021-11-20T10:45:27.230Z</time>
      </trkpt>
      <trkpt lat="47.528408" lon="7.728307">
        <ele>298.479588</ele>
        <time>2021-11-20T10:45:29.259Z</time>
      </trkpt>
      <trkpt lat="47.528552" lon="7.728411">
        <ele>298.407211</ele>
        <time>2021-11-20T10:45:31.666Z</time>
      </trkpt>
      <trkpt lat="47.528614" lon="7.728431">
        <ele>298.365048</ele>
        <time>2021-11-20T10:45:32.528Z</time>
      </trkpt>
      <trkpt lat="47.528688" lon="7.728441">
        <ele>298.315674</ele>
        <time>2021-11-20T10:45:33.486Z</time>
      </trkpt>
      <trkpt lat="47.528715" lon="7.728334">
        <ele>298.264425</ele>
        <time>2021-11-20T10:45:34.609Z</time>
      </trkpt>
      <trkpt lat="47.528746" lon="7.728265">
        <ele>298.227241</ele>
        <time>2021-11-20T10:45:35.377Z</time>
      </trkpt>
      <trkpt lat="47.528803" lon="7.728159">
        <ele>298.166445</ele>
        <time>2021-11-20T10:45:36.580Z</time>
      </trkpt>
      <trkpt lat="47.528848" lon="7.728118">
        <ele>298.131340</ele>
        <time>2021-11-20T10:45:37.258Z</time>
      </trkpt>
      <trkpt lat="47.528941" lon="7.728048">
        <ele>298.062022</ele>
        <time>2021-11-20T10:45:38.564Z</time>
      </trkpt>
      <trkpt lat="47.529269" lon="7.727844">
        <ele>297.825642</ele>
        <time>2021-11-20T10:45:43.116Z</time>
      </trkpt>
      <trkpt lat="47.529976" lon="7.727410">
        <ele>297.317116</ele>
        <time>2021-11-20T10:45:52.405Z</time>
      </trkpt>
      <trkpt lat="47.530372" lon="7.727161">
        <ele>296.982591</ele>
        <time>2021-11-20T10:45:57.752Z</time>
      </trkpt>
      <trkpt lat="47.530756" lon="7.726844">
        <ele>296.637031</ele>
        <time>2021-11-20T10:46:03.139Z</time>
      </trkpt>
      <trkpt lat="47.531031" lon="7.726569">
        <ele>296.376211</ele>
        <time>2021-11-20T10:46:07.275Z</time>
      </trkpt>
      <trkpt lat="47.531193" lon="7.726888">
        <ele>296.164366</ele>
        <time>2021-11-20T10:46:10.672Z</time>
      </trkpt>
      <trkpt lat="47.531296" lon="7.727089">
        <ele>296.030446</ele>
        <time>2021-11-20T10:46:13.222Z</time>
      </trkpt>
      <trkpt lat="47.531623" lon="7.727725">
        <ele>295.747422</ele>
        <time>2021-11-20T10:46:20.281Z</time>
      </trkpt>
      <trkpt lat="47.531815" lon="7.728165">
        <ele>295.611028</ele>
        <time>2021-11-20T10:46:25.036Z</time>
      </trkpt>
      <trkpt lat="47.531944" lon="7.728603">
        <ele>295.486619</ele>
        <time>2021-11-20T10:46:29.408Z</time>
      </trkpt>
      <trkpt lat="47.532193" lon="7.730459">
        <ele>295.248769</ele>
        <time>2021-11-20T10:46:46.975Z</time>
      </trkpt>
      <trkpt lat="47.532405" lon="7.731493">
        <ele>295.333345</ele>
        <time>2021-11-20T10:46:58.932Z</time>
      </trkpt>
      <trkpt lat="47.532473" lon="7.731703">
        <ele>295.351574</ele>
        <time>2021-11-20T10:47:01.400Z</time>
      </trkpt>
      <trkpt lat="47.532665" lon="7.732105">
        <ele>295.390113</ele>
        <time>2021-11-20T10:47:06.884Z</time>
      </trkpt>
      <trkpt lat="47.532776" lon="7.732283">
        <ele>295.373241</ele>
        <time>2021-11-20T10:47:09.460Z</time>
      </trkpt>
      <trkpt lat="47.532853" lon="7.732416">
        <ele>295.341044</ele>
        <time>2021-11-20T10:47:11.376Z</time>
      </trkpt>
      <trkpt lat="47.532961" lon="7.732599">
        <ele>295.296377</ele>
        <time>2021-11-20T10:47:13.666Z</time>
      </trkpt>
      <trkpt lat="47.533220" lon="7.733022">
        <ele>295.191435</ele>
        <time>2021-11-20T10:47:19.201Z</time>
      </trkpt>
      <trkpt lat="47.533324" lon="7.733190">
        <ele>295.149548</ele>
        <time>2021-11-20T10:47:21.505Z</time>
      </trkpt>
      <trkpt lat="47.533436" lon="7.733399">
        <ele>295.100512</ele>
        <time>2021-11-20T10:47:23.850Z</time>
      </trkpt>
      <trkpt lat="47.533577" lon="7.733712">
        <ele>295.031363</ele>
        <time>2021-11-20T10:47:27.363Z</time>
      </trkpt>
      <trkpt lat="47.533685" lon="7.734026">
        <ele>294.966603</ele>
        <time>2021-11-20T10:47:30.475Z</time>
      </trkpt>
      <trkpt lat="47.533860" lon="7.734479">
        <ele>294.803004</ele>
        <time>2021-11-20T10:47:34.970Z</time>
      </trkpt>
      <trkpt lat="47.534301" lon="7.735625">
        <ele>294.130070</ele>
        <time>2021-11-20T10:47:45.804Z</time>
      </trkpt>
      <trkpt lat="47.534450" lon="7.736026">
        <ele>293.896564</ele>
        <time>2021-11-20T10:47:49.582Z</time>
      </trkpt>
      <trkpt lat="47.534670" lon="7.736644">
        <ele>293.588459</ele>
        <time>2021-11-20T10:47:55.606Z</time>
      </trkpt>
      <trkpt lat="47.534765" lon="7.736911">
        <ele>294.211744</ele>
        <time>2021-11-20T10:47:58.270Z</time>
      </trkpt>
      <trkpt lat="47.534895" lon="7.737269">
        <ele>295.051228</ele>
        <time>2021-11-20T10:48:02.718Z</time>
      </trkpt>
      <trkpt lat="47.535216" lon="7.738157">
        <ele>297.131406</ele>
        <time>2021-11-20T10:48:17.691Z</time>
      </trkpt>
      <trkpt lat="47.534755" lon="7.738529">
        <ele>298.737228</ele>
        <time>2021-11-20T10:48:37.911Z</time>
      </trkpt>
      <trkpt lat="47.534011" lon="7.739126">
        <ele>304.885653</ele>
        <time>2021-11-20T10:49:19.700Z</time>
      </trkpt>
      <trkpt lat="47.533446" lon="7.739598">
        <ele>309.976256</ele>
        <time>2021-11-20T10:49:51.618Z</time>
      </trkpt>
      <trkpt lat="47.533226" lon="7.739781">
        <ele>311.956394</ele>
        <time>2021-11-20T10:50:02.955Z</time>
      </trkpt>
      <trkpt lat="47.533191" lon="7.739816">
        <ele>312.287806</ele>
        <time>2021-11-20T10:50:06.206Z</time>
      </trkpt>
      <trkpt lat="47.533352" lon="7.740430">
        <ele>314.279736</ele>
        <time>2021-11-20T10:50:24.890Z</time>
      </trkpt>
      <trkpt lat="47.533707" lon="7.742025">
        <ele>318.072780</ele>
        <time>2021-11-20T10:50:57.174Z</time>
      </trkpt>
      <trkpt lat="47.533870" lon="7.743466">
        <ele>318.973310</ele>
        <time>2021-11-20T10:51:09.253Z</time>
      </trkpt>
      <trkpt lat="47.534043" lon="7.744207">
        <ele>318.803271</ele>
        <time>2021-11-20T10:51:16.336Z</time>
      </trkpt>
      <trkpt lat="47.534097" lon="7.744343">
        <ele>318.769054</ele>
        <time>2021-11-20T10:51:17.784Z</time>
      </trkpt>
      <trkpt lat="47.534179" lon="7.744495">
        <ele>318.726859</ele>
        <time>2021-11-20T10:51:19.663Z</time>
      </trkpt>
      <trkpt lat="47.534370" lon="7.744709">
        <ele>318.649930</ele>
        <time>2021-11-20T10:51:22.957Z</time>
      </trkpt>
      <trkpt lat="47.534429" lon="7.744856">
        <ele>318.612842</ele>
        <time>2021-11-20T10:51:24.719Z</time>
      </trkpt>
      <trkpt lat="47.534874" lon="7.746551">
        <ele>318.629787</ele>
        <time>2021-11-20T10:51:42.269Z</time>
      </trkpt>
      <trkpt lat="47.535912" lon="7.749669">
        <ele>319.263635</ele>
        <time>2021-11-20T10:52:20.609Z</time>
      </trkpt>
      <trkpt lat="47.537134" lon="7.752309">
        <ele>320.141945</ele>
        <time>2021-11-20T10:52:54.762Z</time>
      </trkpt>
      <trkpt lat="47.537371" lon="7.752851">
        <ele>320.713757</ele>
        <time>2021-11-20T10:53:01.411Z</time>
      </trkpt>
      <trkpt lat="47.537564" lon="7.753073">
        <ele>321.034263</ele>
        <time>2021-11-20T10:53:05.226Z</time>
      </trkpt>
      <trkpt lat="47.537715" lon="7.753194">
        <ele>321.259442</ele>
        <time>2021-11-20T10:53:09.070Z</time>
      </trkpt>
      <trkpt lat="47.538052" lon="7.753460">
        <ele>321.760298</ele>
        <time>2021-11-20T10:53:18.155Z</time>
      </trkpt>
      <trkpt lat="47.538359" lon="7.753900">
        <ele>322.975595</ele>
        <time>2021-11-20T10:53:29.387Z</time>
      </trkpt>
      <trkpt lat="47.538494" lon="7.754103">
        <ele>323.926553</ele>
        <time>2021-11-20T10:53:35.191Z</time>
      </trkpt>
      <trkpt lat="47.538723" lon="7.754445">
        <ele>325.534083</ele>
        <time>2021-11-20T10:53:45.384Z</time>
      </trkpt>
      <trkpt lat="47.538792" lon="7.754549">
        <ele>326.020708</ele>
        <time>2021-11-20T10:53:49.246Z</time>
      </trkpt>
      <trkpt lat="47.539079" lon="7.754976">
        <ele>328.031545</ele>
        <time>2021-11-20T10:54:04.945Z</time>
      </trkpt>
      <trkpt lat="47.539230" lon="7.755294">
        <ele>329.329006</ele>
        <time>2021-11-20T10:54:15.605Z</time>
      </trkpt>
      <trkpt lat="47.539346" lon="7.755736">
        <ele>330.911591</ele>
        <time>2021-11-20T10:54:28.895Z</time>
      </trkpt>
      <trkpt lat="47.539595" lon="7.757548">
        <ele>335.678342</ele>
        <time>2021-11-20T10:55:12.818Z</time>
      </trkpt>
      <trkpt lat="47.539722" lon="7.758107">
        <ele>337.194056</ele>
        <time>2021-11-20T10:55:21.825Z</time>
      </trkpt>
      <trkpt lat="47.539949" lon="7.758688">
        <ele>337.054862</ele>
        <time>2021-11-20T10:55:29.038Z</time>
      </trkpt>
      <trkpt lat="47.540447" lon="7.759585">
        <ele>334.966319</ele>
        <time>2021-11-20T10:55:37.561Z</time>
      </trkpt>
      <trkpt lat="47.540567" lon="7.759901">
        <ele>334.314311</ele>
        <time>2021-11-20T10:55:39.947Z</time>
      </trkpt>
      <trkpt lat="47.540921" lon="7.761599">
        <ele>327.265975</ele>
        <time>2021-11-20T10:55:51.070Z</time>
      </trkpt>
      <trkpt lat="47.541004" lon="7.762306">
        <ele>323.375957</ele>
        <time>2021-11-20T10:55:55.291Z</time>
      </trkpt>
      <trkpt lat="47.541023" lon="7.762922">
        <ele>320.033272</ele>
        <time>2021-11-20T10:55:58.874Z</time>
      </trkpt>
      <trkpt lat="47.541219" lon="7.763853">
        <ele>314.553958</ele>
        <time>2021-11-20T10:56:04.497Z</time>
      </trkpt>
      <trkpt lat="47.541334" lon="7.764020">
        <ele>313.195864</ele>
        <time>2021-11-20T10:56:05.964Z</time>
      </trkpt>
      <trkpt lat="47.541377" lon="7.764045">
        <ele>312.806306</ele>
        <time>2021-11-20T10:56:06.336Z</time>
      </trkpt>
      <trkpt lat="47.541364" lon="7.764150">
        <ele>312.198580</ele>
        <time>2021-11-20T10:56:06.948Z</time>
      </trkpt>
      <trkpt lat="47.541443" lon="7.764512">
        <ele>310.032733</ele>
        <time>2021-11-20T10:56:09.258Z</time>
      </trkpt>
      <trkpt lat="47.541552" lon="7.764869">
        <ele>307.802154</ele>
        <time>2021-11-20T10:56:11.552Z</time>
      </trkpt>
      <trkpt lat="47.541697" lon="7.765479">
        <ele>304.120489</ele>
        <time>2021-11-20T10:56:15.434Z</time>
      </trkpt>
      <trkpt lat="47.542317" lon="7.768533">
        <ele>296.470009</ele>
        <time>2021-11-20T10:56:36.908Z</time>
      </trkpt>
      <trkpt lat="47.542450" lon="7.769311">
        <ele>296.159865</ele>
        <time>2021-11-20T10:56:44.622Z</time>
      </trkpt>
      <trkpt lat="47.542720" lon="7.770771">
        <ele>295.608288</ele>
        <time>2021-11-20T10:57:01.166Z</time>
      </trkpt>
      <trkpt lat="47.543108" lon="7.773069">
        <ele>296.175765</ele>
        <time>2021-11-20T10:57:28.018Z</time>
      </trkpt>
      <trkpt lat="47.543145" lon="7.773277">
        <ele>296.227296</ele>
        <time>2021-11-20T10:57:30.144Z</time>
      </trkpt>
      <trkpt lat="47.543350" lon="7.774507">
        <ele>296.350727</ele>
        <time>2021-11-20T10:57:42.592Z</time>
      </trkpt>
      <trkpt lat="47.543402" lon="7.775016">
        <ele>296.399274</ele>
        <time>2021-11-20T10:57:47.556Z</time>
      </trkpt>
      <trkpt lat="47.543449" lon="7.775478">
        <ele>296.443333</ele>
        <time>2021-11-20T10:57:52.409Z</time>
      </trkpt>
      <trkpt lat="47.543482" lon="7.776095">
        <ele>296.721893</ele>
        <time>2021-11-20T10:57:59.169Z</time>
      </trkpt>
      <trkpt lat="47.543527" lon="7.776532">
        <ele>297.316258</ele>
        <time>2021-11-20T10:58:04.346Z</time>
      </trkpt>
      <trkpt lat="47.543699" lon="7.777352">
        <ele>298.470788</ele>
        <time>2021-11-20T10:58:15.772Z</time>
      </trkpt>
      <trkpt lat="47.543707" lon="7.777394">
        <ele>298.529464</ele>
        <time>2021-11-20T10:58:16.567Z</time>
      </trkpt>
      <trkpt lat="47.543755" lon="7.777600">
        <ele>298.822477</ele>
        <time>2021-11-20T10:58:20.186Z</time>
      </trkpt>
      <trkpt lat="47.543933" lon="7.778374">
        <ele>299.921888</ele>
        <time>2021-11-20T10:58:34.792Z</time>
      </trkpt>
      <trkpt lat="47.544100" lon="7.779438">
        <ele>303.852849</ele>
        <time>2021-11-20T10:58:59.150Z</time>
      </trkpt>
      <trkpt lat="47.544461" lon="7.782254">
        <ele>312.419256</ele>
        <time>2021-11-20T11:00:19.658Z</time>
      </trkpt>
      <trkpt lat="47.544469" lon="7.782455">
        <ele>312.776063</ele>
        <time>2021-11-20T11:00:24.692Z</time>
      </trkpt>
      <trkpt lat="47.544474" lon="7.782623">
        <ele>313.074062</ele>
        <time>2021-11-20T11:00:27.079Z</time>
      </trkpt>
      <trkpt lat="47.544490" lon="7.783060">
        <ele>313.849600</ele>
        <time>2021-11-20T11:00:30.971Z</time>
      </trkpt>
      <trkpt lat="47.544555" lon="7.783372">
        <ele>314.428223</ele>
        <time>2021-11-20T11:00:33.456Z</time>
      </trkpt>
      <trkpt lat="47.544627" lon="7.783499">
        <ele>314.722122</ele>
        <time>2021-11-20T11:00:34.853Z</time>
      </trkpt>
      <trkpt lat="47.544950" lon="7.784008">
        <ele>313.050754</ele>
        <time>2021-11-20T11:00:41.665Z</time>
      </trkpt>
      <trkpt lat="47.545054" lon="7.784227">
        <ele>312.024975</ele>
        <time>2021-11-20T11:00:44.237Z</time>
      </trkpt>
      <trkpt lat="47.545240" lon="7.784746">
        <ele>309.773910</ele>
        <time>2021-11-20T11:00:49.392Z</time>
      </trkpt>
      <trkpt lat="47.545250" lon="7.784778">
        <ele>309.638823</ele>
        <time>2021-11-20T11:00:49.665Z</time>
      </trkpt>
      <trkpt lat="47.545624" lon="7.785548">
        <ele>306.004788</ele>
        <time>2021-11-20T11:00:57.829Z</time>
      </trkpt>
      <trkpt lat="47.545672" lon="7.785654">
        <ele>305.515810</ele>
        <time>2021-11-20T11:00:58.838Z</time>
      </trkpt>
      <trkpt lat="47.545856" lon="7.785973">
        <ele>304.348777</ele>
        <time>2021-11-20T11:01:02.679Z</time>
      </trkpt>
      <trkpt lat="47.546102" lon="7.786217">
        <ele>303.469612</ele>
        <time>2021-11-20T11:01:06.664Z</time>
      </trkpt>
      <trkpt lat="47.546417" lon="7.786331">
        <ele>302.506645</ele>
        <time>2021-11-20T11:01:11.242Z</time>
      </trkpt>
      <trkpt lat="47.546464" lon="7.786335">
        <ele>302.366838</ele>
        <time>2021-11-20T11:01:12.006Z</time>
      </trkpt>
      <trkpt lat="47.546526" lon="7.786353">
        <ele>302.179214</ele>
        <time>2021-11-20T11:01:13.005Z</time>
      </trkpt>
      <trkpt lat="47.546913" lon="7.786470">
        <ele>301.006250</ele>
        <time>2021-11-20T11:01:19.168Z</time>
      </trkpt>
      <trkpt lat="47.546952" lon="7.786540">
        <ele>300.824308</ele>
        <time>2021-11-20T11:01:20.105Z</time>
      </trkpt>
      <trkpt lat="47.546959" lon="7.786598">
        <ele>300.706203</ele>
        <time>2021-11-20T11:01:20.804Z</time>
      </trkpt>
      <trkpt lat="47.546897" lon="7.787133">
        <ele>299.618096</ele>
        <time>2021-11-20T11:01:27.974Z</time>
      </trkpt>
      <trkpt lat="47.546782" lon="7.788062">
        <ele>299.733297</ele>
        <time>2021-11-20T11:01:41.365Z</time>
      </trkpt>
      <trkpt lat="47.546695" lon="7.788763">
        <ele>299.929566</ele>
        <time>2021-11-20T11:01:51.719Z</time>
      </trkpt>
      <trkpt lat="47.546673" lon="7.788921">
        <ele>299.973991</ele>
        <time>2021-11-20T11:01:54.327Z</time>
      </trkpt>
      <trkpt lat="47.546453" lon="7.790537">
        <ele>300.730159</ele>
        <time>2021-11-20T11:02:20.722Z</time>
      </trkpt>
      <trkpt lat="47.546253" lon="7.791998">
        <ele>301.750410</ele>
        <time>2021-11-20T11:02:46.552Z</time>
      </trkpt>
      <trkpt lat="47.546027" lon="7.793254">
        <ele>301.937295</ele>
        <time>2021-11-20T11:03:06.263Z</time>
      </trkpt>
      <trkpt lat="47.545969" lon="7.793663">
        <ele>301.883709</ele>
        <time>2021-11-20T11:03:11.429Z</time>
      </trkpt>
      <trkpt lat="47.545946" lon="7.794049">
        <ele>301.834025</ele>
        <time>2021-11-20T11:03:16.088Z</time>
      </trkpt>
      <trkpt lat="47.545921" lon="7.794468">
        <ele>301.780092</ele>
        <time>2021-11-20T11:03:21.291Z</time>
      </trkpt>
      <trkpt lat="47.545947" lon="7.794710">
        <ele>301.748673</ele>
        <time>2021-11-20T11:03:24.123Z</time>
      </trkpt>
      <trkpt lat="47.546019" lon="7.795020">
        <ele>301.706639</ele>
        <time>2021-11-20T11:03:28.150Z</time>
      </trkpt>
      <trkpt lat="47.546165" lon="7.795511">
        <ele>301.654031</ele>
        <time>2021-11-20T11:03:35.063Z</time>
      </trkpt>
      <trkpt lat="47.546170" lon="7.795612">
        <ele>301.644106</ele>
        <time>2021-11-20T11:03:36.105Z</time>
      </trkpt>
      <trkpt lat="47.546154" lon="7.795747">
        <ele>301.630674</ele>
        <time>2021-11-20T11:03:37.959Z</time>
      </trkpt>
      <trkpt lat="47.546105" lon="7.795928">
        <ele>301.611563</ele>
        <time>2021-11-20T11:03:41.106Z</time>
      </trkpt>
      <trkpt lat="47.546038" lon="7.796107">
        <ele>301.591504</ele>
        <time>2021-11-20T11:03:43.411Z</time>
      </trkpt>
      <trkpt lat="47.545889" lon="7.796500">
        <ele>301.547331</ele>
        <time>2021-11-20T11:03:50.308Z</time>
      </trkpt>
      <trkpt lat="47.545788" lon="7.796748">
        <ele>301.518946</ele>
        <time>2021-11-20T11:03:53.967Z</time>
      </trkpt>
      <trkpt lat="47.545728" lon="7.796950">
        <ele>301.497318</ele>
        <time>2021-11-20T11:03:57.288Z</time>
      </trkpt>
      <trkpt lat="47.545689" lon="7.797076">
        <ele>301.483734</ele>
        <time>2021-11-20T11:03:58.731Z</time>
      </trkpt>
      <trkpt lat="47.545689" lon="7.797076">
        <ele>301.483734</ele>
        <time>2021-11-20T11:03:58.768Z</time>
      </trkpt>
      <trkpt lat="47.545670" lon="7.797142">
        <ele>301.476702</ele>
        <time>2021-11-20T11:03:59.829Z</time>
      </trkpt>
      <trkpt lat="47.545645" lon="7.797258">
        <ele>301.464768</ele>
        <time>2021-11-20T11:04:01.592Z</time>
      </trkpt>
      <trkpt lat="47.545637" lon="7.797310">
        <ele>301.459542</ele>
        <time>2021-11-20T11:04:02.940Z</time>
      </trkpt>
      <trkpt lat="47.545558" lon="7.798144">
        <ele>301.411433</ele>
        <time>2021-11-20T11:04:14.217Z</time>
      </trkpt>
      <trkpt lat="47.545511" lon="7.798680">
        <ele>301.385131</ele>
        <time>2021-11-20T11:04:22.286Z</time>
      </trkpt>
      <trkpt lat="47.545581" lon="7.798713">
        <ele>301.379836</ele>
        <time>2021-11-20T11:04:23.798Z</time>
      </trkpt>
      <trkpt lat="47.545731" lon="7.798810">
        <ele>301.368037</ele>
        <time>2021-11-20T11:04:27.803Z</time>
      </trkpt>
      <trkpt lat="47.545807" lon="7.798846">
        <ele>301.362285</ele>
        <time>2021-11-20T11:04:29.131Z</time>
      </trkpt>
      <trkpt lat="47.546418" lon="7.798980">
        <ele>301.317759</ele>
        <time>2021-11-20T11:04:41.207Z</time>
      </trkpt>
      <trkpt lat="47.547540" lon="7.799538">
        <ele>300.674105</ele>
        <time>2021-11-20T11:05:01.848Z</time>
      </trkpt>
      <trkpt lat="47.547912" lon="7.799646">
        <ele>300.463570</ele>
        <time>2021-11-20T11:05:09.229Z</time>
      </trkpt>
      <trkpt lat="47.548459" lon="7.799691">
        <ele>300.295058</ele>
        <time>2021-11-20T11:05:20.167Z</time>
      </trkpt>
      <trkpt lat="47.548535" lon="7.799720">
        <ele>300.289048</ele>
        <time>2021-11-20T11:05:21.686Z</time>
      </trkpt>
      <trkpt lat="47.548514" lon="7.799795">
        <ele>300.284852</ele>
        <time>2021-11-20T11:05:22.750Z</time>
      </trkpt>
      <trkpt lat="47.548519" lon="7.799896">
        <ele>300.279617</ele>
        <time>2021-11-20T11:05:24.105Z</time>
      </trkpt>
      <trkpt lat="47.548545" lon="7.800404">
        <ele>300.253285</ele>
        <time>2021-11-20T11:05:30.896Z</time>
      </trkpt>
      <trkpt lat="47.548560" lon="7.800672">
        <ele>300.239385</ele>
        <time>2021-11-20T11:05:34.588Z</time>
      </trkpt>
      <trkpt lat="47.548569" lon="7.800838">
        <ele>300.230778</ele>
        <time>2021-11-20T11:05:36.832Z</time>
      </trkpt>
      <trkpt lat="47.548576" lon="7.800968">
        <ele>300.224037</ele>
        <time>2021-11-20T11:05:38.608Z</time>
      </trkpt>
      <trkpt lat="47.548596" lon="7.801213">
        <ele>300.211282</ele>
        <time>2021-11-20T11:05:41.989Z</time>
      </trkpt>
      <trkpt lat="47.548607" lon="7.801690">
        <ele>300.186613</ele>
        <time>2021-11-20T11:05:48.485Z</time>
      </trkpt>
      <trkpt lat="47.548626" lon="7.802129">
        <ele>300.128814</ele>
        <time>2021-11-20T11:05:54.403Z</time>
      </trkpt>
      <trkpt lat="47.548877" lon="7.802168">
        <ele>300.064789</ele>
        <time>2021-11-20T11:05:59.393Z</time>
      </trkpt>
      <trkpt lat="47.549410" lon="7.802226">
        <ele>299.929209</ele>
        <time>2021-11-20T11:06:09.810Z</time>
      </trkpt>
      <trkpt lat="47.549464" lon="7.802232">
        <ele>299.915472</ele>
        <time>2021-11-20T11:06:10.827Z</time>
      </trkpt>
      <trkpt lat="47.549481" lon="7.802234">
        <ele>299.911145</ele>
        <time>2021-11-20T11:06:11.149Z</time>
      </trkpt>
      <trkpt lat="47.549529" lon="7.802236">
        <ele>299.898964</ele>
        <time>2021-11-20T11:06:12.029Z</time>
      </trkpt>
      <trkpt lat="47.549879" lon="7.802247">
        <ele>299.810153</ele>
        <time>2021-11-20T11:06:18.612Z</time>
      </trkpt>
      <trkpt lat="47.550146" lon="7.802262">
        <ele>299.742369</ele>
        <time>2021-11-20T11:06:23.690Z</time>
      </trkpt>
      <trkpt lat="47.550134" lon="7.803051">
        <ele>299.603208</ele>
        <time>2021-11-20T11:06:33.910Z</time>
      </trkpt>
      <trkpt lat="47.550196" lon="7.803120">
        <ele>299.582850</ele>
        <time>2021-11-20T11:06:35.370Z</time>
      </trkpt>
      <trkpt lat="47.550981" lon="7.803132">
        <ele>299.376745</ele>
        <time>2021-11-20T11:06:50.019Z</time>
      </trkpt>
      <trkpt lat="47.551163" lon="7.803129">
        <ele>299.328960</ele>
        <time>2021-11-20T11:06:53.423Z</time>
      </trkpt>
      <trkpt lat="47.551598" lon="7.803160">
        <ele>299.342711</ele>
        <time>2021-11-20T11:07:02.015Z</time>
      </trkpt>
      <trkpt lat="47.551666" lon="7.803144">
        <ele>299.389125</ele>
        <time>2021-11-20T11:07:06.760Z</time>
      </trkpt>
      <trkpt lat="47.551732" lon="7.803125">
        <ele>299.434449</ele>
        <time>2021-11-20T11:07:11.426Z</time>
      </trkpt>
      <trkpt lat="47.551744" lon="7.803277">
        <ele>299.504077</ele>
        <time>2021-11-20T11:07:13.120Z</time>
      </trkpt>
      <trkpt lat="47.551751" lon="7.803369">
        <ele>299.546200</ele>
        <time>2021-11-20T11:07:14.194Z</time>
      </trkpt>
      <trkpt lat="47.551692" lon="7.803510">
        <ele>299.621681</ele>
        <time>2021-11-20T11:07:16.788Z</time>
      </trkpt>
      <trkpt lat="47.551741" lon="7.804294">
        <ele>299.979910</ele>
        <time>2021-11-20T11:07:29.806Z</time>
      </trkpt>
      <trkpt lat="47.551744" lon="7.804473">
        <ele>300.061376</ele>
        <time>2021-11-20T11:07:32.326Z</time>
      </trkpt>
      <trkpt lat="47.551731" lon="7.804667">
        <ele>300.150076</ele>
        <time>2021-11-20T11:07:36.306Z</time>
      </trkpt>
      <trkpt lat="47.551709" lon="7.805000">
        <ele>300.302308</ele>
        <time>2021-11-20T11:07:40.797Z</time>
      </trkpt>
      <trkpt lat="47.551681" lon="7.805477">
        <ele>300.486249</ele>
        <time>2021-11-20T11:07:48.534Z</time>
      </trkpt>
      <trkpt lat="47.551671" lon="7.806117">
        <ele>300.604671</ele>
        <time>2021-11-20T11:07:58.623Z</time>
      </trkpt>
      <trkpt lat="47.551651" lon="7.806246">
        <ele>300.629156</ele>
        <time>2021-11-20T11:08:01.526Z</time>
      </trkpt>
      <trkpt lat="47.551895" lon="7.806278">
        <ele>300.696293</ele>
        <time>2021-11-20T11:08:05.051Z</time>
      </trkpt>
      <trkpt lat="47.552015" lon="7.806307">
        <ele>300.729617</ele>
        <time>2021-11-20T11:08:07.921Z</time>
      </trkpt>
      <trkpt lat="47.552068" lon="7.806445">
        <ele>300.758989</ele>
        <time>2021-11-20T11:08:09.378Z</time>
      </trkpt>
      <trkpt lat="47.552398" lon="7.808880">
        <ele>300.376172</ele>
        <time>2021-11-20T11:08:31.521Z</time>
      </trkpt>
      <trkpt lat="47.552566" lon="7.810386">
        <ele>299.742913</ele>
        <time>2021-11-20T11:08:44.532Z</time>
      </trkpt>
      <trkpt lat="47.552711" lon="7.812955">
        <ele>298.610574</ele>
        <time>2021-11-20T11:09:07.141Z</time>
      </trkpt>
      <trkpt lat="47.552844" lon="7.816432">
        <ele>297.555115</ele>
        <time>2021-11-20T11:09:37.837Z</time>
      </trkpt>
      <trkpt lat="47.552855" lon="7.816722">
        <ele>297.538158</ele>
        <time>2021-11-20T11:09:40.685Z</time>
      </trkpt>
      <trkpt lat="47.552948" lon="7.819358">
        <ele>297.883835</ele>
        <time>2021-11-20T11:10:09.011Z</time>
      </trkpt>
      <trkpt lat="47.552896" lon="7.820699">
        <ele>298.331674</ele>
        <time>2021-11-20T11:10:24.856Z</time>
      </trkpt>
      <trkpt lat="47.552567" lon="7.824508">
        <ele>300.224497</ele>
        <time>2021-11-20T11:11:11.282Z</time>
      </trkpt>
      <trkpt lat="47.552491" lon="7.827227">
        <ele>301.789428</ele>
        <time>2021-11-20T11:11:43.022Z</time>
      </trkpt>
      <trkpt lat="47.552515" lon="7.828094">
        <ele>302.423741</ele>
        <time>2021-11-20T11:11:54.732Z</time>
      </trkpt>
      <trkpt lat="47.552477" lon="7.828294">
        <ele>302.575625</ele>
        <time>2021-11-20T11:11:57.349Z</time>
      </trkpt>
      <trkpt lat="47.552421" lon="7.828481">
        <ele>302.725175</ele>
        <time>2021-11-20T11:12:00.280Z</time>
      </trkpt>
      <trkpt lat="47.552404" lon="7.828582">
        <ele>302.801268</ele>
        <time>2021-11-20T11:12:01.965Z</time>
      </trkpt>
      <trkpt lat="47.552416" lon="7.828822">
        <ele>303.103977</ele>
        <time>2021-11-20T11:12:05.199Z</time>
      </trkpt>
      <trkpt lat="47.552554" lon="7.829266">
        <ele>303.888566</ele>
        <time>2021-11-20T11:12:12.550Z</time>
      </trkpt>
      <trkpt lat="47.552645" lon="7.830686">
        <ele>306.178011</ele>
        <time>2021-11-20T11:12:35.856Z</time>
      </trkpt>
      <trkpt lat="47.552690" lon="7.832598">
        <ele>309.786258</ele>
        <time>2021-11-20T11:13:11.333Z</time>
      </trkpt>
      <trkpt lat="47.552616" lon="7.832891">
        <ele>310.416906</ele>
        <time>2021-11-20T11:13:16.697Z</time>
      </trkpt>
      <trkpt lat="47.552556" lon="7.832977">
        <ele>310.666249</ele>
        <time>2021-11-20T11:13:19.428Z</time>
      </trkpt>
      <trkpt lat="47.552511" lon="7.833072">
        <ele>310.900217</ele>
        <time>2021-11-20T11:13:21.454Z</time>
      </trkpt>
      <trkpt lat="47.552467" lon="7.833198">
        <ele>311.186202</ele>
        <time>2021-11-20T11:13:23.856Z</time>
      </trkpt>
      <trkpt lat="47.552452" lon="7.833284">
        <ele>311.365262</ele>
        <time>2021-11-20T11:13:25.466Z</time>
      </trkpt>
      <trkpt lat="47.552696" lon="7.833789">
        <ele>312.589915</ele>
        <time>2021-11-20T11:13:36.498Z</time>
      </trkpt>
      <trkpt lat="47.552700" lon="7.833938">
        <ele>312.805189</ele>
        <time>2021-11-20T11:13:39.442Z</time>
      </trkpt>
      <trkpt lat="47.552714" lon="7.835010">
        <ele>314.353075</ele>
        <time>2021-11-20T11:13:57.919Z</time>
      </trkpt>
      <trkpt lat="47.552719" lon="7.836790">
        <ele>316.751507</ele>
        <time>2021-11-20T11:14:23.203Z</time>
      </trkpt>
      <trkpt lat="47.552697" lon="7.838068">
        <ele>318.026990</ele>
        <time>2021-11-20T11:14:40.845Z</time>
      </trkpt>
      <trkpt lat="47.552736" lon="7.838578">
        <ele>318.539076</ele>
        <time>2021-11-20T11:14:47.972Z</time>
      </trkpt>
      <trkpt lat="47.552802" lon="7.839009">
        <ele>318.980016</ele>
        <time>2021-11-20T11:14:54.191Z</time>
      </trkpt>
      <trkpt lat="47.552939" lon="7.839526">
        <ele>319.583596</ele>
        <time>2021-11-20T11:15:01.980Z</time>
      </trkpt>
      <trkpt lat="47.553231" lon="7.841529">
        <ele>321.827418</ele>
        <time>2021-11-20T11:15:32.110Z</time>
      </trkpt>
      <trkpt lat="47.553216" lon="7.841849">
        <ele>322.102250</ele>
        <time>2021-11-20T11:15:36.634Z</time>
      </trkpt>
      <trkpt lat="47.553123" lon="7.842222">
        <ele>322.395089</ele>
        <time>2021-11-20T11:15:41.864Z</time>
      </trkpt>
      <trkpt lat="47.553133" lon="7.842431">
        <ele>322.549392</ele>
        <time>2021-11-20T11:15:44.993Z</time>
      </trkpt>
      <trkpt lat="47.552833" lon="7.842495">
        <ele>322.880122</ele>
        <time>2021-11-20T11:15:52.302Z</time>
      </trkpt>
      <trkpt lat="47.552380" lon="7.842592">
        <ele>323.379561</ele>
        <time>2021-11-20T11:16:03.351Z</time>
      </trkpt>
      <trkpt lat="47.551922" lon="7.842704">
        <ele>323.886082</ele>
        <time>2021-11-20T11:16:13.917Z</time>
      </trkpt>
      <trkpt lat="47.551668" lon="7.842770">
        <ele>324.123509</ele>
        <time>2021-11-20T11:16:19.875Z</time>
      </trkpt>
      <trkpt lat="47.551454" lon="7.842815">
        <ele>324.319408</ele>
        <time>2021-11-20T11:16:24.663Z</time>
      </trkpt>
      <trkpt lat="47.551344" lon="7.844621">
        <ele>325.428646</ele>
        <time>2021-11-20T11:16:47.507Z</time>
      </trkpt>
      <trkpt lat="47.551294" lon="7.845363">
        <ele>326.052372</ele>
        <time>2021-11-20T11:16:57.639Z</time>
      </trkpt>
      <trkpt lat="47.551205" lon="7.846694">
        <ele>327.266054</ele>
        <time>2021-11-20T11:17:15.496Z</time>
      </trkpt>
      <trkpt lat="47.551184" lon="7.847206">
        <ele>327.731508</ele>
        <time>2021-11-20T11:17:22.887Z</time>
      </trkpt>
      <trkpt lat="47.551196" lon="7.847517">
        <ele>328.020897</ele>
        <time>2021-11-20T11:17:27.421Z</time>
      </trkpt>
      <trkpt lat="47.551669" lon="7.848083">
        <ele>328.933292</ele>
        <time>2021-11-20T11:17:40.170Z</time>
      </trkpt>
      <trkpt lat="47.551242" lon="7.848702">
        <ele>329.829764</ele>
        <time>2021-11-20T11:17:52.683Z</time>
      </trkpt>
      <trkpt lat="47.550975" lon="7.849066">
        <ele>330.374248</ele>
        <time>2021-11-20T11:17:59.998Z</time>
      </trkpt>
      <trkpt lat="47.550810" lon="7.849346">
        <ele>330.723294</ele>
        <time>2021-11-20T11:18:06.392Z</time>
      </trkpt>
      <trkpt lat="47.550488" lon="7.850081">
        <ele>331.355196</ele>
        <time>2021-11-20T11:18:21.810Z</time>
      </trkpt>
      <trkpt lat="47.550333" lon="7.850434">
        <ele>331.658888</ele>
        <time>2021-11-20T11:18:29.127Z</time>
      </trkpt>
      <trkpt lat="47.550009" lon="7.851173">
        <ele>332.294377</ele>
        <time>2021-11-20T11:18:43.747Z</time>
      </trkpt>
      <trkpt lat="47.549737" lon="7.851778">
        <ele>332.547803</ele>
        <time>2021-11-20T11:18:54.507Z</time>
      </trkpt>
      <trkpt lat="47.549652" lon="7.851969">
        <ele>332.527689</ele>
        <time>2021-11-20T11:18:57.631Z</time>
      </trkpt>
      <trkpt lat="47.549535" lon="7.852225">
        <ele>332.500507</ele>
        <time>2021-11-20T11:19:01.660Z</time>
      </trkpt>
      <trkpt lat="47.549285" lon="7.852784">
        <ele>332.441549</ele>
        <time>2021-11-20T11:19:10.310Z</time>
      </trkpt>
      <trkpt lat="47.549708" lon="7.853279">
        <ele>332.371334</ele>
        <time>2021-11-20T11:19:20.711Z</time>
      </trkpt>
      <trkpt lat="47.550221" lon="7.853833">
        <ele>332.110613</ele>
        <time>2021-11-20T11:19:32.663Z</time>
      </trkpt>
      <trkpt lat="47.549883" lon="7.854434">
        <ele>331.816307</ele>
        <time>2021-11-20T11:19:39.341Z</time>
      </trkpt>
      <trkpt lat="47.549566" lon="7.855225">
        <ele>331.470221</ele>
        <time>2021-11-20T11:19:50.485Z</time>
      </trkpt>
      <trkpt lat="47.549362" lon="7.855774">
        <ele>331.312607</ele>
        <time>2021-11-20T11:19:58.407Z</time>
      </trkpt>
      <trkpt lat="47.548887" lon="7.857308">
        <ele>331.146101</ele>
        <time>2021-11-20T11:20:20.515Z</time>
      </trkpt>
      <trkpt lat="47.548743" lon="7.857692">
        <ele>331.102762</ele>
        <time>2021-11-20T11:20:26.486Z</time>
      </trkpt>
      <trkpt lat="47.548701" lon="7.857893">
        <ele>331.082004</ele>
        <time>2021-11-20T11:20:29.458Z</time>
      </trkpt>
      <trkpt lat="47.548686" lon="7.857973">
        <ele>331.097912</ele>
        <time>2021-11-20T11:20:30.581Z</time>
      </trkpt>
      <trkpt lat="47.548611" lon="7.858381">
        <ele>331.329939</ele>
        <time>2021-11-20T11:20:36.795Z</time>
      </trkpt>
      <trkpt lat="47.548334" lon="7.859801">
        <ele>332.140995</ele>
        <time>2021-11-20T11:20:59.833Z</time>
      </trkpt>
      <trkpt lat="47.548049" lon="7.860929">
        <ele>333.088480</ele>
        <time>2021-11-20T11:21:20.851Z</time>
      </trkpt>
      <trkpt lat="47.547930" lon="7.861711">
        <ele>334.009127</ele>
        <time>2021-11-20T11:21:35.615Z</time>
      </trkpt>
      <trkpt lat="47.547568" lon="7.863151">
        <ele>335.661302</ele>
        <time>2021-11-20T11:22:04.742Z</time>
      </trkpt>
      <trkpt lat="47.547320" lon="7.863864">
        <ele>335.985701</ele>
        <time>2021-11-20T11:22:18.682Z</time>
      </trkpt>
      <trkpt lat="47.546974" lon="7.864423">
        <ele>336.292447</ele>
        <time>2021-11-20T11:22:29.506Z</time>
      </trkpt>
      <trkpt lat="47.546885" lon="7.864500">
        <ele>336.354202</ele>
        <time>2021-11-20T11:22:32.591Z</time>
      </trkpt>
      <trkpt lat="47.546894" lon="7.864837">
        <ele>336.490605</ele>
        <time>2021-11-20T11:22:36.474Z</time>
      </trkpt>
      <trkpt lat="47.546889" lon="7.865225">
        <ele>336.647557</ele>
        <time>2021-11-20T11:22:41.900Z</time>
      </trkpt>
      <trkpt lat="47.546819" lon="7.865489">
        <ele>336.553794</ele>
        <time>2021-11-20T11:22:45.844Z</time>
      </trkpt>
      <trkpt lat="47.546510" lon="7.865766">
        <ele>336.236057</ele>
        <time>2021-11-20T11:22:52.478Z</time>
      </trkpt>
      <trkpt lat="47.546327" lon="7.865959">
        <ele>336.038435</ele>
        <time>2021-11-20T11:22:55.993Z</time>
      </trkpt>
      <trkpt lat="47.546096" lon="7.866147">
        <ele>335.806566</ele>
        <time>2021-11-20T11:23:00.549Z</time>
      </trkpt>
      <trkpt lat="47.545240" lon="7.866887">
        <ele>335.235875</ele>
        <time>2021-11-20T11:23:17.223Z</time>
      </trkpt>
      <trkpt lat="47.545160" lon="7.866985">
        <ele>335.315641</ele>
        <time>2021-11-20T11:23:19.179Z</time>
      </trkpt>
      <trkpt lat="47.545003" lon="7.867278">
        <ele>335.509678</ele>
        <time>2021-11-20T11:23:24.847Z</time>
      </trkpt>
      <trkpt lat="47.544568" lon="7.867693">
        <ele>335.907249</ele>
        <time>2021-11-20T11:23:37.638Z</time>
      </trkpt>
      <trkpt lat="47.544469" lon="7.867776">
        <ele>335.994658</ele>
        <time>2021-11-20T11:23:40.500Z</time>
      </trkpt>
      <trkpt lat="47.544410" lon="7.867825">
        <ele>336.046633</ele>
        <time>2021-11-20T11:23:42.588Z</time>
      </trkpt>
      <trkpt lat="47.544246" lon="7.867967">
        <ele>336.192597</ele>
        <time>2021-11-20T11:23:47.276Z</time>
      </trkpt>
      <trkpt lat="47.544214" lon="7.867988">
        <ele>336.219491</ele>
        <time>2021-11-20T11:23:48.125Z</time>
      </trkpt>
      <trkpt lat="47.543801" lon="7.868269">
        <ele>336.477534</ele>
        <time>2021-11-20T11:24:00.083Z</time>
      </trkpt>
      <trkpt lat="47.543657" lon="7.868359">
        <ele>336.477534</ele>
        <time>2021-11-20T11:24:04.459Z</time>
      </trkpt>
      <trkpt lat="47.543201" lon="7.868657">
        <ele>336.477534</ele>
        <time>2021-11-20T11:24:15.563Z</time>
      </trkpt>
      <trkpt lat="47.543105" lon="7.868711">
        <ele>336.477534</ele>
        <time>2021-11-20T11:24:18.246Z</time>
      </trkpt>
      <trkpt lat="47.543049" lon="7.868759">
        <ele>336.477534</ele>
        <time>2021-11-20T11:24:19.633Z</time>
      </trkpt>
      <trkpt lat="47.542799" lon="7.869097">
        <ele>336.477534</ele>
        <time>2021-11-20T11:24:27.475Z</time>
      </trkpt>
    </trkseg>
  </trk>
</gpx>